<?xml version="1.0" encoding="UTF-8" standalone="no" ?>
<gpx xmlns="http://www.topografix.com/GPX/1/1" xmlns:xsi="http://www.w3.org/2001/XMLSchema-instance" xsi:schemaLocation="http://www.topografix.com/GPX/1/1 http://www.topografix.com/GPX/1/1/gpx.xsd" version="1.1" creator="VisuGPX - https://www.visugpx.com">
  <metadata>
    <name>Tour et ascension du Brouis</name>
    <desc><![CDATA[depart Bargeme, suivi du chemin de la coustiere jusqu\'au hameau de l\'estan, montéée au brouis et passage au col entre petit et grand brouis puis redescente de l\'autre coté via GRP. passage au pont de madame detour via chapelle et bastide neuve. retour via piste vers pra guillen et chemin vers Bargeme]]></desc>
  </metadata>
  <trk>
    <name><![CDATA[BROUIS]]></name>
    <trkseg>
      <trkpt lat="43.73007" lon="6.57097">
        <ele>1064.32</ele>
        <time>2026-05-17T06:23:48Z</time>
      </trkpt>
      <trkpt lat="43.73007" lon="6.57099">
        <ele>1066.24</ele>
        <time>2026-05-17T06:23:53Z</time>
      </trkpt>
      <trkpt lat="43.73008" lon="6.57099">
        <ele>1065.28</ele>
        <time>2026-05-17T06:23:58Z</time>
      </trkpt>
      <trkpt lat="43.73006" lon="6.57098">
        <ele>1064.8</ele>
        <time>2026-05-17T06:24:22Z</time>
      </trkpt>
      <trkpt lat="43.73005" lon="6.57092">
        <ele>1064.8</ele>
        <time>2026-05-17T06:24:36Z</time>
      </trkpt>
      <trkpt lat="43.73004" lon="6.57094">
        <ele>1064.8</ele>
        <time>2026-05-17T06:24:53Z</time>
      </trkpt>
      <trkpt lat="43.73004" lon="6.57095">
        <ele>1064.8</ele>
        <time>2026-05-17T06:24:54Z</time>
      </trkpt>
      <trkpt lat="43.72998" lon="6.57109">
        <ele>1064.8</ele>
        <time>2026-05-17T06:25:06Z</time>
      </trkpt>
      <trkpt lat="43.72987" lon="6.57144">
        <ele>1062.39</ele>
        <time>2026-05-17T06:25:27Z</time>
      </trkpt>
      <trkpt lat="43.72981" lon="6.57171">
        <ele>1063.84</ele>
        <time>2026-05-17T06:25:42Z</time>
      </trkpt>
      <trkpt lat="43.72978" lon="6.57183">
        <ele>1065.28</ele>
        <time>2026-05-17T06:25:51Z</time>
      </trkpt>
      <trkpt lat="43.72979" lon="6.57184">
        <ele>1065.28</ele>
        <time>2026-05-17T06:25:52Z</time>
      </trkpt>
      <trkpt lat="43.72984" lon="6.57193">
        <ele>1066.72</ele>
        <time>2026-05-17T06:26:00Z</time>
      </trkpt>
      <trkpt lat="43.72986" lon="6.572">
        <ele>1067.68</ele>
        <time>2026-05-17T06:26:06Z</time>
      </trkpt>
      <trkpt lat="43.72987" lon="6.57218">
        <ele>1070.57</ele>
        <time>2026-05-17T06:26:18Z</time>
      </trkpt>
      <trkpt lat="43.72987" lon="6.57237">
        <ele>1072.01</ele>
        <time>2026-05-17T06:26:31Z</time>
      </trkpt>
      <trkpt lat="43.7299" lon="6.57262">
        <ele>1072.97</ele>
        <time>2026-05-17T06:26:48Z</time>
      </trkpt>
      <trkpt lat="43.72989" lon="6.57268">
        <ele>1072.97</ele>
        <time>2026-05-17T06:26:55Z</time>
      </trkpt>
      <trkpt lat="43.72988" lon="6.57293">
        <ele>1073.45</ele>
        <time>2026-05-17T06:27:07Z</time>
      </trkpt>
      <trkpt lat="43.72987" lon="6.57296">
        <ele>1073.93</ele>
        <time>2026-05-17T06:27:18Z</time>
      </trkpt>
      <trkpt lat="43.72991" lon="6.57306">
        <ele>1074.41</ele>
        <time>2026-05-17T06:27:27Z</time>
      </trkpt>
      <trkpt lat="43.72999" lon="6.57307">
        <ele>1076.33</ele>
        <time>2026-05-17T06:27:43Z</time>
      </trkpt>
      <trkpt lat="43.73002" lon="6.573">
        <ele>1079.22</ele>
        <time>2026-05-17T06:27:56Z</time>
      </trkpt>
      <trkpt lat="43.73001" lon="6.57301">
        <ele>1079.22</ele>
        <time>2026-05-17T06:27:58Z</time>
      </trkpt>
      <trkpt lat="43.73002" lon="6.5731">
        <ele>1079.22</ele>
        <time>2026-05-17T06:28:05Z</time>
      </trkpt>
      <trkpt lat="43.73011" lon="6.57311">
        <ele>1081.14</ele>
        <time>2026-05-17T06:28:18Z</time>
      </trkpt>
      <trkpt lat="43.7301" lon="6.57308">
        <ele>1081.14</ele>
        <time>2026-05-17T06:28:31Z</time>
      </trkpt>
      <trkpt lat="43.73011" lon="6.57306">
        <ele>1081.14</ele>
        <time>2026-05-17T06:28:34Z</time>
      </trkpt>
      <trkpt lat="43.73012" lon="6.573">
        <ele>1081.62</ele>
        <time>2026-05-17T06:28:45Z</time>
      </trkpt>
      <trkpt lat="43.73012" lon="6.57292">
        <ele>1083.06</ele>
        <time>2026-05-17T06:28:51Z</time>
      </trkpt>
      <trkpt lat="43.73016" lon="6.57262">
        <ele>1084.5</ele>
        <time>2026-05-17T06:29:11Z</time>
      </trkpt>
      <trkpt lat="43.73011" lon="6.57232">
        <ele>1084.5</ele>
        <time>2026-05-17T06:29:28Z</time>
      </trkpt>
      <trkpt lat="43.73011" lon="6.57224">
        <ele>1083.54</ele>
        <time>2026-05-17T06:29:37Z</time>
      </trkpt>
      <trkpt lat="43.73013" lon="6.57217">
        <ele>1083.54</ele>
        <time>2026-05-17T06:29:41Z</time>
      </trkpt>
      <trkpt lat="43.73018" lon="6.5719">
        <ele>1081.62</ele>
        <time>2026-05-17T06:29:58Z</time>
      </trkpt>
      <trkpt lat="43.73026" lon="6.57158">
        <ele>1081.62</ele>
        <time>2026-05-17T06:30:16Z</time>
      </trkpt>
      <trkpt lat="43.73035" lon="6.57129">
        <ele>1081.14</ele>
        <time>2026-05-17T06:30:34Z</time>
      </trkpt>
      <trkpt lat="43.73045" lon="6.57104">
        <ele>1081.14</ele>
        <time>2026-05-17T06:30:50Z</time>
      </trkpt>
      <trkpt lat="43.73047" lon="6.57102">
        <ele>1082.1</ele>
        <time>2026-05-17T06:30:52Z</time>
      </trkpt>
      <trkpt lat="43.73062" lon="6.57072">
        <ele>1083.54</ele>
        <time>2026-05-17T06:31:13Z</time>
      </trkpt>
      <trkpt lat="43.73078" lon="6.57042">
        <ele>1085.47</ele>
        <time>2026-05-17T06:31:34Z</time>
      </trkpt>
      <trkpt lat="43.7309" lon="6.57019">
        <ele>1086.91</ele>
        <time>2026-05-17T06:31:51Z</time>
      </trkpt>
      <trkpt lat="43.73105" lon="6.56992">
        <ele>1088.35</ele>
        <time>2026-05-17T06:32:11Z</time>
      </trkpt>
      <trkpt lat="43.73122" lon="6.5696">
        <ele>1088.83</ele>
        <time>2026-05-17T06:32:33Z</time>
      </trkpt>
      <trkpt lat="43.73136" lon="6.56933">
        <ele>1087.87</ele>
        <time>2026-05-17T06:32:53Z</time>
      </trkpt>
      <trkpt lat="43.73149" lon="6.56902">
        <ele>1084.5</ele>
        <time>2026-05-17T06:33:13Z</time>
      </trkpt>
      <trkpt lat="43.73162" lon="6.56874">
        <ele>1081.14</ele>
        <time>2026-05-17T06:33:32Z</time>
      </trkpt>
      <trkpt lat="43.73177" lon="6.56857">
        <ele>1080.18</ele>
        <time>2026-05-17T06:33:48Z</time>
      </trkpt>
      <trkpt lat="43.73197" lon="6.56842">
        <ele>1079.7</ele>
        <time>2026-05-17T06:34:06Z</time>
      </trkpt>
      <trkpt lat="43.73203" lon="6.56843">
        <ele>1080.18</ele>
        <time>2026-05-17T06:34:12Z</time>
      </trkpt>
      <trkpt lat="43.73215" lon="6.56837">
        <ele>1080.18</ele>
        <time>2026-05-17T06:34:24Z</time>
      </trkpt>
      <trkpt lat="43.73205" lon="6.56835">
        <ele>1080.18</ele>
        <time>2026-05-17T06:34:41Z</time>
      </trkpt>
      <trkpt lat="43.73204" lon="6.56837">
        <ele>1080.18</ele>
        <time>2026-05-17T06:34:46Z</time>
      </trkpt>
      <trkpt lat="43.73222" lon="6.56836">
        <ele>1080.18</ele>
        <time>2026-05-17T06:35:02Z</time>
      </trkpt>
      <trkpt lat="43.73245" lon="6.56837">
        <ele>1079.22</ele>
        <time>2026-05-17T06:35:19Z</time>
      </trkpt>
      <trkpt lat="43.73265" lon="6.56832">
        <ele>1077.29</ele>
        <time>2026-05-17T06:35:34Z</time>
      </trkpt>
      <trkpt lat="43.73279" lon="6.56833">
        <ele>1075.85</ele>
        <time>2026-05-17T06:35:44Z</time>
      </trkpt>
      <trkpt lat="43.73302" lon="6.56829">
        <ele>1072.97</ele>
        <time>2026-05-17T06:36:01Z</time>
      </trkpt>
      <trkpt lat="43.73327" lon="6.56831">
        <ele>1072.97</ele>
        <time>2026-05-17T06:36:19Z</time>
      </trkpt>
      <trkpt lat="43.73352" lon="6.56839">
        <ele>1072.49</ele>
        <time>2026-05-17T06:36:38Z</time>
      </trkpt>
      <trkpt lat="43.73355" lon="6.5684">
        <ele>1072.49</ele>
        <time>2026-05-17T06:36:40Z</time>
      </trkpt>
      <trkpt lat="43.73382" lon="6.56849">
        <ele>1070.57</ele>
        <time>2026-05-17T06:36:59Z</time>
      </trkpt>
      <trkpt lat="43.73409" lon="6.56839">
        <ele>1072.01</ele>
        <time>2026-05-17T06:37:19Z</time>
      </trkpt>
      <trkpt lat="43.7343" lon="6.56826">
        <ele>1072.49</ele>
        <time>2026-05-17T06:37:36Z</time>
      </trkpt>
      <trkpt lat="43.73444" lon="6.56815">
        <ele>1072.49</ele>
        <time>2026-05-17T06:37:49Z</time>
      </trkpt>
      <trkpt lat="43.73451" lon="6.56826">
        <ele>1072.97</ele>
        <time>2026-05-17T06:38:01Z</time>
      </trkpt>
      <trkpt lat="43.73442" lon="6.56848">
        <ele>1074.41</ele>
        <time>2026-05-17T06:38:20Z</time>
      </trkpt>
      <trkpt lat="43.73439" lon="6.56873">
        <ele>1074.89</ele>
        <time>2026-05-17T06:38:35Z</time>
      </trkpt>
      <trkpt lat="43.73437" lon="6.5688">
        <ele>1074.89</ele>
        <time>2026-05-17T06:38:48Z</time>
      </trkpt>
      <trkpt lat="43.7344" lon="6.56882">
        <ele>1075.37</ele>
        <time>2026-05-17T06:38:58Z</time>
      </trkpt>
      <trkpt lat="43.73435" lon="6.56916">
        <ele>1075.85</ele>
        <time>2026-05-17T06:39:18Z</time>
      </trkpt>
      <trkpt lat="43.73429" lon="6.56946">
        <ele>1075.85</ele>
        <time>2026-05-17T06:39:35Z</time>
      </trkpt>
      <trkpt lat="43.73429" lon="6.56963">
        <ele>1074.89</ele>
        <time>2026-05-17T06:39:43Z</time>
      </trkpt>
      <trkpt lat="43.73426" lon="6.56996">
        <ele>1075.85</ele>
        <time>2026-05-17T06:40:00Z</time>
      </trkpt>
      <trkpt lat="43.73425" lon="6.57036">
        <ele>1075.85</ele>
        <time>2026-05-17T06:40:21Z</time>
      </trkpt>
      <trkpt lat="43.73419" lon="6.5708">
        <ele>1076.33</ele>
        <time>2026-05-17T06:40:43Z</time>
      </trkpt>
      <trkpt lat="43.7342" lon="6.57129">
        <ele>1076.33</ele>
        <time>2026-05-17T06:41:08Z</time>
      </trkpt>
      <trkpt lat="43.73422" lon="6.57167">
        <ele>1076.33</ele>
        <time>2026-05-17T06:41:27Z</time>
      </trkpt>
      <trkpt lat="43.73422" lon="6.57197">
        <ele>1074.89</ele>
        <time>2026-05-17T06:41:43Z</time>
      </trkpt>
      <trkpt lat="43.73425" lon="6.57236">
        <ele>1074.41</ele>
        <time>2026-05-17T06:42:03Z</time>
      </trkpt>
      <trkpt lat="43.73427" lon="6.57277">
        <ele>1074.41</ele>
        <time>2026-05-17T06:42:25Z</time>
      </trkpt>
      <trkpt lat="43.73433" lon="6.57306">
        <ele>1073.93</ele>
        <time>2026-05-17T06:42:42Z</time>
      </trkpt>
      <trkpt lat="43.73444" lon="6.5733">
        <ele>1073.45</ele>
        <time>2026-05-17T06:43:00Z</time>
      </trkpt>
      <trkpt lat="43.73444" lon="6.57331">
        <ele>1073.45</ele>
        <time>2026-05-17T06:43:02Z</time>
      </trkpt>
      <trkpt lat="43.73446" lon="6.57337">
        <ele>1073.45</ele>
        <time>2026-05-17T06:43:13Z</time>
      </trkpt>
      <trkpt lat="43.73448" lon="6.57348">
        <ele>1073.45</ele>
        <time>2026-05-17T06:43:20Z</time>
      </trkpt>
      <trkpt lat="43.73449" lon="6.57385">
        <ele>1072.97</ele>
        <time>2026-05-17T06:43:39Z</time>
      </trkpt>
      <trkpt lat="43.73459" lon="6.57419">
        <ele>1071.05</ele>
        <time>2026-05-17T06:43:57Z</time>
      </trkpt>
      <trkpt lat="43.73466" lon="6.57451">
        <ele>1070.57</ele>
        <time>2026-05-17T06:44:15Z</time>
      </trkpt>
      <trkpt lat="43.73477" lon="6.57494">
        <ele>1069.6</ele>
        <time>2026-05-17T06:44:39Z</time>
      </trkpt>
      <trkpt lat="43.73479" lon="6.57531">
        <ele>1069.6</ele>
        <time>2026-05-17T06:44:59Z</time>
      </trkpt>
      <trkpt lat="43.73479" lon="6.57571">
        <ele>1069.6</ele>
        <time>2026-05-17T06:45:19Z</time>
      </trkpt>
      <trkpt lat="43.7348" lon="6.57603">
        <ele>1069.6</ele>
        <time>2026-05-17T06:45:36Z</time>
      </trkpt>
      <trkpt lat="43.73481" lon="6.57609">
        <ele>1069.6</ele>
        <time>2026-05-17T06:45:40Z</time>
      </trkpt>
      <trkpt lat="43.73481" lon="6.57619">
        <ele>1069.6</ele>
        <time>2026-05-17T06:45:46Z</time>
      </trkpt>
      <trkpt lat="43.73484" lon="6.57642">
        <ele>1069.6</ele>
        <time>2026-05-17T06:46:02Z</time>
      </trkpt>
      <trkpt lat="43.73484" lon="6.57666">
        <ele>1070.57</ele>
        <time>2026-05-17T06:46:15Z</time>
      </trkpt>
      <trkpt lat="43.73484" lon="6.57682">
        <ele>1071.05</ele>
        <time>2026-05-17T06:46:29Z</time>
      </trkpt>
      <trkpt lat="43.73489" lon="6.57701">
        <ele>1071.05</ele>
        <time>2026-05-17T06:46:46Z</time>
      </trkpt>
      <trkpt lat="43.73496" lon="6.57726">
        <ele>1070.08</ele>
        <time>2026-05-17T06:47:01Z</time>
      </trkpt>
      <trkpt lat="43.73504" lon="6.57751">
        <ele>1067.2</ele>
        <time>2026-05-17T06:47:17Z</time>
      </trkpt>
      <trkpt lat="43.73516" lon="6.5779">
        <ele>1066.72</ele>
        <time>2026-05-17T06:47:40Z</time>
      </trkpt>
      <trkpt lat="43.73525" lon="6.57822">
        <ele>1066.72</ele>
        <time>2026-05-17T06:47:58Z</time>
      </trkpt>
      <trkpt lat="43.73533" lon="6.57861">
        <ele>1066.72</ele>
        <time>2026-05-17T06:48:20Z</time>
      </trkpt>
      <trkpt lat="43.73535" lon="6.57893">
        <ele>1066.72</ele>
        <time>2026-05-17T06:48:37Z</time>
      </trkpt>
      <trkpt lat="43.73532" lon="6.57935">
        <ele>1065.76</ele>
        <time>2026-05-17T06:49:00Z</time>
      </trkpt>
      <trkpt lat="43.7353" lon="6.57966">
        <ele>1065.76</ele>
        <time>2026-05-17T06:49:18Z</time>
      </trkpt>
      <trkpt lat="43.7353" lon="6.58006">
        <ele>1068.16</ele>
        <time>2026-05-17T06:49:40Z</time>
      </trkpt>
      <trkpt lat="43.73528" lon="6.58039">
        <ele>1068.16</ele>
        <time>2026-05-17T06:49:58Z</time>
      </trkpt>
      <trkpt lat="43.73527" lon="6.58075">
        <ele>1066.72</ele>
        <time>2026-05-17T06:50:17Z</time>
      </trkpt>
      <trkpt lat="43.73524" lon="6.58108">
        <ele>1065.28</ele>
        <time>2026-05-17T06:50:35Z</time>
      </trkpt>
      <trkpt lat="43.73521" lon="6.58149">
        <ele>1063.36</ele>
        <time>2026-05-17T06:50:57Z</time>
      </trkpt>
      <trkpt lat="43.73519" lon="6.58185">
        <ele>1062.87</ele>
        <time>2026-05-17T06:51:17Z</time>
      </trkpt>
      <trkpt lat="43.73519" lon="6.58225">
        <ele>1062.87</ele>
        <time>2026-05-17T06:51:38Z</time>
      </trkpt>
      <trkpt lat="43.7352" lon="6.58266">
        <ele>1061.91</ele>
        <time>2026-05-17T06:51:59Z</time>
      </trkpt>
      <trkpt lat="43.7352" lon="6.58311">
        <ele>1059.03</ele>
        <time>2026-05-17T06:52:23Z</time>
      </trkpt>
      <trkpt lat="43.73522" lon="6.58345">
        <ele>1056.63</ele>
        <time>2026-05-17T06:52:41Z</time>
      </trkpt>
      <trkpt lat="43.73525" lon="6.58383">
        <ele>1055.67</ele>
        <time>2026-05-17T06:53:02Z</time>
      </trkpt>
      <trkpt lat="43.73526" lon="6.58417">
        <ele>1057.11</ele>
        <time>2026-05-17T06:53:21Z</time>
      </trkpt>
      <trkpt lat="43.73534" lon="6.58454">
        <ele>1058.07</ele>
        <time>2026-05-17T06:53:42Z</time>
      </trkpt>
      <trkpt lat="43.73541" lon="6.58484">
        <ele>1054.7</ele>
        <time>2026-05-17T06:54:00Z</time>
      </trkpt>
      <trkpt lat="43.73542" lon="6.58495">
        <ele>1053.26</ele>
        <time>2026-05-17T06:54:14Z</time>
      </trkpt>
      <trkpt lat="43.73541" lon="6.58496">
        <ele>1053.26</ele>
        <time>2026-05-17T06:54:37Z</time>
      </trkpt>
      <trkpt lat="43.73541" lon="6.58497">
        <ele>1053.26</ele>
        <time>2026-05-17T06:54:38Z</time>
      </trkpt>
      <trkpt lat="43.73547" lon="6.5851">
        <ele>1053.26</ele>
        <time>2026-05-17T06:54:49Z</time>
      </trkpt>
      <trkpt lat="43.73548" lon="6.58521">
        <ele>1052.78</ele>
        <time>2026-05-17T06:54:56Z</time>
      </trkpt>
      <trkpt lat="43.73556" lon="6.58557">
        <ele>1052.78</ele>
        <time>2026-05-17T06:55:17Z</time>
      </trkpt>
      <trkpt lat="43.73562" lon="6.58584">
        <ele>1054.22</ele>
        <time>2026-05-17T06:55:33Z</time>
      </trkpt>
      <trkpt lat="43.73569" lon="6.58616">
        <ele>1054.22</ele>
        <time>2026-05-17T06:55:52Z</time>
      </trkpt>
      <trkpt lat="43.73574" lon="6.58654">
        <ele>1052.78</ele>
        <time>2026-05-17T06:56:13Z</time>
      </trkpt>
      <trkpt lat="43.73576" lon="6.58694">
        <ele>1051.82</ele>
        <time>2026-05-17T06:56:35Z</time>
      </trkpt>
      <trkpt lat="43.73581" lon="6.58726">
        <ele>1053.26</ele>
        <time>2026-05-17T06:56:54Z</time>
      </trkpt>
      <trkpt lat="43.73592" lon="6.58757">
        <ele>1053.26</ele>
        <time>2026-05-17T06:57:14Z</time>
      </trkpt>
      <trkpt lat="43.73603" lon="6.58784">
        <ele>1054.7</ele>
        <time>2026-05-17T06:57:32Z</time>
      </trkpt>
      <trkpt lat="43.73604" lon="6.588">
        <ele>1054.7</ele>
        <time>2026-05-17T06:57:49Z</time>
      </trkpt>
      <trkpt lat="43.73606" lon="6.58802">
        <ele>1054.7</ele>
        <time>2026-05-17T06:57:57Z</time>
      </trkpt>
      <trkpt lat="43.73608" lon="6.58809">
        <ele>1054.7</ele>
        <time>2026-05-17T06:58:02Z</time>
      </trkpt>
      <trkpt lat="43.73613" lon="6.58828">
        <ele>1053.26</ele>
        <time>2026-05-17T06:58:13Z</time>
      </trkpt>
      <trkpt lat="43.73617" lon="6.58835">
        <ele>1053.26</ele>
        <time>2026-05-17T06:58:18Z</time>
      </trkpt>
      <trkpt lat="43.7362" lon="6.5884">
        <ele>1052.3</ele>
        <time>2026-05-17T06:58:22Z</time>
      </trkpt>
      <trkpt lat="43.73634" lon="6.58862">
        <ele>1050.86</ele>
        <time>2026-05-17T06:58:39Z</time>
      </trkpt>
      <trkpt lat="43.73653" lon="6.58885">
        <ele>1049.9</ele>
        <time>2026-05-17T06:58:58Z</time>
      </trkpt>
      <trkpt lat="43.7367" lon="6.5891">
        <ele>1049.9</ele>
        <time>2026-05-17T06:59:16Z</time>
      </trkpt>
      <trkpt lat="43.73683" lon="6.58935">
        <ele>1049.42</ele>
        <time>2026-05-17T06:59:33Z</time>
      </trkpt>
      <trkpt lat="43.73693" lon="6.58968">
        <ele>1049.42</ele>
        <time>2026-05-17T06:59:53Z</time>
      </trkpt>
      <trkpt lat="43.73701" lon="6.59007">
        <ele>1048.94</ele>
        <time>2026-05-17T07:00:15Z</time>
      </trkpt>
      <trkpt lat="43.73704" lon="6.59046">
        <ele>1048.94</ele>
        <time>2026-05-17T07:00:36Z</time>
      </trkpt>
      <trkpt lat="43.73705" lon="6.59092">
        <ele>1047.97</ele>
        <time>2026-05-17T07:01:00Z</time>
      </trkpt>
      <trkpt lat="43.73705" lon="6.59134">
        <ele>1046.53</ele>
        <time>2026-05-17T07:01:22Z</time>
      </trkpt>
      <trkpt lat="43.73705" lon="6.59167">
        <ele>1046.05</ele>
        <time>2026-05-17T07:01:40Z</time>
      </trkpt>
      <trkpt lat="43.73705" lon="6.59173">
        <ele>1047.49</ele>
        <time>2026-05-17T07:01:44Z</time>
      </trkpt>
      <trkpt lat="43.73706" lon="6.59205">
        <ele>1048.94</ele>
        <time>2026-05-17T07:02:03Z</time>
      </trkpt>
      <trkpt lat="43.73704" lon="6.59235">
        <ele>1050.38</ele>
        <time>2026-05-17T07:02:21Z</time>
      </trkpt>
      <trkpt lat="43.73704" lon="6.59241">
        <ele>1050.86</ele>
        <time>2026-05-17T07:02:25Z</time>
      </trkpt>
      <trkpt lat="43.73705" lon="6.59247">
        <ele>1050.86</ele>
        <time>2026-05-17T07:02:43Z</time>
      </trkpt>
      <trkpt lat="43.73704" lon="6.59277">
        <ele>1049.42</ele>
        <time>2026-05-17T07:03:01Z</time>
      </trkpt>
      <trkpt lat="43.73704" lon="6.59279">
        <ele>1049.42</ele>
        <time>2026-05-17T07:03:02Z</time>
      </trkpt>
      <trkpt lat="43.73705" lon="6.5931">
        <ele>1050.86</ele>
        <time>2026-05-17T07:03:19Z</time>
      </trkpt>
      <trkpt lat="43.73707" lon="6.5934">
        <ele>1052.3</ele>
        <time>2026-05-17T07:03:37Z</time>
      </trkpt>
      <trkpt lat="43.73704" lon="6.59365">
        <ele>1053.26</ele>
        <time>2026-05-17T07:03:52Z</time>
      </trkpt>
      <trkpt lat="43.73705" lon="6.59394">
        <ele>1053.74</ele>
        <time>2026-05-17T07:04:11Z</time>
      </trkpt>
      <trkpt lat="43.73702" lon="6.59428">
        <ele>1054.22</ele>
        <time>2026-05-17T07:04:29Z</time>
      </trkpt>
      <trkpt lat="43.73695" lon="6.5946">
        <ele>1051.82</ele>
        <time>2026-05-17T07:04:47Z</time>
      </trkpt>
      <trkpt lat="43.73689" lon="6.59499">
        <ele>1051.34</ele>
        <time>2026-05-17T07:05:07Z</time>
      </trkpt>
      <trkpt lat="43.73678" lon="6.59533">
        <ele>1050.86</ele>
        <time>2026-05-17T07:05:27Z</time>
      </trkpt>
      <trkpt lat="43.73674" lon="6.59566">
        <ele>1050.86</ele>
        <time>2026-05-17T07:05:46Z</time>
      </trkpt>
      <trkpt lat="43.73673" lon="6.596">
        <ele>1049.9</ele>
        <time>2026-05-17T07:06:04Z</time>
      </trkpt>
      <trkpt lat="43.73667" lon="6.59631">
        <ele>1047.01</ele>
        <time>2026-05-17T07:06:23Z</time>
      </trkpt>
      <trkpt lat="43.73665" lon="6.5964">
        <ele>1045.57</ele>
        <time>2026-05-17T07:06:28Z</time>
      </trkpt>
      <trkpt lat="43.73666" lon="6.59646">
        <ele>1044.61</ele>
        <time>2026-05-17T07:06:32Z</time>
      </trkpt>
      <trkpt lat="43.73665" lon="6.59653">
        <ele>1044.61</ele>
        <time>2026-05-17T07:06:36Z</time>
      </trkpt>
      <trkpt lat="43.73665" lon="6.5968">
        <ele>1041.73</ele>
        <time>2026-05-17T07:06:51Z</time>
      </trkpt>
      <trkpt lat="43.73661" lon="6.5971">
        <ele>1040.28</ele>
        <time>2026-05-17T07:07:07Z</time>
      </trkpt>
      <trkpt lat="43.73653" lon="6.59756">
        <ele>1038.84</ele>
        <time>2026-05-17T07:07:30Z</time>
      </trkpt>
      <trkpt lat="43.73653" lon="6.59797">
        <ele>1039.32</ele>
        <time>2026-05-17T07:07:52Z</time>
      </trkpt>
      <trkpt lat="43.73654" lon="6.598">
        <ele>1040.28</ele>
        <time>2026-05-17T07:07:54Z</time>
      </trkpt>
      <trkpt lat="43.73667" lon="6.59824">
        <ele>1040.76</ele>
        <time>2026-05-17T07:08:13Z</time>
      </trkpt>
      <trkpt lat="43.73674" lon="6.59849">
        <ele>1038.36</ele>
        <time>2026-05-17T07:08:32Z</time>
      </trkpt>
      <trkpt lat="43.73684" lon="6.5987">
        <ele>1037.88</ele>
        <time>2026-05-17T07:08:46Z</time>
      </trkpt>
      <trkpt lat="43.73695" lon="6.59894">
        <ele>1039.32</ele>
        <time>2026-05-17T07:09:00Z</time>
      </trkpt>
      <trkpt lat="43.73699" lon="6.59927">
        <ele>1041.25</ele>
        <time>2026-05-17T07:09:20Z</time>
      </trkpt>
      <trkpt lat="43.737" lon="6.5996">
        <ele>1043.65</ele>
        <time>2026-05-17T07:09:41Z</time>
      </trkpt>
      <trkpt lat="43.73698" lon="6.59988">
        <ele>1044.13</ele>
        <time>2026-05-17T07:09:58Z</time>
      </trkpt>
      <trkpt lat="43.73694" lon="6.60026">
        <ele>1044.61</ele>
        <time>2026-05-17T07:10:20Z</time>
      </trkpt>
      <trkpt lat="43.73691" lon="6.60061">
        <ele>1044.61</ele>
        <time>2026-05-17T07:10:40Z</time>
      </trkpt>
      <trkpt lat="43.73685" lon="6.60101">
        <ele>1043.65</ele>
        <time>2026-05-17T07:11:01Z</time>
      </trkpt>
      <trkpt lat="43.73674" lon="6.60149">
        <ele>1043.17</ele>
        <time>2026-05-17T07:11:28Z</time>
      </trkpt>
      <trkpt lat="43.7367" lon="6.60189">
        <ele>1041.73</ele>
        <time>2026-05-17T07:11:50Z</time>
      </trkpt>
      <trkpt lat="43.73666" lon="6.60219">
        <ele>1041.73</ele>
        <time>2026-05-17T07:12:08Z</time>
      </trkpt>
      <trkpt lat="43.73662" lon="6.60253">
        <ele>1041.73</ele>
        <time>2026-05-17T07:12:27Z</time>
      </trkpt>
      <trkpt lat="43.73662" lon="6.60262">
        <ele>1041.73</ele>
        <time>2026-05-17T07:12:32Z</time>
      </trkpt>
      <trkpt lat="43.73661" lon="6.60278">
        <ele>1041.73</ele>
        <time>2026-05-17T07:12:44Z</time>
      </trkpt>
      <trkpt lat="43.73656" lon="6.6032">
        <ele>1040.76</ele>
        <time>2026-05-17T07:13:07Z</time>
      </trkpt>
      <trkpt lat="43.73652" lon="6.60354">
        <ele>1039.32</ele>
        <time>2026-05-17T07:13:26Z</time>
      </trkpt>
      <trkpt lat="43.73651" lon="6.60399">
        <ele>1037.88</ele>
        <time>2026-05-17T07:13:51Z</time>
      </trkpt>
      <trkpt lat="43.73651" lon="6.60436">
        <ele>1036.92</ele>
        <time>2026-05-17T07:14:11Z</time>
      </trkpt>
      <trkpt lat="43.73653" lon="6.60466">
        <ele>1036.44</ele>
        <time>2026-05-17T07:14:28Z</time>
      </trkpt>
      <trkpt lat="43.73651" lon="6.60502">
        <ele>1037.88</ele>
        <time>2026-05-17T07:14:48Z</time>
      </trkpt>
      <trkpt lat="43.73651" lon="6.60503">
        <ele>1037.88</ele>
        <time>2026-05-17T07:14:49Z</time>
      </trkpt>
      <trkpt lat="43.73652" lon="6.60546">
        <ele>1037.88</ele>
        <time>2026-05-17T07:15:13Z</time>
      </trkpt>
      <trkpt lat="43.73653" lon="6.60573">
        <ele>1036.92</ele>
        <time>2026-05-17T07:15:29Z</time>
      </trkpt>
      <trkpt lat="43.73655" lon="6.60591">
        <ele>1035.96</ele>
        <time>2026-05-17T07:15:40Z</time>
      </trkpt>
      <trkpt lat="43.73658" lon="6.6061">
        <ele>1034.04</ele>
        <time>2026-05-17T07:15:51Z</time>
      </trkpt>
      <trkpt lat="43.73662" lon="6.60642">
        <ele>1033.55</ele>
        <time>2026-05-17T07:16:10Z</time>
      </trkpt>
      <trkpt lat="43.73663" lon="6.60673">
        <ele>1034.52</ele>
        <time>2026-05-17T07:16:29Z</time>
      </trkpt>
      <trkpt lat="43.73663" lon="6.60698">
        <ele>1035.96</ele>
        <time>2026-05-17T07:16:45Z</time>
      </trkpt>
      <trkpt lat="43.73663" lon="6.60706">
        <ele>1037.4</ele>
        <time>2026-05-17T07:16:51Z</time>
      </trkpt>
      <trkpt lat="43.73663" lon="6.60719">
        <ele>1038.84</ele>
        <time>2026-05-17T07:17:01Z</time>
      </trkpt>
      <trkpt lat="43.73662" lon="6.60734">
        <ele>1040.76</ele>
        <time>2026-05-17T07:17:13Z</time>
      </trkpt>
      <trkpt lat="43.73661" lon="6.60737">
        <ele>1041.25</ele>
        <time>2026-05-17T07:17:16Z</time>
      </trkpt>
      <trkpt lat="43.73661" lon="6.6074">
        <ele>1041.25</ele>
        <time>2026-05-17T07:17:18Z</time>
      </trkpt>
      <trkpt lat="43.73659" lon="6.60757">
        <ele>1042.69</ele>
        <time>2026-05-17T07:17:30Z</time>
      </trkpt>
      <trkpt lat="43.73659" lon="6.6076">
        <ele>1043.17</ele>
        <time>2026-05-17T07:17:33Z</time>
      </trkpt>
      <trkpt lat="43.73659" lon="6.60765">
        <ele>1043.17</ele>
        <time>2026-05-17T07:17:36Z</time>
      </trkpt>
      <trkpt lat="43.73658" lon="6.60769">
        <ele>1043.65</ele>
        <time>2026-05-17T07:17:39Z</time>
      </trkpt>
      <trkpt lat="43.73659" lon="6.60801">
        <ele>1044.13</ele>
        <time>2026-05-17T07:17:59Z</time>
      </trkpt>
      <trkpt lat="43.73664" lon="6.60831">
        <ele>1042.69</ele>
        <time>2026-05-17T07:18:18Z</time>
      </trkpt>
      <trkpt lat="43.73673" lon="6.6087">
        <ele>1040.76</ele>
        <time>2026-05-17T07:18:41Z</time>
      </trkpt>
      <trkpt lat="43.73675" lon="6.60914">
        <ele>1038.84</ele>
        <time>2026-05-17T07:19:05Z</time>
      </trkpt>
      <trkpt lat="43.73674" lon="6.60954">
        <ele>1037.88</ele>
        <time>2026-05-17T07:19:27Z</time>
      </trkpt>
      <trkpt lat="43.73674" lon="6.60993">
        <ele>1037.88</ele>
        <time>2026-05-17T07:19:49Z</time>
      </trkpt>
      <trkpt lat="43.73668" lon="6.61028">
        <ele>1036.92</ele>
        <time>2026-05-17T07:20:09Z</time>
      </trkpt>
      <trkpt lat="43.73668" lon="6.61038">
        <ele>1036.92</ele>
        <time>2026-05-17T07:20:26Z</time>
      </trkpt>
      <trkpt lat="43.73669" lon="6.61043">
        <ele>1036.92</ele>
        <time>2026-05-17T07:20:34Z</time>
      </trkpt>
      <trkpt lat="43.73663" lon="6.61076">
        <ele>1036.92</ele>
        <time>2026-05-17T07:20:54Z</time>
      </trkpt>
      <trkpt lat="43.73655" lon="6.61119">
        <ele>1038.84</ele>
        <time>2026-05-17T07:21:18Z</time>
      </trkpt>
      <trkpt lat="43.73651" lon="6.61153">
        <ele>1038.84</ele>
        <time>2026-05-17T07:21:38Z</time>
      </trkpt>
      <trkpt lat="43.73646" lon="6.61185">
        <ele>1038.84</ele>
        <time>2026-05-17T07:21:57Z</time>
      </trkpt>
      <trkpt lat="43.73643" lon="6.61214">
        <ele>1039.32</ele>
        <time>2026-05-17T07:22:15Z</time>
      </trkpt>
      <trkpt lat="43.73642" lon="6.61225">
        <ele>1039.32</ele>
        <time>2026-05-17T07:22:30Z</time>
      </trkpt>
      <trkpt lat="43.7364" lon="6.61233">
        <ele>1039.8</ele>
        <time>2026-05-17T07:22:50Z</time>
      </trkpt>
      <trkpt lat="43.73638" lon="6.6124">
        <ele>1040.28</ele>
        <time>2026-05-17T07:22:56Z</time>
      </trkpt>
      <trkpt lat="43.73636" lon="6.61245">
        <ele>1040.28</ele>
        <time>2026-05-17T07:23:00Z</time>
      </trkpt>
      <trkpt lat="43.73642" lon="6.61249">
        <ele>1041.73</ele>
        <time>2026-05-17T07:23:11Z</time>
      </trkpt>
      <trkpt lat="43.73649" lon="6.61246">
        <ele>1042.69</ele>
        <time>2026-05-17T07:23:20Z</time>
      </trkpt>
      <trkpt lat="43.7366" lon="6.61234">
        <ele>1044.61</ele>
        <time>2026-05-17T07:23:36Z</time>
      </trkpt>
      <trkpt lat="43.73669" lon="6.61222">
        <ele>1046.53</ele>
        <time>2026-05-17T07:23:53Z</time>
      </trkpt>
      <trkpt lat="43.73676" lon="6.61211">
        <ele>1048.94</ele>
        <time>2026-05-17T07:24:07Z</time>
      </trkpt>
      <trkpt lat="43.73683" lon="6.61198">
        <ele>1051.34</ele>
        <time>2026-05-17T07:24:22Z</time>
      </trkpt>
      <trkpt lat="43.73691" lon="6.61186">
        <ele>1052.78</ele>
        <time>2026-05-17T07:24:37Z</time>
      </trkpt>
      <trkpt lat="43.73701" lon="6.61179">
        <ele>1054.7</ele>
        <time>2026-05-17T07:24:52Z</time>
      </trkpt>
      <trkpt lat="43.73702" lon="6.61176">
        <ele>1055.67</ele>
        <time>2026-05-17T07:24:55Z</time>
      </trkpt>
      <trkpt lat="43.73708" lon="6.61158">
        <ele>1055.18</ele>
        <time>2026-05-17T07:25:10Z</time>
      </trkpt>
      <trkpt lat="43.73711" lon="6.6115">
        <ele>1056.63</ele>
        <time>2026-05-17T07:25:24Z</time>
      </trkpt>
      <trkpt lat="43.73718" lon="6.61147">
        <ele>1058.55</ele>
        <time>2026-05-17T07:25:38Z</time>
      </trkpt>
      <trkpt lat="43.73724" lon="6.6115">
        <ele>1060.47</ele>
        <time>2026-05-17T07:25:53Z</time>
      </trkpt>
      <trkpt lat="43.73728" lon="6.6115">
        <ele>1062.87</ele>
        <time>2026-05-17T07:26:06Z</time>
      </trkpt>
      <trkpt lat="43.73733" lon="6.61147">
        <ele>1064.32</ele>
        <time>2026-05-17T07:26:17Z</time>
      </trkpt>
      <trkpt lat="43.73737" lon="6.61143">
        <ele>1065.76</ele>
        <time>2026-05-17T07:26:29Z</time>
      </trkpt>
      <trkpt lat="43.7374" lon="6.6114">
        <ele>1067.68</ele>
        <time>2026-05-17T07:26:42Z</time>
      </trkpt>
      <trkpt lat="43.73744" lon="6.61139">
        <ele>1069.12</ele>
        <time>2026-05-17T07:26:54Z</time>
      </trkpt>
      <trkpt lat="43.73745" lon="6.61143">
        <ele>1071.05</ele>
        <time>2026-05-17T07:27:04Z</time>
      </trkpt>
      <trkpt lat="43.73751" lon="6.61144">
        <ele>1072.49</ele>
        <time>2026-05-17T07:27:17Z</time>
      </trkpt>
      <trkpt lat="43.73756" lon="6.61138">
        <ele>1074.41</ele>
        <time>2026-05-17T07:27:32Z</time>
      </trkpt>
      <trkpt lat="43.73759" lon="6.61131">
        <ele>1075.85</ele>
        <time>2026-05-17T07:27:48Z</time>
      </trkpt>
      <trkpt lat="43.73763" lon="6.61126">
        <ele>1077.78</ele>
        <time>2026-05-17T07:28:00Z</time>
      </trkpt>
      <trkpt lat="43.73765" lon="6.61122">
        <ele>1079.22</ele>
        <time>2026-05-17T07:28:16Z</time>
      </trkpt>
      <trkpt lat="43.73765" lon="6.61121">
        <ele>1079.22</ele>
        <time>2026-05-17T07:28:37Z</time>
      </trkpt>
      <trkpt lat="43.73767" lon="6.61116">
        <ele>1080.18</ele>
        <time>2026-05-17T07:28:49Z</time>
      </trkpt>
      <trkpt lat="43.73772" lon="6.61109">
        <ele>1082.58</ele>
        <time>2026-05-17T07:29:02Z</time>
      </trkpt>
      <trkpt lat="43.73775" lon="6.61101">
        <ele>1084.5</ele>
        <time>2026-05-17T07:29:15Z</time>
      </trkpt>
      <trkpt lat="43.73776" lon="6.61089">
        <ele>1086.43</ele>
        <time>2026-05-17T07:29:30Z</time>
      </trkpt>
      <trkpt lat="43.73776" lon="6.61071">
        <ele>1087.39</ele>
        <time>2026-05-17T07:29:44Z</time>
      </trkpt>
      <trkpt lat="43.73777" lon="6.61064">
        <ele>1087.87</ele>
        <time>2026-05-17T07:29:49Z</time>
      </trkpt>
      <trkpt lat="43.73777" lon="6.61048">
        <ele>1088.35</ele>
        <time>2026-05-17T07:30:04Z</time>
      </trkpt>
      <trkpt lat="43.73779" lon="6.61037">
        <ele>1089.79</ele>
        <time>2026-05-17T07:30:17Z</time>
      </trkpt>
      <trkpt lat="43.7378" lon="6.61022">
        <ele>1091.23</ele>
        <time>2026-05-17T07:30:32Z</time>
      </trkpt>
      <trkpt lat="43.73781" lon="6.61014">
        <ele>1092.2</ele>
        <time>2026-05-17T07:30:43Z</time>
      </trkpt>
      <trkpt lat="43.73785" lon="6.61004">
        <ele>1093.64</ele>
        <time>2026-05-17T07:30:55Z</time>
      </trkpt>
      <trkpt lat="43.7379" lon="6.60994">
        <ele>1096.04</ele>
        <time>2026-05-17T07:31:10Z</time>
      </trkpt>
      <trkpt lat="43.73794" lon="6.60983">
        <ele>1097.96</ele>
        <time>2026-05-17T07:31:24Z</time>
      </trkpt>
      <trkpt lat="43.73796" lon="6.60973">
        <ele>1098.92</ele>
        <time>2026-05-17T07:31:38Z</time>
      </trkpt>
      <trkpt lat="43.73798" lon="6.60965">
        <ele>1100.37</ele>
        <time>2026-05-17T07:31:49Z</time>
      </trkpt>
      <trkpt lat="43.73801" lon="6.60957">
        <ele>1101.81</ele>
        <time>2026-05-17T07:32:01Z</time>
      </trkpt>
      <trkpt lat="43.73804" lon="6.60947">
        <ele>1102.77</ele>
        <time>2026-05-17T07:32:12Z</time>
      </trkpt>
      <trkpt lat="43.73805" lon="6.60934">
        <ele>1104.69</ele>
        <time>2026-05-17T07:32:25Z</time>
      </trkpt>
      <trkpt lat="43.73806" lon="6.60922">
        <ele>1105.65</ele>
        <time>2026-05-17T07:32:37Z</time>
      </trkpt>
      <trkpt lat="43.73808" lon="6.60914">
        <ele>1107.1</ele>
        <time>2026-05-17T07:32:47Z</time>
      </trkpt>
      <trkpt lat="43.7381" lon="6.60905">
        <ele>1108.06</ele>
        <time>2026-05-17T07:32:59Z</time>
      </trkpt>
      <trkpt lat="43.73813" lon="6.60895">
        <ele>1109.02</ele>
        <time>2026-05-17T07:33:11Z</time>
      </trkpt>
      <trkpt lat="43.73814" lon="6.60885">
        <ele>1109.5</ele>
        <time>2026-05-17T07:33:20Z</time>
      </trkpt>
      <trkpt lat="43.73817" lon="6.60869">
        <ele>1110.46</ele>
        <time>2026-05-17T07:33:35Z</time>
      </trkpt>
      <trkpt lat="43.73821" lon="6.60859">
        <ele>1112.38</ele>
        <time>2026-05-17T07:33:49Z</time>
      </trkpt>
      <trkpt lat="43.73824" lon="6.60851">
        <ele>1113.82</ele>
        <time>2026-05-17T07:34:02Z</time>
      </trkpt>
      <trkpt lat="43.73827" lon="6.60842">
        <ele>1115.27</ele>
        <time>2026-05-17T07:34:15Z</time>
      </trkpt>
      <trkpt lat="43.73832" lon="6.60833">
        <ele>1117.19</ele>
        <time>2026-05-17T07:34:31Z</time>
      </trkpt>
      <trkpt lat="43.73836" lon="6.60829">
        <ele>1119.59</ele>
        <time>2026-05-17T07:34:43Z</time>
      </trkpt>
      <trkpt lat="43.73837" lon="6.60835">
        <ele>1120.55</ele>
        <time>2026-05-17T07:34:56Z</time>
      </trkpt>
      <trkpt lat="43.73839" lon="6.60842">
        <ele>1122.48</ele>
        <time>2026-05-17T07:35:09Z</time>
      </trkpt>
      <trkpt lat="43.7384" lon="6.60848">
        <ele>1123.44</ele>
        <time>2026-05-17T07:35:21Z</time>
      </trkpt>
      <trkpt lat="43.73845" lon="6.60846">
        <ele>1124.88</ele>
        <time>2026-05-17T07:35:33Z</time>
      </trkpt>
      <trkpt lat="43.73847" lon="6.60841">
        <ele>1126.8</ele>
        <time>2026-05-17T07:35:45Z</time>
      </trkpt>
      <trkpt lat="43.73849" lon="6.60833">
        <ele>1128.24</ele>
        <time>2026-05-17T07:36:00Z</time>
      </trkpt>
      <trkpt lat="43.73852" lon="6.60828">
        <ele>1129.69</ele>
        <time>2026-05-17T07:36:12Z</time>
      </trkpt>
      <trkpt lat="43.73856" lon="6.60823">
        <ele>1131.13</ele>
        <time>2026-05-17T07:36:26Z</time>
      </trkpt>
      <trkpt lat="43.73858" lon="6.6083">
        <ele>1132.57</ele>
        <time>2026-05-17T07:36:38Z</time>
      </trkpt>
      <trkpt lat="43.73859" lon="6.60832">
        <ele>1133.53</ele>
        <time>2026-05-17T07:36:51Z</time>
      </trkpt>
      <trkpt lat="43.7386" lon="6.60833">
        <ele>1134.01</ele>
        <time>2026-05-17T07:37:11Z</time>
      </trkpt>
      <trkpt lat="43.73861" lon="6.6084">
        <ele>1134.97</ele>
        <time>2026-05-17T07:37:25Z</time>
      </trkpt>
      <trkpt lat="43.73863" lon="6.60838">
        <ele>1135.94</ele>
        <time>2026-05-17T07:37:36Z</time>
      </trkpt>
      <trkpt lat="43.73867" lon="6.60831">
        <ele>1138.34</ele>
        <time>2026-05-17T07:37:49Z</time>
      </trkpt>
      <trkpt lat="43.73871" lon="6.60823">
        <ele>1140.26</ele>
        <time>2026-05-17T07:38:01Z</time>
      </trkpt>
      <trkpt lat="43.73874" lon="6.60819">
        <ele>1141.7</ele>
        <time>2026-05-17T07:38:15Z</time>
      </trkpt>
      <trkpt lat="43.73878" lon="6.60812">
        <ele>1143.14</ele>
        <time>2026-05-17T07:38:28Z</time>
      </trkpt>
      <trkpt lat="43.73883" lon="6.60807">
        <ele>1145.07</ele>
        <time>2026-05-17T07:38:41Z</time>
      </trkpt>
      <trkpt lat="43.73888" lon="6.60798">
        <ele>1146.51</ele>
        <time>2026-05-17T07:38:55Z</time>
      </trkpt>
      <trkpt lat="43.73894" lon="6.60794">
        <ele>1148.43</ele>
        <time>2026-05-17T07:39:08Z</time>
      </trkpt>
      <trkpt lat="43.73894" lon="6.60801">
        <ele>1149.87</ele>
        <time>2026-05-17T07:39:21Z</time>
      </trkpt>
      <trkpt lat="43.73894" lon="6.60809">
        <ele>1151.32</ele>
        <time>2026-05-17T07:39:33Z</time>
      </trkpt>
      <trkpt lat="43.73892" lon="6.60813">
        <ele>1153.24</ele>
        <time>2026-05-17T07:39:46Z</time>
      </trkpt>
      <trkpt lat="43.73893" lon="6.60822">
        <ele>1153.72</ele>
        <time>2026-05-17T07:40:02Z</time>
      </trkpt>
      <trkpt lat="43.73894" lon="6.6083">
        <ele>1155.16</ele>
        <time>2026-05-17T07:40:18Z</time>
      </trkpt>
      <trkpt lat="43.73895" lon="6.60839">
        <ele>1157.08</ele>
        <time>2026-05-17T07:40:32Z</time>
      </trkpt>
      <trkpt lat="43.73896" lon="6.60847">
        <ele>1158.05</ele>
        <time>2026-05-17T07:40:44Z</time>
      </trkpt>
      <trkpt lat="43.73895" lon="6.60859">
        <ele>1159.49</ele>
        <time>2026-05-17T07:40:56Z</time>
      </trkpt>
      <trkpt lat="43.73895" lon="6.60858">
        <ele>1159.97</ele>
        <time>2026-05-17T07:41:17Z</time>
      </trkpt>
      <trkpt lat="43.73896" lon="6.60859">
        <ele>1159.97</ele>
        <time>2026-05-17T07:41:37Z</time>
      </trkpt>
      <trkpt lat="43.73896" lon="6.6086">
        <ele>1159.97</ele>
        <time>2026-05-17T07:42:23Z</time>
      </trkpt>
      <trkpt lat="43.73897" lon="6.6086">
        <ele>1159.97</ele>
        <time>2026-05-17T07:43:03Z</time>
      </trkpt>
      <trkpt lat="43.73896" lon="6.60863">
        <ele>1160.45</ele>
        <time>2026-05-17T07:43:11Z</time>
      </trkpt>
      <trkpt lat="43.73897" lon="6.60867">
        <ele>1161.41</ele>
        <time>2026-05-17T07:43:29Z</time>
      </trkpt>
      <trkpt lat="43.73898" lon="6.60877">
        <ele>1163.33</ele>
        <time>2026-05-17T07:43:41Z</time>
      </trkpt>
      <trkpt lat="43.739" lon="6.60885">
        <ele>1165.26</ele>
        <time>2026-05-17T07:43:56Z</time>
      </trkpt>
      <trkpt lat="43.73901" lon="6.60895">
        <ele>1167.18</ele>
        <time>2026-05-17T07:44:10Z</time>
      </trkpt>
      <trkpt lat="43.73902" lon="6.60902">
        <ele>1168.62</ele>
        <time>2026-05-17T07:44:21Z</time>
      </trkpt>
      <trkpt lat="43.73903" lon="6.60911">
        <ele>1170.06</ele>
        <time>2026-05-17T07:44:33Z</time>
      </trkpt>
      <trkpt lat="43.73907" lon="6.60913">
        <ele>1171.5</ele>
        <time>2026-05-17T07:44:45Z</time>
      </trkpt>
      <trkpt lat="43.7391" lon="6.60905">
        <ele>1173.43</ele>
        <time>2026-05-17T07:44:59Z</time>
      </trkpt>
      <trkpt lat="43.73912" lon="6.60902">
        <ele>1174.39</ele>
        <time>2026-05-17T07:45:12Z</time>
      </trkpt>
      <trkpt lat="43.73915" lon="6.60896">
        <ele>1175.83</ele>
        <time>2026-05-17T07:45:26Z</time>
      </trkpt>
      <trkpt lat="43.73916" lon="6.60901">
        <ele>1177.75</ele>
        <time>2026-05-17T07:45:40Z</time>
      </trkpt>
      <trkpt lat="43.73918" lon="6.60907">
        <ele>1178.71</ele>
        <time>2026-05-17T07:45:50Z</time>
      </trkpt>
      <trkpt lat="43.73921" lon="6.60904">
        <ele>1180.64</ele>
        <time>2026-05-17T07:46:03Z</time>
      </trkpt>
      <trkpt lat="43.73923" lon="6.60897">
        <ele>1182.08</ele>
        <time>2026-05-17T07:46:15Z</time>
      </trkpt>
      <trkpt lat="43.73926" lon="6.60891">
        <ele>1183.04</ele>
        <time>2026-05-17T07:46:27Z</time>
      </trkpt>
      <trkpt lat="43.73928" lon="6.60894">
        <ele>1184.96</ele>
        <time>2026-05-17T07:46:42Z</time>
      </trkpt>
      <trkpt lat="43.7393" lon="6.60903">
        <ele>1186.88</ele>
        <time>2026-05-17T07:46:56Z</time>
      </trkpt>
      <trkpt lat="43.73932" lon="6.60909">
        <ele>1188.33</ele>
        <time>2026-05-17T07:47:08Z</time>
      </trkpt>
      <trkpt lat="43.73936" lon="6.60908">
        <ele>1189.77</ele>
        <time>2026-05-17T07:47:20Z</time>
      </trkpt>
      <trkpt lat="43.73939" lon="6.60903">
        <ele>1191.21</ele>
        <time>2026-05-17T07:47:33Z</time>
      </trkpt>
      <trkpt lat="43.73942" lon="6.60897">
        <ele>1193.13</ele>
        <time>2026-05-17T07:47:47Z</time>
      </trkpt>
      <trkpt lat="43.73946" lon="6.60893">
        <ele>1195.06</ele>
        <time>2026-05-17T07:48:02Z</time>
      </trkpt>
      <trkpt lat="43.73949" lon="6.60887">
        <ele>1196.5</ele>
        <time>2026-05-17T07:48:15Z</time>
      </trkpt>
      <trkpt lat="43.73951" lon="6.60883">
        <ele>1197.46</ele>
        <time>2026-05-17T07:48:28Z</time>
      </trkpt>
      <trkpt lat="43.73954" lon="6.60877">
        <ele>1199.38</ele>
        <time>2026-05-17T07:48:40Z</time>
      </trkpt>
      <trkpt lat="43.73958" lon="6.6087">
        <ele>1200.82</ele>
        <time>2026-05-17T07:48:56Z</time>
      </trkpt>
      <trkpt lat="43.73961" lon="6.60866">
        <ele>1203.23</ele>
        <time>2026-05-17T07:49:09Z</time>
      </trkpt>
      <trkpt lat="43.73965" lon="6.60861">
        <ele>1204.67</ele>
        <time>2026-05-17T07:49:23Z</time>
      </trkpt>
      <trkpt lat="43.7397" lon="6.60858">
        <ele>1205.63</ele>
        <time>2026-05-17T07:49:38Z</time>
      </trkpt>
      <trkpt lat="43.73968" lon="6.60858">
        <ele>1206.11</ele>
        <time>2026-05-17T07:50:03Z</time>
      </trkpt>
      <trkpt lat="43.7397" lon="6.60865">
        <ele>1208.03</ele>
        <time>2026-05-17T07:50:15Z</time>
      </trkpt>
      <trkpt lat="43.73971" lon="6.60874">
        <ele>1209.48</ele>
        <time>2026-05-17T07:50:28Z</time>
      </trkpt>
      <trkpt lat="43.73973" lon="6.60878">
        <ele>1210.92</ele>
        <time>2026-05-17T07:50:40Z</time>
      </trkpt>
      <trkpt lat="43.73978" lon="6.60872">
        <ele>1213.32</ele>
        <time>2026-05-17T07:50:54Z</time>
      </trkpt>
      <trkpt lat="43.73981" lon="6.60866">
        <ele>1214.76</ele>
        <time>2026-05-17T07:51:06Z</time>
      </trkpt>
      <trkpt lat="43.73985" lon="6.60858">
        <ele>1216.21</ele>
        <time>2026-05-17T07:51:19Z</time>
      </trkpt>
      <trkpt lat="43.73991" lon="6.60849">
        <ele>1218.13</ele>
        <time>2026-05-17T07:51:33Z</time>
      </trkpt>
      <trkpt lat="43.73994" lon="6.60846">
        <ele>1219.57</ele>
        <time>2026-05-17T07:51:46Z</time>
      </trkpt>
      <trkpt lat="43.73993" lon="6.60852">
        <ele>1221.01</ele>
        <time>2026-05-17T07:51:57Z</time>
      </trkpt>
      <trkpt lat="43.73998" lon="6.60849">
        <ele>1221.97</ele>
        <time>2026-05-17T07:52:09Z</time>
      </trkpt>
      <trkpt lat="43.74003" lon="6.60843">
        <ele>1223.42</ele>
        <time>2026-05-17T07:52:23Z</time>
      </trkpt>
      <trkpt lat="43.74008" lon="6.60838">
        <ele>1225.34</ele>
        <time>2026-05-17T07:52:35Z</time>
      </trkpt>
      <trkpt lat="43.74013" lon="6.60833">
        <ele>1226.78</ele>
        <time>2026-05-17T07:52:47Z</time>
      </trkpt>
      <trkpt lat="43.74018" lon="6.60825">
        <ele>1228.7</ele>
        <time>2026-05-17T07:53:01Z</time>
      </trkpt>
      <trkpt lat="43.74026" lon="6.6082">
        <ele>1230.14</ele>
        <time>2026-05-17T07:53:16Z</time>
      </trkpt>
      <trkpt lat="43.7403" lon="6.60817">
        <ele>1231.11</ele>
        <time>2026-05-17T07:53:29Z</time>
      </trkpt>
      <trkpt lat="43.74035" lon="6.60812">
        <ele>1233.03</ele>
        <time>2026-05-17T07:53:40Z</time>
      </trkpt>
      <trkpt lat="43.74042" lon="6.60804">
        <ele>1234.47</ele>
        <time>2026-05-17T07:53:55Z</time>
      </trkpt>
      <trkpt lat="43.74048" lon="6.60793">
        <ele>1235.91</ele>
        <time>2026-05-17T07:54:10Z</time>
      </trkpt>
      <trkpt lat="43.74048" lon="6.60787">
        <ele>1237.83</ele>
        <time>2026-05-17T07:54:23Z</time>
      </trkpt>
      <trkpt lat="43.74051" lon="6.60794">
        <ele>1239.28</ele>
        <time>2026-05-17T07:54:36Z</time>
      </trkpt>
      <trkpt lat="43.74053" lon="6.60801">
        <ele>1241.2</ele>
        <time>2026-05-17T07:54:49Z</time>
      </trkpt>
      <trkpt lat="43.74054" lon="6.60809">
        <ele>1241.68</ele>
        <time>2026-05-17T07:55:01Z</time>
      </trkpt>
      <trkpt lat="43.74054" lon="6.60819">
        <ele>1243.6</ele>
        <time>2026-05-17T07:55:14Z</time>
      </trkpt>
      <trkpt lat="43.74056" lon="6.60822">
        <ele>1245.04</ele>
        <time>2026-05-17T07:55:26Z</time>
      </trkpt>
      <trkpt lat="43.74059" lon="6.60817">
        <ele>1246.97</ele>
        <time>2026-05-17T07:55:41Z</time>
      </trkpt>
      <trkpt lat="43.74062" lon="6.6081">
        <ele>1248.41</ele>
        <time>2026-05-17T07:55:56Z</time>
      </trkpt>
      <trkpt lat="43.74065" lon="6.60813">
        <ele>1249.85</ele>
        <time>2026-05-17T07:56:07Z</time>
      </trkpt>
      <trkpt lat="43.74065" lon="6.60823">
        <ele>1251.29</ele>
        <time>2026-05-17T07:56:21Z</time>
      </trkpt>
      <trkpt lat="43.74067" lon="6.60823">
        <ele>1252.74</ele>
        <time>2026-05-17T07:56:32Z</time>
      </trkpt>
      <trkpt lat="43.74073" lon="6.60817">
        <ele>1254.66</ele>
        <time>2026-05-17T07:56:49Z</time>
      </trkpt>
      <trkpt lat="43.74074" lon="6.6082">
        <ele>1256.1</ele>
        <time>2026-05-17T07:57:02Z</time>
      </trkpt>
      <trkpt lat="43.74076" lon="6.60819">
        <ele>1257.54</ele>
        <time>2026-05-17T07:57:14Z</time>
      </trkpt>
      <trkpt lat="43.74082" lon="6.60814">
        <ele>1259.46</ele>
        <time>2026-05-17T07:57:28Z</time>
      </trkpt>
      <trkpt lat="43.74085" lon="6.60806">
        <ele>1260.91</ele>
        <time>2026-05-17T07:57:42Z</time>
      </trkpt>
      <trkpt lat="43.74089" lon="6.60798">
        <ele>1262.83</ele>
        <time>2026-05-17T07:57:57Z</time>
      </trkpt>
      <trkpt lat="43.74093" lon="6.6079">
        <ele>1264.27</ele>
        <time>2026-05-17T07:58:11Z</time>
      </trkpt>
      <trkpt lat="43.74098" lon="6.60781">
        <ele>1266.67</ele>
        <time>2026-05-17T07:58:26Z</time>
      </trkpt>
      <trkpt lat="43.741" lon="6.60772">
        <ele>1268.6</ele>
        <time>2026-05-17T07:58:42Z</time>
      </trkpt>
      <trkpt lat="43.74102" lon="6.60765">
        <ele>1270.52</ele>
        <time>2026-05-17T07:58:56Z</time>
      </trkpt>
      <trkpt lat="43.74106" lon="6.60758">
        <ele>1271.48</ele>
        <time>2026-05-17T07:59:12Z</time>
      </trkpt>
      <trkpt lat="43.74107" lon="6.60753">
        <ele>1272.92</ele>
        <time>2026-05-17T07:59:25Z</time>
      </trkpt>
      <trkpt lat="43.74108" lon="6.60745">
        <ele>1274.85</ele>
        <time>2026-05-17T07:59:38Z</time>
      </trkpt>
      <trkpt lat="43.74111" lon="6.60747">
        <ele>1276.29</ele>
        <time>2026-05-17T07:59:50Z</time>
      </trkpt>
      <trkpt lat="43.74114" lon="6.60752">
        <ele>1277.73</ele>
        <time>2026-05-17T08:00:02Z</time>
      </trkpt>
      <trkpt lat="43.74115" lon="6.60757">
        <ele>1279.17</ele>
        <time>2026-05-17T08:00:14Z</time>
      </trkpt>
      <trkpt lat="43.74117" lon="6.60766">
        <ele>1280.13</ele>
        <time>2026-05-17T08:00:26Z</time>
      </trkpt>
      <trkpt lat="43.74119" lon="6.60771">
        <ele>1281.57</ele>
        <time>2026-05-17T08:00:38Z</time>
      </trkpt>
      <trkpt lat="43.74123" lon="6.60776">
        <ele>1282.54</ele>
        <time>2026-05-17T08:00:50Z</time>
      </trkpt>
      <trkpt lat="43.74127" lon="6.60784">
        <ele>1284.46</ele>
        <time>2026-05-17T08:01:03Z</time>
      </trkpt>
      <trkpt lat="43.7413" lon="6.60791">
        <ele>1285.9</ele>
        <time>2026-05-17T08:01:16Z</time>
      </trkpt>
      <trkpt lat="43.74133" lon="6.60784">
        <ele>1287.82</ele>
        <time>2026-05-17T08:01:31Z</time>
      </trkpt>
      <trkpt lat="43.74136" lon="6.60776">
        <ele>1289.75</ele>
        <time>2026-05-17T08:01:47Z</time>
      </trkpt>
      <trkpt lat="43.74138" lon="6.60777">
        <ele>1291.19</ele>
        <time>2026-05-17T08:02:02Z</time>
      </trkpt>
      <trkpt lat="43.74141" lon="6.60784">
        <ele>1292.63</ele>
        <time>2026-05-17T08:02:14Z</time>
      </trkpt>
      <trkpt lat="43.74144" lon="6.60791">
        <ele>1294.55</ele>
        <time>2026-05-17T08:02:28Z</time>
      </trkpt>
      <trkpt lat="43.74147" lon="6.60798">
        <ele>1296.48</ele>
        <time>2026-05-17T08:02:43Z</time>
      </trkpt>
      <trkpt lat="43.74149" lon="6.60806">
        <ele>1297.44</ele>
        <time>2026-05-17T08:02:54Z</time>
      </trkpt>
      <trkpt lat="43.74151" lon="6.60816">
        <ele>1298.4</ele>
        <time>2026-05-17T08:03:07Z</time>
      </trkpt>
      <trkpt lat="43.74152" lon="6.6082">
        <ele>1298.88</ele>
        <time>2026-05-17T08:03:19Z</time>
      </trkpt>
      <trkpt lat="43.74152" lon="6.6082">
        <ele>1299.36</ele>
        <time>2026-05-17T08:03:44Z</time>
      </trkpt>
      <trkpt lat="43.74153" lon="6.60826">
        <ele>1300.32</ele>
        <time>2026-05-17T08:04:02Z</time>
      </trkpt>
      <trkpt lat="43.74154" lon="6.60833">
        <ele>1301.76</ele>
        <time>2026-05-17T08:04:14Z</time>
      </trkpt>
      <trkpt lat="43.74159" lon="6.60827">
        <ele>1303.69</ele>
        <time>2026-05-17T08:04:30Z</time>
      </trkpt>
      <trkpt lat="43.74163" lon="6.60819">
        <ele>1304.65</ele>
        <time>2026-05-17T08:04:42Z</time>
      </trkpt>
      <trkpt lat="43.74165" lon="6.60813">
        <ele>1305.61</ele>
        <time>2026-05-17T08:04:53Z</time>
      </trkpt>
      <trkpt lat="43.74168" lon="6.60804">
        <ele>1308.01</ele>
        <time>2026-05-17T08:05:07Z</time>
      </trkpt>
      <trkpt lat="43.74171" lon="6.60795">
        <ele>1309.45</ele>
        <time>2026-05-17T08:05:23Z</time>
      </trkpt>
      <trkpt lat="43.74173" lon="6.60787">
        <ele>1310.9</ele>
        <time>2026-05-17T08:05:36Z</time>
      </trkpt>
      <trkpt lat="43.74176" lon="6.60778">
        <ele>1312.34</ele>
        <time>2026-05-17T08:05:50Z</time>
      </trkpt>
      <trkpt lat="43.74176" lon="6.60768">
        <ele>1313.78</ele>
        <time>2026-05-17T08:06:03Z</time>
      </trkpt>
      <trkpt lat="43.74178" lon="6.60769">
        <ele>1315.22</ele>
        <time>2026-05-17T08:06:14Z</time>
      </trkpt>
      <trkpt lat="43.74178" lon="6.60774">
        <ele>1316.18</ele>
        <time>2026-05-17T08:06:25Z</time>
      </trkpt>
      <trkpt lat="43.74182" lon="6.60772">
        <ele>1316.66</ele>
        <time>2026-05-17T08:06:40Z</time>
      </trkpt>
      <trkpt lat="43.74184" lon="6.60763">
        <ele>1318.59</ele>
        <time>2026-05-17T08:06:56Z</time>
      </trkpt>
      <trkpt lat="43.74187" lon="6.60755">
        <ele>1320.51</ele>
        <time>2026-05-17T08:07:09Z</time>
      </trkpt>
      <trkpt lat="43.74188" lon="6.60748">
        <ele>1321.47</ele>
        <time>2026-05-17T08:07:20Z</time>
      </trkpt>
      <trkpt lat="43.74191" lon="6.60739">
        <ele>1322.91</ele>
        <time>2026-05-17T08:07:35Z</time>
      </trkpt>
      <trkpt lat="43.74195" lon="6.60737">
        <ele>1324.83</ele>
        <time>2026-05-17T08:07:47Z</time>
      </trkpt>
      <trkpt lat="43.74196" lon="6.60746">
        <ele>1326.28</ele>
        <time>2026-05-17T08:08:01Z</time>
      </trkpt>
      <trkpt lat="43.74197" lon="6.60755">
        <ele>1327.72</ele>
        <time>2026-05-17T08:08:13Z</time>
      </trkpt>
      <trkpt lat="43.74199" lon="6.60763">
        <ele>1329.16</ele>
        <time>2026-05-17T08:08:25Z</time>
      </trkpt>
      <trkpt lat="43.74201" lon="6.6077">
        <ele>1330.12</ele>
        <time>2026-05-17T08:08:36Z</time>
      </trkpt>
      <trkpt lat="43.74206" lon="6.60765">
        <ele>1331.56</ele>
        <time>2026-05-17T08:08:48Z</time>
      </trkpt>
      <trkpt lat="43.74208" lon="6.60771">
        <ele>1333.01</ele>
        <time>2026-05-17T08:09:01Z</time>
      </trkpt>
      <trkpt lat="43.74212" lon="6.6077">
        <ele>1333.97</ele>
        <time>2026-05-17T08:09:13Z</time>
      </trkpt>
      <trkpt lat="43.74215" lon="6.60762">
        <ele>1335.89</ele>
        <time>2026-05-17T08:09:28Z</time>
      </trkpt>
      <trkpt lat="43.74217" lon="6.60757">
        <ele>1337.81</ele>
        <time>2026-05-17T08:09:39Z</time>
      </trkpt>
      <trkpt lat="43.7422" lon="6.60756">
        <ele>1337.81</ele>
        <time>2026-05-17T08:10:02Z</time>
      </trkpt>
      <trkpt lat="43.74219" lon="6.60756">
        <ele>1337.81</ele>
        <time>2026-05-17T08:10:27Z</time>
      </trkpt>
      <trkpt lat="43.74219" lon="6.60752">
        <ele>1338.29</ele>
        <time>2026-05-17T08:10:36Z</time>
      </trkpt>
      <trkpt lat="43.7422" lon="6.60745">
        <ele>1340.22</ele>
        <time>2026-05-17T08:10:47Z</time>
      </trkpt>
      <trkpt lat="43.74223" lon="6.60734">
        <ele>1341.18</ele>
        <time>2026-05-17T08:11:00Z</time>
      </trkpt>
      <trkpt lat="43.74224" lon="6.60722">
        <ele>1342.62</ele>
        <time>2026-05-17T08:11:14Z</time>
      </trkpt>
      <trkpt lat="43.74223" lon="6.60714">
        <ele>1344.54</ele>
        <time>2026-05-17T08:11:26Z</time>
      </trkpt>
      <trkpt lat="43.74223" lon="6.60702">
        <ele>1346.46</ele>
        <time>2026-05-17T08:11:41Z</time>
      </trkpt>
      <trkpt lat="43.74224" lon="6.60691">
        <ele>1348.39</ele>
        <time>2026-05-17T08:11:55Z</time>
      </trkpt>
      <trkpt lat="43.74226" lon="6.60678">
        <ele>1349.83</ele>
        <time>2026-05-17T08:12:09Z</time>
      </trkpt>
      <trkpt lat="43.74227" lon="6.60668">
        <ele>1350.79</ele>
        <time>2026-05-17T08:12:21Z</time>
      </trkpt>
      <trkpt lat="43.74226" lon="6.60666">
        <ele>1351.27</ele>
        <time>2026-05-17T08:12:39Z</time>
      </trkpt>
      <trkpt lat="43.74227" lon="6.60665">
        <ele>1351.75</ele>
        <time>2026-05-17T08:12:53Z</time>
      </trkpt>
      <trkpt lat="43.74229" lon="6.60656">
        <ele>1353.19</ele>
        <time>2026-05-17T08:13:05Z</time>
      </trkpt>
      <trkpt lat="43.74229" lon="6.60643">
        <ele>1355.12</ele>
        <time>2026-05-17T08:13:18Z</time>
      </trkpt>
      <trkpt lat="43.74229" lon="6.60629">
        <ele>1355.6</ele>
        <time>2026-05-17T08:13:31Z</time>
      </trkpt>
      <trkpt lat="43.7423" lon="6.60616">
        <ele>1358</ele>
        <time>2026-05-17T08:13:44Z</time>
      </trkpt>
      <trkpt lat="43.74232" lon="6.60616">
        <ele>1359.44</ele>
        <time>2026-05-17T08:13:56Z</time>
      </trkpt>
      <trkpt lat="43.74235" lon="6.60623">
        <ele>1360.88</ele>
        <time>2026-05-17T08:14:09Z</time>
      </trkpt>
      <trkpt lat="43.74239" lon="6.60625">
        <ele>1362.33</ele>
        <time>2026-05-17T08:14:21Z</time>
      </trkpt>
      <trkpt lat="43.74241" lon="6.60619">
        <ele>1363.77</ele>
        <time>2026-05-17T08:14:33Z</time>
      </trkpt>
      <trkpt lat="43.74243" lon="6.60612">
        <ele>1365.21</ele>
        <time>2026-05-17T08:14:46Z</time>
      </trkpt>
      <trkpt lat="43.74245" lon="6.60604">
        <ele>1367.13</ele>
        <time>2026-05-17T08:14:59Z</time>
      </trkpt>
      <trkpt lat="43.74247" lon="6.60599">
        <ele>1368.09</ele>
        <time>2026-05-17T08:15:11Z</time>
      </trkpt>
      <trkpt lat="43.74248" lon="6.60594">
        <ele>1368.57</ele>
        <time>2026-05-17T08:15:33Z</time>
      </trkpt>
      <trkpt lat="43.74249" lon="6.6059">
        <ele>1369.54</ele>
        <time>2026-05-17T08:15:45Z</time>
      </trkpt>
      <trkpt lat="43.7425" lon="6.60585">
        <ele>1369.54</ele>
        <time>2026-05-17T08:16:02Z</time>
      </trkpt>
      <trkpt lat="43.74253" lon="6.60575">
        <ele>1371.46</ele>
        <time>2026-05-17T08:16:14Z</time>
      </trkpt>
      <trkpt lat="43.74257" lon="6.60566">
        <ele>1372.9</ele>
        <time>2026-05-17T08:16:25Z</time>
      </trkpt>
      <trkpt lat="43.74261" lon="6.60556">
        <ele>1374.34</ele>
        <time>2026-05-17T08:16:38Z</time>
      </trkpt>
      <trkpt lat="43.74263" lon="6.60549">
        <ele>1375.78</ele>
        <time>2026-05-17T08:16:49Z</time>
      </trkpt>
      <trkpt lat="43.74267" lon="6.60541">
        <ele>1377.23</ele>
        <time>2026-05-17T08:17:01Z</time>
      </trkpt>
      <trkpt lat="43.7427" lon="6.60533">
        <ele>1378.67</ele>
        <time>2026-05-17T08:17:13Z</time>
      </trkpt>
      <trkpt lat="43.74274" lon="6.60526">
        <ele>1380.11</ele>
        <time>2026-05-17T08:17:25Z</time>
      </trkpt>
      <trkpt lat="43.74277" lon="6.60517">
        <ele>1381.55</ele>
        <time>2026-05-17T08:17:37Z</time>
      </trkpt>
      <trkpt lat="43.74281" lon="6.60507">
        <ele>1382.99</ele>
        <time>2026-05-17T08:17:51Z</time>
      </trkpt>
      <trkpt lat="43.74284" lon="6.60506">
        <ele>1384.44</ele>
        <time>2026-05-17T08:18:04Z</time>
      </trkpt>
      <trkpt lat="43.74284" lon="6.60514">
        <ele>1385.88</ele>
        <time>2026-05-17T08:18:16Z</time>
      </trkpt>
      <trkpt lat="43.74284" lon="6.60523">
        <ele>1387.32</ele>
        <time>2026-05-17T08:18:28Z</time>
      </trkpt>
      <trkpt lat="43.74284" lon="6.60532">
        <ele>1389.24</ele>
        <time>2026-05-17T08:18:41Z</time>
      </trkpt>
      <trkpt lat="43.74288" lon="6.60531">
        <ele>1391.17</ele>
        <time>2026-05-17T08:18:54Z</time>
      </trkpt>
      <trkpt lat="43.74292" lon="6.60524">
        <ele>1392.61</ele>
        <time>2026-05-17T08:19:06Z</time>
      </trkpt>
      <trkpt lat="43.74297" lon="6.60517">
        <ele>1394.05</ele>
        <time>2026-05-17T08:19:21Z</time>
      </trkpt>
      <trkpt lat="43.74298" lon="6.60525">
        <ele>1395.49</ele>
        <time>2026-05-17T08:19:35Z</time>
      </trkpt>
      <trkpt lat="43.74302" lon="6.60519">
        <ele>1396.45</ele>
        <time>2026-05-17T08:19:46Z</time>
      </trkpt>
      <trkpt lat="43.74308" lon="6.6051">
        <ele>1398.37</ele>
        <time>2026-05-17T08:20:00Z</time>
      </trkpt>
      <trkpt lat="43.74312" lon="6.60503">
        <ele>1399.82</ele>
        <time>2026-05-17T08:20:12Z</time>
      </trkpt>
      <trkpt lat="43.74318" lon="6.60497">
        <ele>1401.74</ele>
        <time>2026-05-17T08:20:25Z</time>
      </trkpt>
      <trkpt lat="43.74323" lon="6.60492">
        <ele>1403.18</ele>
        <time>2026-05-17T08:20:38Z</time>
      </trkpt>
      <trkpt lat="43.74323" lon="6.60501">
        <ele>1405.1</ele>
        <time>2026-05-17T08:20:51Z</time>
      </trkpt>
      <trkpt lat="43.74322" lon="6.60509">
        <ele>1406.07</ele>
        <time>2026-05-17T08:21:03Z</time>
      </trkpt>
      <trkpt lat="43.74326" lon="6.60511">
        <ele>1407.99</ele>
        <time>2026-05-17T08:21:15Z</time>
      </trkpt>
      <trkpt lat="43.74333" lon="6.60503">
        <ele>1409.43</ele>
        <time>2026-05-17T08:21:28Z</time>
      </trkpt>
      <trkpt lat="43.7434" lon="6.60498">
        <ele>1410.39</ele>
        <time>2026-05-17T08:21:40Z</time>
      </trkpt>
      <trkpt lat="43.74343" lon="6.60494">
        <ele>1410.39</ele>
        <time>2026-05-17T08:21:45Z</time>
      </trkpt>
      <trkpt lat="43.74351" lon="6.60483">
        <ele>1411.83</ele>
        <time>2026-05-17T08:22:00Z</time>
      </trkpt>
      <trkpt lat="43.74358" lon="6.60475">
        <ele>1413.76</ele>
        <time>2026-05-17T08:22:14Z</time>
      </trkpt>
      <trkpt lat="43.74363" lon="6.60465">
        <ele>1414.24</ele>
        <time>2026-05-17T08:22:26Z</time>
      </trkpt>
      <trkpt lat="43.74369" lon="6.60457">
        <ele>1415.2</ele>
        <time>2026-05-17T08:22:37Z</time>
      </trkpt>
      <trkpt lat="43.74376" lon="6.60444">
        <ele>1415.2</ele>
        <time>2026-05-17T08:22:50Z</time>
      </trkpt>
      <trkpt lat="43.74385" lon="6.60436">
        <ele>1416.64</ele>
        <time>2026-05-17T08:23:02Z</time>
      </trkpt>
      <trkpt lat="43.74394" lon="6.60428">
        <ele>1417.6</ele>
        <time>2026-05-17T08:23:15Z</time>
      </trkpt>
      <trkpt lat="43.744" lon="6.60423">
        <ele>1419.04</ele>
        <time>2026-05-17T08:23:27Z</time>
      </trkpt>
      <trkpt lat="43.74409" lon="6.6042">
        <ele>1420.97</ele>
        <time>2026-05-17T08:23:41Z</time>
      </trkpt>
      <trkpt lat="43.74415" lon="6.6042">
        <ele>1422.89</ele>
        <time>2026-05-17T08:23:54Z</time>
      </trkpt>
      <trkpt lat="43.7442" lon="6.6042">
        <ele>1423.85</ele>
        <time>2026-05-17T08:24:09Z</time>
      </trkpt>
      <trkpt lat="43.7442" lon="6.6042">
        <ele>1422.89</ele>
        <time>2026-05-17T08:24:12Z</time>
      </trkpt>
      <trkpt lat="43.74424" lon="6.60419">
        <ele>1423.85</ele>
        <time>2026-05-17T08:24:27Z</time>
      </trkpt>
      <trkpt lat="43.7443" lon="6.60416">
        <ele>1425.77</ele>
        <time>2026-05-17T08:24:40Z</time>
      </trkpt>
      <trkpt lat="43.7444" lon="6.60414">
        <ele>1428.18</ele>
        <time>2026-05-17T08:24:56Z</time>
      </trkpt>
      <trkpt lat="43.74447" lon="6.60414">
        <ele>1430.1</ele>
        <time>2026-05-17T08:25:09Z</time>
      </trkpt>
      <trkpt lat="43.74453" lon="6.60417">
        <ele>1431.06</ele>
        <time>2026-05-17T08:25:22Z</time>
      </trkpt>
      <trkpt lat="43.74463" lon="6.60421">
        <ele>1433.46</ele>
        <time>2026-05-17T08:25:37Z</time>
      </trkpt>
      <trkpt lat="43.74471" lon="6.60425">
        <ele>1434.42</ele>
        <time>2026-05-17T08:25:51Z</time>
      </trkpt>
      <trkpt lat="43.74476" lon="6.60426">
        <ele>1434.91</ele>
        <time>2026-05-17T08:26:14Z</time>
      </trkpt>
      <trkpt lat="43.74483" lon="6.6043">
        <ele>1436.83</ele>
        <time>2026-05-17T08:26:28Z</time>
      </trkpt>
      <trkpt lat="43.7449" lon="6.60436">
        <ele>1438.27</ele>
        <time>2026-05-17T08:26:41Z</time>
      </trkpt>
      <trkpt lat="43.74498" lon="6.60441">
        <ele>1439.71</ele>
        <time>2026-05-17T08:26:55Z</time>
      </trkpt>
      <trkpt lat="43.74503" lon="6.60445">
        <ele>1441.63</ele>
        <time>2026-05-17T08:27:08Z</time>
      </trkpt>
      <trkpt lat="43.7451" lon="6.60449">
        <ele>1443.56</ele>
        <time>2026-05-17T08:27:21Z</time>
      </trkpt>
      <trkpt lat="43.74516" lon="6.60453">
        <ele>1444.52</ele>
        <time>2026-05-17T08:27:34Z</time>
      </trkpt>
      <trkpt lat="43.74522" lon="6.60458">
        <ele>1446.92</ele>
        <time>2026-05-17T08:27:48Z</time>
      </trkpt>
      <trkpt lat="43.74532" lon="6.60462">
        <ele>1448.36</ele>
        <time>2026-05-17T08:28:00Z</time>
      </trkpt>
      <trkpt lat="43.74538" lon="6.60457">
        <ele>1450.77</ele>
        <time>2026-05-17T08:28:15Z</time>
      </trkpt>
      <trkpt lat="43.74546" lon="6.60448">
        <ele>1451.73</ele>
        <time>2026-05-17T08:28:29Z</time>
      </trkpt>
      <trkpt lat="43.74554" lon="6.60436">
        <ele>1453.17</ele>
        <time>2026-05-17T08:28:42Z</time>
      </trkpt>
      <trkpt lat="43.74559" lon="6.60423">
        <ele>1453.65</ele>
        <time>2026-05-17T08:28:55Z</time>
      </trkpt>
      <trkpt lat="43.7456" lon="6.60415">
        <ele>1454.61</ele>
        <time>2026-05-17T08:29:10Z</time>
      </trkpt>
      <trkpt lat="43.7456" lon="6.6041">
        <ele>1454.61</ele>
        <time>2026-05-17T08:29:27Z</time>
      </trkpt>
      <trkpt lat="43.74563" lon="6.60392">
        <ele>1455.09</ele>
        <time>2026-05-17T08:29:44Z</time>
      </trkpt>
      <trkpt lat="43.74571" lon="6.60373">
        <ele>1455.09</ele>
        <time>2026-05-17T08:30:00Z</time>
      </trkpt>
      <trkpt lat="43.74576" lon="6.60355">
        <ele>1457.02</ele>
        <time>2026-05-17T08:30:13Z</time>
      </trkpt>
      <trkpt lat="43.74579" lon="6.60342">
        <ele>1458.46</ele>
        <time>2026-05-17T08:30:27Z</time>
      </trkpt>
      <trkpt lat="43.74575" lon="6.60319">
        <ele>1458.94</ele>
        <time>2026-05-17T08:30:44Z</time>
      </trkpt>
      <trkpt lat="43.7457" lon="6.60303">
        <ele>1457.98</ele>
        <time>2026-05-17T08:30:54Z</time>
      </trkpt>
      <trkpt lat="43.74562" lon="6.60277">
        <ele>1457.5</ele>
        <time>2026-05-17T08:31:09Z</time>
      </trkpt>
      <trkpt lat="43.74554" lon="6.60259">
        <ele>1458.94</ele>
        <time>2026-05-17T08:31:24Z</time>
      </trkpt>
      <trkpt lat="43.74553" lon="6.60258">
        <ele>1458.94</ele>
        <time>2026-05-17T08:31:25Z</time>
      </trkpt>
      <trkpt lat="43.74548" lon="6.60253">
        <ele>1459.42</ele>
        <time>2026-05-17T08:31:30Z</time>
      </trkpt>
      <trkpt lat="43.74541" lon="6.60237">
        <ele>1460.38</ele>
        <time>2026-05-17T08:31:38Z</time>
      </trkpt>
      <trkpt lat="43.74533" lon="6.60215">
        <ele>1460.38</ele>
        <time>2026-05-17T08:31:56Z</time>
      </trkpt>
      <trkpt lat="43.74533" lon="6.60204">
        <ele>1460.38</ele>
        <time>2026-05-17T08:32:01Z</time>
      </trkpt>
      <trkpt lat="43.74534" lon="6.60197">
        <ele>1460.86</ele>
        <time>2026-05-17T08:32:06Z</time>
      </trkpt>
      <trkpt lat="43.7454" lon="6.6019">
        <ele>1459.42</ele>
        <time>2026-05-17T08:32:17Z</time>
      </trkpt>
      <trkpt lat="43.74549" lon="6.60169">
        <ele>1458.94</ele>
        <time>2026-05-17T08:32:33Z</time>
      </trkpt>
      <trkpt lat="43.74551" lon="6.60162">
        <ele>1458.94</ele>
        <time>2026-05-17T08:32:37Z</time>
      </trkpt>
      <trkpt lat="43.74552" lon="6.60142">
        <ele>1460.38</ele>
        <time>2026-05-17T08:32:53Z</time>
      </trkpt>
      <trkpt lat="43.74549" lon="6.60121">
        <ele>1460.38</ele>
        <time>2026-05-17T08:33:07Z</time>
      </trkpt>
      <trkpt lat="43.74547" lon="6.60116">
        <ele>1460.38</ele>
        <time>2026-05-17T08:33:10Z</time>
      </trkpt>
      <trkpt lat="43.74539" lon="6.60104">
        <ele>1458.46</ele>
        <time>2026-05-17T08:33:19Z</time>
      </trkpt>
      <trkpt lat="43.74532" lon="6.60083">
        <ele>1457.02</ele>
        <time>2026-05-17T08:33:34Z</time>
      </trkpt>
      <trkpt lat="43.74528" lon="6.60076">
        <ele>1457.02</ele>
        <time>2026-05-17T08:33:39Z</time>
      </trkpt>
      <trkpt lat="43.74521" lon="6.60053">
        <ele>1456.53</ele>
        <time>2026-05-17T08:33:55Z</time>
      </trkpt>
      <trkpt lat="43.74515" lon="6.60041">
        <ele>1457.02</ele>
        <time>2026-05-17T08:34:04Z</time>
      </trkpt>
      <trkpt lat="43.74509" lon="6.60024">
        <ele>1456.05</ele>
        <time>2026-05-17T08:34:18Z</time>
      </trkpt>
      <trkpt lat="43.74508" lon="6.60021">
        <ele>1456.05</ele>
        <time>2026-05-17T08:34:21Z</time>
      </trkpt>
      <trkpt lat="43.74508" lon="6.60017">
        <ele>1455.09</ele>
        <time>2026-05-17T08:34:24Z</time>
      </trkpt>
      <trkpt lat="43.74501" lon="6.60002">
        <ele>1453.17</ele>
        <time>2026-05-17T08:34:38Z</time>
      </trkpt>
      <trkpt lat="43.74494" lon="6.59981">
        <ele>1452.69</ele>
        <time>2026-05-17T08:34:53Z</time>
      </trkpt>
      <trkpt lat="43.74484" lon="6.59963">
        <ele>1453.17</ele>
        <time>2026-05-17T08:35:08Z</time>
      </trkpt>
      <trkpt lat="43.74476" lon="6.59943">
        <ele>1452.69</ele>
        <time>2026-05-17T08:35:22Z</time>
      </trkpt>
      <trkpt lat="43.74472" lon="6.59929">
        <ele>1452.69</ele>
        <time>2026-05-17T08:35:35Z</time>
      </trkpt>
      <trkpt lat="43.74463" lon="6.5991">
        <ele>1451.73</ele>
        <time>2026-05-17T08:35:49Z</time>
      </trkpt>
      <trkpt lat="43.74456" lon="6.59901">
        <ele>1451.73</ele>
        <time>2026-05-17T08:35:59Z</time>
      </trkpt>
      <trkpt lat="43.74445" lon="6.59888">
        <ele>1450.77</ele>
        <time>2026-05-17T08:36:14Z</time>
      </trkpt>
      <trkpt lat="43.74443" lon="6.59885">
        <ele>1450.29</ele>
        <time>2026-05-17T08:36:17Z</time>
      </trkpt>
      <trkpt lat="43.74434" lon="6.59876">
        <ele>1450.29</ele>
        <time>2026-05-17T08:36:30Z</time>
      </trkpt>
      <trkpt lat="43.74431" lon="6.5986">
        <ele>1450.77</ele>
        <time>2026-05-17T08:36:45Z</time>
      </trkpt>
      <trkpt lat="43.74432" lon="6.59858">
        <ele>1450.77</ele>
        <time>2026-05-17T08:36:47Z</time>
      </trkpt>
      <trkpt lat="43.74438" lon="6.59847">
        <ele>1451.25</ele>
        <time>2026-05-17T08:37:02Z</time>
      </trkpt>
      <trkpt lat="43.74446" lon="6.59841">
        <ele>1450.29</ele>
        <time>2026-05-17T08:37:15Z</time>
      </trkpt>
      <trkpt lat="43.74452" lon="6.59826">
        <ele>1450.29</ele>
        <time>2026-05-17T08:37:27Z</time>
      </trkpt>
      <trkpt lat="43.74454" lon="6.59822">
        <ele>1449.32</ele>
        <time>2026-05-17T08:37:31Z</time>
      </trkpt>
      <trkpt lat="43.74459" lon="6.59806">
        <ele>1448.84</ele>
        <time>2026-05-17T08:37:46Z</time>
      </trkpt>
      <trkpt lat="43.74459" lon="6.59801">
        <ele>1448.84</ele>
        <time>2026-05-17T08:37:50Z</time>
      </trkpt>
      <trkpt lat="43.74458" lon="6.5978">
        <ele>1450.77</ele>
        <time>2026-05-17T08:38:06Z</time>
      </trkpt>
      <trkpt lat="43.74457" lon="6.59757">
        <ele>1450.77</ele>
        <time>2026-05-17T08:38:20Z</time>
      </trkpt>
      <trkpt lat="43.74458" lon="6.59735">
        <ele>1450.77</ele>
        <time>2026-05-17T08:38:35Z</time>
      </trkpt>
      <trkpt lat="43.74456" lon="6.59727">
        <ele>1451.73</ele>
        <time>2026-05-17T08:38:49Z</time>
      </trkpt>
      <trkpt lat="43.74455" lon="6.59724">
        <ele>1452.21</ele>
        <time>2026-05-17T08:39:08Z</time>
      </trkpt>
      <trkpt lat="43.74457" lon="6.59713">
        <ele>1452.21</ele>
        <time>2026-05-17T08:39:22Z</time>
      </trkpt>
      <trkpt lat="43.74454" lon="6.59693">
        <ele>1452.21</ele>
        <time>2026-05-17T08:39:39Z</time>
      </trkpt>
      <trkpt lat="43.74453" lon="6.59666">
        <ele>1450.77</ele>
        <time>2026-05-17T08:39:54Z</time>
      </trkpt>
      <trkpt lat="43.74453" lon="6.59662">
        <ele>1450.77</ele>
        <time>2026-05-17T08:39:58Z</time>
      </trkpt>
      <trkpt lat="43.74455" lon="6.5964">
        <ele>1449.81</ele>
        <time>2026-05-17T08:40:13Z</time>
      </trkpt>
      <trkpt lat="43.74456" lon="6.59629">
        <ele>1449.81</ele>
        <time>2026-05-17T08:40:20Z</time>
      </trkpt>
      <trkpt lat="43.74453" lon="6.59607">
        <ele>1449.32</ele>
        <time>2026-05-17T08:40:34Z</time>
      </trkpt>
      <trkpt lat="43.74449" lon="6.59595">
        <ele>1450.29</ele>
        <time>2026-05-17T08:40:42Z</time>
      </trkpt>
      <trkpt lat="43.74442" lon="6.59578">
        <ele>1450.29</ele>
        <time>2026-05-17T08:40:57Z</time>
      </trkpt>
      <trkpt lat="43.74436" lon="6.59561">
        <ele>1450.77</ele>
        <time>2026-05-17T08:41:11Z</time>
      </trkpt>
      <trkpt lat="43.74427" lon="6.59537">
        <ele>1449.32</ele>
        <time>2026-05-17T08:41:24Z</time>
      </trkpt>
      <trkpt lat="43.74422" lon="6.59517">
        <ele>1448.84</ele>
        <time>2026-05-17T08:41:37Z</time>
      </trkpt>
      <trkpt lat="43.74415" lon="6.59494">
        <ele>1447.88</ele>
        <time>2026-05-17T08:41:52Z</time>
      </trkpt>
      <trkpt lat="43.7441" lon="6.5947">
        <ele>1446.92</ele>
        <time>2026-05-17T08:42:08Z</time>
      </trkpt>
      <trkpt lat="43.74404" lon="6.59448">
        <ele>1445.96</ele>
        <time>2026-05-17T08:42:23Z</time>
      </trkpt>
      <trkpt lat="43.74397" lon="6.59429">
        <ele>1445.96</ele>
        <time>2026-05-17T08:42:37Z</time>
      </trkpt>
      <trkpt lat="43.74392" lon="6.59402">
        <ele>1445.48</ele>
        <time>2026-05-17T08:42:53Z</time>
      </trkpt>
      <trkpt lat="43.74384" lon="6.59381">
        <ele>1445.48</ele>
        <time>2026-05-17T08:43:06Z</time>
      </trkpt>
      <trkpt lat="43.74377" lon="6.5936">
        <ele>1445</ele>
        <time>2026-05-17T08:43:19Z</time>
      </trkpt>
      <trkpt lat="43.74374" lon="6.59344">
        <ele>1444.04</ele>
        <time>2026-05-17T08:43:33Z</time>
      </trkpt>
      <trkpt lat="43.7437" lon="6.5932">
        <ele>1443.08</ele>
        <time>2026-05-17T08:43:46Z</time>
      </trkpt>
      <trkpt lat="43.74369" lon="6.59294">
        <ele>1441.63</ele>
        <time>2026-05-17T08:44:03Z</time>
      </trkpt>
      <trkpt lat="43.7437" lon="6.59288">
        <ele>1442.11</ele>
        <time>2026-05-17T08:44:08Z</time>
      </trkpt>
      <trkpt lat="43.74375" lon="6.59265">
        <ele>1441.63</ele>
        <time>2026-05-17T08:44:25Z</time>
      </trkpt>
      <trkpt lat="43.74376" lon="6.59243">
        <ele>1442.11</ele>
        <time>2026-05-17T08:44:37Z</time>
      </trkpt>
      <trkpt lat="43.74376" lon="6.59215">
        <ele>1441.63</ele>
        <time>2026-05-17T08:44:54Z</time>
      </trkpt>
      <trkpt lat="43.74376" lon="6.59195">
        <ele>1440.19</ele>
        <time>2026-05-17T08:45:05Z</time>
      </trkpt>
      <trkpt lat="43.74378" lon="6.59171">
        <ele>1439.23</ele>
        <time>2026-05-17T08:45:18Z</time>
      </trkpt>
      <trkpt lat="43.74379" lon="6.59147">
        <ele>1438.27</ele>
        <time>2026-05-17T08:45:34Z</time>
      </trkpt>
      <trkpt lat="43.74381" lon="6.59122">
        <ele>1436.83</ele>
        <time>2026-05-17T08:45:50Z</time>
      </trkpt>
      <trkpt lat="43.74383" lon="6.59099">
        <ele>1434.91</ele>
        <time>2026-05-17T08:46:05Z</time>
      </trkpt>
      <trkpt lat="43.74384" lon="6.59079">
        <ele>1432.98</ele>
        <time>2026-05-17T08:46:20Z</time>
      </trkpt>
      <trkpt lat="43.74383" lon="6.59065">
        <ele>1430.1</ele>
        <time>2026-05-17T08:46:33Z</time>
      </trkpt>
      <trkpt lat="43.74379" lon="6.59038">
        <ele>1428.18</ele>
        <time>2026-05-17T08:46:48Z</time>
      </trkpt>
      <trkpt lat="43.74375" lon="6.59017">
        <ele>1427.21</ele>
        <time>2026-05-17T08:47:04Z</time>
      </trkpt>
      <trkpt lat="43.74367" lon="6.58994">
        <ele>1424.81</ele>
        <time>2026-05-17T08:47:19Z</time>
      </trkpt>
      <trkpt lat="43.74363" lon="6.5897">
        <ele>1422.89</ele>
        <time>2026-05-17T08:47:35Z</time>
      </trkpt>
      <trkpt lat="43.74362" lon="6.58968">
        <ele>1422.89</ele>
        <time>2026-05-17T08:47:36Z</time>
      </trkpt>
      <trkpt lat="43.7436" lon="6.58961">
        <ele>1422.41</ele>
        <time>2026-05-17T08:47:40Z</time>
      </trkpt>
      <trkpt lat="43.74351" lon="6.58947">
        <ele>1420</ele>
        <time>2026-05-17T08:47:54Z</time>
      </trkpt>
      <trkpt lat="43.74346" lon="6.5893">
        <ele>1418.56</ele>
        <time>2026-05-17T08:48:07Z</time>
      </trkpt>
      <trkpt lat="43.74341" lon="6.58916">
        <ele>1417.12</ele>
        <time>2026-05-17T08:48:20Z</time>
      </trkpt>
      <trkpt lat="43.74335" lon="6.58903">
        <ele>1415.2</ele>
        <time>2026-05-17T08:48:33Z</time>
      </trkpt>
      <trkpt lat="43.74334" lon="6.58902">
        <ele>1415.68</ele>
        <time>2026-05-17T08:48:34Z</time>
      </trkpt>
      <trkpt lat="43.74337" lon="6.58886">
        <ele>1413.76</ele>
        <time>2026-05-17T08:48:48Z</time>
      </trkpt>
      <trkpt lat="43.74338" lon="6.58875">
        <ele>1412.31</ele>
        <time>2026-05-17T08:49:00Z</time>
      </trkpt>
      <trkpt lat="43.74335" lon="6.58857">
        <ele>1409.91</ele>
        <time>2026-05-17T08:49:16Z</time>
      </trkpt>
      <trkpt lat="43.74331" lon="6.58843">
        <ele>1407.99</ele>
        <time>2026-05-17T08:49:29Z</time>
      </trkpt>
      <trkpt lat="43.74328" lon="6.58821">
        <ele>1406.07</ele>
        <time>2026-05-17T08:49:44Z</time>
      </trkpt>
      <trkpt lat="43.74322" lon="6.58804">
        <ele>1403.18</ele>
        <time>2026-05-17T08:50:01Z</time>
      </trkpt>
      <trkpt lat="43.74321" lon="6.58801">
        <ele>1403.18</ele>
        <time>2026-05-17T08:50:21Z</time>
      </trkpt>
      <trkpt lat="43.7432" lon="6.58797">
        <ele>1402.22</ele>
        <time>2026-05-17T08:50:45Z</time>
      </trkpt>
      <trkpt lat="43.74318" lon="6.58784">
        <ele>1400.3</ele>
        <time>2026-05-17T08:51:00Z</time>
      </trkpt>
      <trkpt lat="43.74313" lon="6.58776">
        <ele>1398.37</ele>
        <time>2026-05-17T08:51:11Z</time>
      </trkpt>
      <trkpt lat="43.74311" lon="6.58766">
        <ele>1396.93</ele>
        <time>2026-05-17T08:51:27Z</time>
      </trkpt>
      <trkpt lat="43.74306" lon="6.58751">
        <ele>1394.53</ele>
        <time>2026-05-17T08:51:42Z</time>
      </trkpt>
      <trkpt lat="43.74302" lon="6.58733">
        <ele>1391.65</ele>
        <time>2026-05-17T08:51:57Z</time>
      </trkpt>
      <trkpt lat="43.74301" lon="6.5872">
        <ele>1389.72</ele>
        <time>2026-05-17T08:52:09Z</time>
      </trkpt>
      <trkpt lat="43.74305" lon="6.58704">
        <ele>1387.8</ele>
        <time>2026-05-17T08:52:24Z</time>
      </trkpt>
      <trkpt lat="43.74304" lon="6.58689">
        <ele>1385.4</ele>
        <time>2026-05-17T08:52:37Z</time>
      </trkpt>
      <trkpt lat="43.74306" lon="6.58676">
        <ele>1383.47</ele>
        <time>2026-05-17T08:52:51Z</time>
      </trkpt>
      <trkpt lat="43.74312" lon="6.5866">
        <ele>1382.03</ele>
        <time>2026-05-17T08:53:04Z</time>
      </trkpt>
      <trkpt lat="43.74319" lon="6.58641">
        <ele>1380.59</ele>
        <time>2026-05-17T08:53:21Z</time>
      </trkpt>
      <trkpt lat="43.74321" lon="6.58632">
        <ele>1379.15</ele>
        <time>2026-05-17T08:53:28Z</time>
      </trkpt>
      <trkpt lat="43.74324" lon="6.58613">
        <ele>1377.23</ele>
        <time>2026-05-17T08:53:42Z</time>
      </trkpt>
      <trkpt lat="43.74317" lon="6.58604">
        <ele>1375.3</ele>
        <time>2026-05-17T08:53:55Z</time>
      </trkpt>
      <trkpt lat="43.74308" lon="6.58595">
        <ele>1373.38</ele>
        <time>2026-05-17T08:54:05Z</time>
      </trkpt>
      <trkpt lat="43.74299" lon="6.58585">
        <ele>1371.94</ele>
        <time>2026-05-17T08:54:20Z</time>
      </trkpt>
      <trkpt lat="43.74299" lon="6.58579">
        <ele>1371.46</ele>
        <time>2026-05-17T08:54:26Z</time>
      </trkpt>
      <trkpt lat="43.74296" lon="6.58556">
        <ele>1371.46</ele>
        <time>2026-05-17T08:54:41Z</time>
      </trkpt>
      <trkpt lat="43.7429" lon="6.58539">
        <ele>1370.5</ele>
        <time>2026-05-17T08:54:55Z</time>
      </trkpt>
      <trkpt lat="43.74288" lon="6.58533">
        <ele>1370.98</ele>
        <time>2026-05-17T08:54:59Z</time>
      </trkpt>
      <trkpt lat="43.7428" lon="6.58515">
        <ele>1370.02</ele>
        <time>2026-05-17T08:55:15Z</time>
      </trkpt>
      <trkpt lat="43.74282" lon="6.58512">
        <ele>1370.02</ele>
        <time>2026-05-17T08:55:19Z</time>
      </trkpt>
      <trkpt lat="43.74283" lon="6.58513">
        <ele>1370.02</ele>
        <time>2026-05-17T08:55:22Z</time>
      </trkpt>
      <trkpt lat="43.74288" lon="6.58514">
        <ele>1370.02</ele>
        <time>2026-05-17T08:55:29Z</time>
      </trkpt>
      <trkpt lat="43.74295" lon="6.58518">
        <ele>1370.02</ele>
        <time>2026-05-17T08:55:37Z</time>
      </trkpt>
      <trkpt lat="43.74312" lon="6.58516">
        <ele>1371.46</ele>
        <time>2026-05-17T08:55:51Z</time>
      </trkpt>
      <trkpt lat="43.74335" lon="6.58508">
        <ele>1371.46</ele>
        <time>2026-05-17T08:56:09Z</time>
      </trkpt>
      <trkpt lat="43.74351" lon="6.585">
        <ele>1371.46</ele>
        <time>2026-05-17T08:56:24Z</time>
      </trkpt>
      <trkpt lat="43.7436" lon="6.58497">
        <ele>1370.5</ele>
        <time>2026-05-17T08:56:38Z</time>
      </trkpt>
      <trkpt lat="43.74362" lon="6.58493">
        <ele>1370.02</ele>
        <time>2026-05-17T08:56:52Z</time>
      </trkpt>
      <trkpt lat="43.74379" lon="6.58488">
        <ele>1369.05</ele>
        <time>2026-05-17T08:57:09Z</time>
      </trkpt>
      <trkpt lat="43.74384" lon="6.58485">
        <ele>1368.57</ele>
        <time>2026-05-17T08:57:27Z</time>
      </trkpt>
      <trkpt lat="43.74385" lon="6.58485">
        <ele>1368.57</ele>
        <time>2026-05-17T08:57:49Z</time>
      </trkpt>
      <trkpt lat="43.74392" lon="6.58479">
        <ele>1368.09</ele>
        <time>2026-05-17T08:58:03Z</time>
      </trkpt>
      <trkpt lat="43.74392" lon="6.58479">
        <ele>1368.09</ele>
        <time>2026-05-17T08:58:21Z</time>
      </trkpt>
      <trkpt lat="43.74397" lon="6.58478">
        <ele>1367.61</ele>
        <time>2026-05-17T08:58:37Z</time>
      </trkpt>
      <trkpt lat="43.74396" lon="6.58475">
        <ele>1367.61</ele>
        <time>2026-05-17T08:58:59Z</time>
      </trkpt>
      <trkpt lat="43.74397" lon="6.58469">
        <ele>1367.13</ele>
        <time>2026-05-17T08:59:16Z</time>
      </trkpt>
      <trkpt lat="43.74398" lon="6.58469">
        <ele>1367.13</ele>
        <time>2026-05-17T08:59:19Z</time>
      </trkpt>
      <trkpt lat="43.74401" lon="6.58469">
        <ele>1366.17</ele>
        <time>2026-05-17T08:59:22Z</time>
      </trkpt>
      <trkpt lat="43.74405" lon="6.58464">
        <ele>1365.21</ele>
        <time>2026-05-17T08:59:28Z</time>
      </trkpt>
      <trkpt lat="43.74415" lon="6.58458">
        <ele>1361.84</ele>
        <time>2026-05-17T08:59:40Z</time>
      </trkpt>
      <trkpt lat="43.74419" lon="6.58458">
        <ele>1360.88</ele>
        <time>2026-05-17T08:59:45Z</time>
      </trkpt>
      <trkpt lat="43.74428" lon="6.58462">
        <ele>1358</ele>
        <time>2026-05-17T08:59:56Z</time>
      </trkpt>
      <trkpt lat="43.74434" lon="6.58462">
        <ele>1356.56</ele>
        <time>2026-05-17T09:00:12Z</time>
      </trkpt>
      <trkpt lat="43.74439" lon="6.58459">
        <ele>1355.12</ele>
        <time>2026-05-17T09:00:33Z</time>
      </trkpt>
      <trkpt lat="43.74447" lon="6.58455">
        <ele>1351.75</ele>
        <time>2026-05-17T09:00:44Z</time>
      </trkpt>
      <trkpt lat="43.7445" lon="6.58454">
        <ele>1350.31</ele>
        <time>2026-05-17T09:00:49Z</time>
      </trkpt>
      <trkpt lat="43.74461" lon="6.58447">
        <ele>1347.43</ele>
        <time>2026-05-17T09:01:03Z</time>
      </trkpt>
      <trkpt lat="43.74463" lon="6.58444">
        <ele>1346.46</ele>
        <time>2026-05-17T09:01:21Z</time>
      </trkpt>
      <trkpt lat="43.74462" lon="6.58443">
        <ele>1346.94</ele>
        <time>2026-05-17T09:01:52Z</time>
      </trkpt>
      <trkpt lat="43.74463" lon="6.58442">
        <ele>1346.94</ele>
        <time>2026-05-17T09:02:23Z</time>
      </trkpt>
      <trkpt lat="43.74462" lon="6.5844">
        <ele>1346.94</ele>
        <time>2026-05-17T09:02:52Z</time>
      </trkpt>
      <trkpt lat="43.74463" lon="6.58438">
        <ele>1346.46</ele>
        <time>2026-05-17T09:03:21Z</time>
      </trkpt>
      <trkpt lat="43.74468" lon="6.58434">
        <ele>1347.43</ele>
        <time>2026-05-17T09:03:41Z</time>
      </trkpt>
      <trkpt lat="43.74474" lon="6.58438">
        <ele>1344.06</ele>
        <time>2026-05-17T09:03:53Z</time>
      </trkpt>
      <trkpt lat="43.74482" lon="6.58439">
        <ele>1340.7</ele>
        <time>2026-05-17T09:04:05Z</time>
      </trkpt>
      <trkpt lat="43.74487" lon="6.58438">
        <ele>1338.29</ele>
        <time>2026-05-17T09:04:18Z</time>
      </trkpt>
      <trkpt lat="43.7449" lon="6.58442">
        <ele>1334.93</ele>
        <time>2026-05-17T09:04:29Z</time>
      </trkpt>
      <trkpt lat="43.74494" lon="6.58451">
        <ele>1332.04</ele>
        <time>2026-05-17T09:04:43Z</time>
      </trkpt>
      <trkpt lat="43.745" lon="6.5846">
        <ele>1329.16</ele>
        <time>2026-05-17T09:04:58Z</time>
      </trkpt>
      <trkpt lat="43.74507" lon="6.58464">
        <ele>1325.8</ele>
        <time>2026-05-17T09:05:10Z</time>
      </trkpt>
      <trkpt lat="43.74516" lon="6.58468">
        <ele>1322.91</ele>
        <time>2026-05-17T09:05:24Z</time>
      </trkpt>
      <trkpt lat="43.74523" lon="6.58469">
        <ele>1320.03</ele>
        <time>2026-05-17T09:05:36Z</time>
      </trkpt>
      <trkpt lat="43.74532" lon="6.58471">
        <ele>1316.66</ele>
        <time>2026-05-17T09:05:50Z</time>
      </trkpt>
      <trkpt lat="43.74541" lon="6.58472">
        <ele>1313.78</ele>
        <time>2026-05-17T09:06:05Z</time>
      </trkpt>
      <trkpt lat="43.74542" lon="6.58474">
        <ele>1313.3</ele>
        <time>2026-05-17T09:06:26Z</time>
      </trkpt>
      <trkpt lat="43.74544" lon="6.58478">
        <ele>1313.3</ele>
        <time>2026-05-17T09:06:49Z</time>
      </trkpt>
      <trkpt lat="43.74543" lon="6.58479">
        <ele>1313.3</ele>
        <time>2026-05-17T09:07:09Z</time>
      </trkpt>
      <trkpt lat="43.74547" lon="6.58486">
        <ele>1312.34</ele>
        <time>2026-05-17T09:07:30Z</time>
      </trkpt>
      <trkpt lat="43.74551" lon="6.58498">
        <ele>1313.78</ele>
        <time>2026-05-17T09:07:45Z</time>
      </trkpt>
      <trkpt lat="43.74552" lon="6.58499">
        <ele>1313.78</ele>
        <time>2026-05-17T09:07:46Z</time>
      </trkpt>
      <trkpt lat="43.74558" lon="6.58508">
        <ele>1312.82</ele>
        <time>2026-05-17T09:07:55Z</time>
      </trkpt>
      <trkpt lat="43.74567" lon="6.58523">
        <ele>1312.34</ele>
        <time>2026-05-17T09:08:09Z</time>
      </trkpt>
      <trkpt lat="43.74569" lon="6.58528">
        <ele>1312.34</ele>
        <time>2026-05-17T09:08:31Z</time>
      </trkpt>
      <trkpt lat="43.74571" lon="6.5853">
        <ele>1312.34</ele>
        <time>2026-05-17T09:08:34Z</time>
      </trkpt>
      <trkpt lat="43.74578" lon="6.5854">
        <ele>1312.34</ele>
        <time>2026-05-17T09:08:49Z</time>
      </trkpt>
      <trkpt lat="43.74579" lon="6.58542">
        <ele>1313.78</ele>
        <time>2026-05-17T09:08:52Z</time>
      </trkpt>
      <trkpt lat="43.74586" lon="6.58551">
        <ele>1314.26</ele>
        <time>2026-05-17T09:09:06Z</time>
      </trkpt>
      <trkpt lat="43.74595" lon="6.58565">
        <ele>1314.26</ele>
        <time>2026-05-17T09:09:22Z</time>
      </trkpt>
      <trkpt lat="43.74595" lon="6.58569">
        <ele>1312.82</ele>
        <time>2026-05-17T09:09:58Z</time>
      </trkpt>
      <trkpt lat="43.74595" lon="6.58568">
        <ele>1312.82</ele>
        <time>2026-05-17T09:10:32Z</time>
      </trkpt>
      <trkpt lat="43.74599" lon="6.58569">
        <ele>1312.34</ele>
        <time>2026-05-17T09:10:54Z</time>
      </trkpt>
      <trkpt lat="43.7461" lon="6.58575">
        <ele>1308.97</ele>
        <time>2026-05-17T09:11:09Z</time>
      </trkpt>
      <trkpt lat="43.74618" lon="6.58583">
        <ele>1308.97</ele>
        <time>2026-05-17T09:11:23Z</time>
      </trkpt>
      <trkpt lat="43.74627" lon="6.58591">
        <ele>1310.41</ele>
        <time>2026-05-17T09:11:38Z</time>
      </trkpt>
      <trkpt lat="43.7463" lon="6.58593">
        <ele>1309.45</ele>
        <time>2026-05-17T09:11:41Z</time>
      </trkpt>
      <trkpt lat="43.74642" lon="6.58605">
        <ele>1307.53</ele>
        <time>2026-05-17T09:11:58Z</time>
      </trkpt>
      <trkpt lat="43.74648" lon="6.58618">
        <ele>1307.53</ele>
        <time>2026-05-17T09:12:13Z</time>
      </trkpt>
      <trkpt lat="43.7465" lon="6.58622">
        <ele>1307.53</ele>
        <time>2026-05-17T09:12:35Z</time>
      </trkpt>
      <trkpt lat="43.74655" lon="6.58626">
        <ele>1307.53</ele>
        <time>2026-05-17T09:12:51Z</time>
      </trkpt>
      <trkpt lat="43.74661" lon="6.5863">
        <ele>1304.17</ele>
        <time>2026-05-17T09:13:03Z</time>
      </trkpt>
      <trkpt lat="43.74669" lon="6.58639">
        <ele>1303.2</ele>
        <time>2026-05-17T09:13:16Z</time>
      </trkpt>
      <trkpt lat="43.74679" lon="6.58651">
        <ele>1301.28</ele>
        <time>2026-05-17T09:13:31Z</time>
      </trkpt>
      <trkpt lat="43.74689" lon="6.58663">
        <ele>1299.36</ele>
        <time>2026-05-17T09:13:47Z</time>
      </trkpt>
      <trkpt lat="43.7469" lon="6.58669">
        <ele>1300.32</ele>
        <time>2026-05-17T09:13:53Z</time>
      </trkpt>
      <trkpt lat="43.7469" lon="6.58683">
        <ele>1302.72</ele>
        <time>2026-05-17T09:14:08Z</time>
      </trkpt>
      <trkpt lat="43.7469" lon="6.58695">
        <ele>1305.13</ele>
        <time>2026-05-17T09:14:21Z</time>
      </trkpt>
      <trkpt lat="43.7469" lon="6.58706">
        <ele>1307.05</ele>
        <time>2026-05-17T09:14:35Z</time>
      </trkpt>
      <trkpt lat="43.74691" lon="6.5872">
        <ele>1308.97</ele>
        <time>2026-05-17T09:14:50Z</time>
      </trkpt>
      <trkpt lat="43.74697" lon="6.58737">
        <ele>1307.53</ele>
        <time>2026-05-17T09:15:06Z</time>
      </trkpt>
      <trkpt lat="43.74705" lon="6.58753">
        <ele>1305.61</ele>
        <time>2026-05-17T09:15:22Z</time>
      </trkpt>
      <trkpt lat="43.74713" lon="6.58765">
        <ele>1304.17</ele>
        <time>2026-05-17T09:15:35Z</time>
      </trkpt>
      <trkpt lat="43.74718" lon="6.58781">
        <ele>1304.17</ele>
        <time>2026-05-17T09:15:51Z</time>
      </trkpt>
      <trkpt lat="43.74718" lon="6.58782">
        <ele>1304.17</ele>
        <time>2026-05-17T09:15:52Z</time>
      </trkpt>
      <trkpt lat="43.74724" lon="6.58799">
        <ele>1304.65</ele>
        <time>2026-05-17T09:16:08Z</time>
      </trkpt>
      <trkpt lat="43.74728" lon="6.58816">
        <ele>1304.65</ele>
        <time>2026-05-17T09:16:22Z</time>
      </trkpt>
      <trkpt lat="43.74729" lon="6.58823">
        <ele>1304.65</ele>
        <time>2026-05-17T09:16:37Z</time>
      </trkpt>
      <trkpt lat="43.7473" lon="6.58831">
        <ele>1303.2</ele>
        <time>2026-05-17T09:17:07Z</time>
      </trkpt>
      <trkpt lat="43.74735" lon="6.58849">
        <ele>1304.17</ele>
        <time>2026-05-17T09:17:23Z</time>
      </trkpt>
      <trkpt lat="43.74743" lon="6.58866">
        <ele>1302.24</ele>
        <time>2026-05-17T09:17:37Z</time>
      </trkpt>
      <trkpt lat="43.74753" lon="6.5888">
        <ele>1299.36</ele>
        <time>2026-05-17T09:17:52Z</time>
      </trkpt>
      <trkpt lat="43.74763" lon="6.58893">
        <ele>1297.44</ele>
        <time>2026-05-17T09:18:08Z</time>
      </trkpt>
      <trkpt lat="43.74771" lon="6.58911">
        <ele>1296.48</ele>
        <time>2026-05-17T09:18:24Z</time>
      </trkpt>
      <trkpt lat="43.74772" lon="6.58913">
        <ele>1298.4</ele>
        <time>2026-05-17T09:18:26Z</time>
      </trkpt>
      <trkpt lat="43.74778" lon="6.58933">
        <ele>1298.88</ele>
        <time>2026-05-17T09:18:43Z</time>
      </trkpt>
      <trkpt lat="43.74781" lon="6.58949">
        <ele>1299.84</ele>
        <time>2026-05-17T09:18:57Z</time>
      </trkpt>
      <trkpt lat="43.74788" lon="6.58966">
        <ele>1300.32</ele>
        <time>2026-05-17T09:19:13Z</time>
      </trkpt>
      <trkpt lat="43.7479" lon="6.58969">
        <ele>1299.36</ele>
        <time>2026-05-17T09:19:17Z</time>
      </trkpt>
      <trkpt lat="43.748" lon="6.58994">
        <ele>1296.96</ele>
        <time>2026-05-17T09:19:35Z</time>
      </trkpt>
      <trkpt lat="43.74807" lon="6.59011">
        <ele>1294.55</ele>
        <time>2026-05-17T09:19:51Z</time>
      </trkpt>
      <trkpt lat="43.74813" lon="6.59022">
        <ele>1294.07</ele>
        <time>2026-05-17T09:20:06Z</time>
      </trkpt>
      <trkpt lat="43.74821" lon="6.59038">
        <ele>1292.15</ele>
        <time>2026-05-17T09:20:21Z</time>
      </trkpt>
      <trkpt lat="43.74827" lon="6.59053">
        <ele>1289.27</ele>
        <time>2026-05-17T09:20:38Z</time>
      </trkpt>
      <trkpt lat="43.74836" lon="6.59069">
        <ele>1285.9</ele>
        <time>2026-05-17T09:20:52Z</time>
      </trkpt>
      <trkpt lat="43.74847" lon="6.5908">
        <ele>1282.54</ele>
        <time>2026-05-17T09:21:06Z</time>
      </trkpt>
      <trkpt lat="43.74858" lon="6.59091">
        <ele>1280.61</ele>
        <time>2026-05-17T09:21:20Z</time>
      </trkpt>
      <trkpt lat="43.74867" lon="6.59102">
        <ele>1277.25</ele>
        <time>2026-05-17T09:21:32Z</time>
      </trkpt>
      <trkpt lat="43.74879" lon="6.59115">
        <ele>1274.85</ele>
        <time>2026-05-17T09:21:48Z</time>
      </trkpt>
      <trkpt lat="43.74887" lon="6.59124">
        <ele>1273.4</ele>
        <time>2026-05-17T09:22:10Z</time>
      </trkpt>
      <trkpt lat="43.74891" lon="6.59132">
        <ele>1271.48</ele>
        <time>2026-05-17T09:22:34Z</time>
      </trkpt>
      <trkpt lat="43.74896" lon="6.59135">
        <ele>1268.6</ele>
        <time>2026-05-17T09:22:56Z</time>
      </trkpt>
      <trkpt lat="43.749" lon="6.5914">
        <ele>1265.71</ele>
        <time>2026-05-17T09:23:06Z</time>
      </trkpt>
      <trkpt lat="43.74908" lon="6.59149">
        <ele>1262.83</ele>
        <time>2026-05-17T09:23:18Z</time>
      </trkpt>
      <trkpt lat="43.74915" lon="6.59158">
        <ele>1260.43</ele>
        <time>2026-05-17T09:23:34Z</time>
      </trkpt>
      <trkpt lat="43.7492" lon="6.59165">
        <ele>1259.94</ele>
        <time>2026-05-17T09:23:40Z</time>
      </trkpt>
      <trkpt lat="43.74929" lon="6.59172">
        <ele>1257.54</ele>
        <time>2026-05-17T09:23:53Z</time>
      </trkpt>
      <trkpt lat="43.74927" lon="6.59178">
        <ele>1257.06</ele>
        <time>2026-05-17T09:24:07Z</time>
      </trkpt>
      <trkpt lat="43.74926" lon="6.59181">
        <ele>1257.54</ele>
        <time>2026-05-17T09:24:22Z</time>
      </trkpt>
      <trkpt lat="43.74926" lon="6.59182">
        <ele>1257.06</ele>
        <time>2026-05-17T09:24:47Z</time>
      </trkpt>
      <trkpt lat="43.74929" lon="6.59186">
        <ele>1257.06</ele>
        <time>2026-05-17T09:25:04Z</time>
      </trkpt>
      <trkpt lat="43.74931" lon="6.592">
        <ele>1255.62</ele>
        <time>2026-05-17T09:25:20Z</time>
      </trkpt>
      <trkpt lat="43.74938" lon="6.59219">
        <ele>1254.66</ele>
        <time>2026-05-17T09:25:34Z</time>
      </trkpt>
      <trkpt lat="43.74953" lon="6.5924">
        <ele>1253.22</ele>
        <time>2026-05-17T09:25:51Z</time>
      </trkpt>
      <trkpt lat="43.74957" lon="6.59248">
        <ele>1252.74</ele>
        <time>2026-05-17T09:25:56Z</time>
      </trkpt>
      <trkpt lat="43.74967" lon="6.5927">
        <ele>1251.29</ele>
        <time>2026-05-17T09:26:14Z</time>
      </trkpt>
      <trkpt lat="43.74979" lon="6.59291">
        <ele>1248.89</ele>
        <time>2026-05-17T09:26:29Z</time>
      </trkpt>
      <trkpt lat="43.74987" lon="6.59313">
        <ele>1247.45</ele>
        <time>2026-05-17T09:26:44Z</time>
      </trkpt>
      <trkpt lat="43.74998" lon="6.59331">
        <ele>1245.53</ele>
        <time>2026-05-17T09:26:59Z</time>
      </trkpt>
      <trkpt lat="43.7501" lon="6.59355">
        <ele>1243.6</ele>
        <time>2026-05-17T09:27:16Z</time>
      </trkpt>
      <trkpt lat="43.75022" lon="6.59374">
        <ele>1241.68</ele>
        <time>2026-05-17T09:27:30Z</time>
      </trkpt>
      <trkpt lat="43.75035" lon="6.59397">
        <ele>1239.76</ele>
        <time>2026-05-17T09:27:46Z</time>
      </trkpt>
      <trkpt lat="43.75047" lon="6.59417">
        <ele>1238.8</ele>
        <time>2026-05-17T09:27:59Z</time>
      </trkpt>
      <trkpt lat="43.75059" lon="6.59438">
        <ele>1236.39</ele>
        <time>2026-05-17T09:28:14Z</time>
      </trkpt>
      <trkpt lat="43.75078" lon="6.59462">
        <ele>1234.95</ele>
        <time>2026-05-17T09:28:30Z</time>
      </trkpt>
      <trkpt lat="43.75091" lon="6.59475">
        <ele>1233.51</ele>
        <time>2026-05-17T09:28:45Z</time>
      </trkpt>
      <trkpt lat="43.75095" lon="6.59479">
        <ele>1233.03</ele>
        <time>2026-05-17T09:28:49Z</time>
      </trkpt>
      <trkpt lat="43.75098" lon="6.59487">
        <ele>1232.55</ele>
        <time>2026-05-17T09:28:55Z</time>
      </trkpt>
      <trkpt lat="43.75107" lon="6.59516">
        <ele>1230.62</ele>
        <time>2026-05-17T09:29:13Z</time>
      </trkpt>
      <trkpt lat="43.75119" lon="6.5954">
        <ele>1228.22</ele>
        <time>2026-05-17T09:29:31Z</time>
      </trkpt>
      <trkpt lat="43.75128" lon="6.59567">
        <ele>1226.3</ele>
        <time>2026-05-17T09:29:49Z</time>
      </trkpt>
      <trkpt lat="43.75136" lon="6.59593">
        <ele>1224.38</ele>
        <time>2026-05-17T09:30:05Z</time>
      </trkpt>
      <trkpt lat="43.75145" lon="6.5962">
        <ele>1223.42</ele>
        <time>2026-05-17T09:30:21Z</time>
      </trkpt>
      <trkpt lat="43.75156" lon="6.59644">
        <ele>1222.45</ele>
        <time>2026-05-17T09:30:36Z</time>
      </trkpt>
      <trkpt lat="43.75163" lon="6.59655">
        <ele>1221.01</ele>
        <time>2026-05-17T09:30:44Z</time>
      </trkpt>
      <trkpt lat="43.75178" lon="6.59676">
        <ele>1219.57</ele>
        <time>2026-05-17T09:31:00Z</time>
      </trkpt>
      <trkpt lat="43.75188" lon="6.59698">
        <ele>1217.65</ele>
        <time>2026-05-17T09:31:16Z</time>
      </trkpt>
      <trkpt lat="43.75197" lon="6.59721">
        <ele>1216.21</ele>
        <time>2026-05-17T09:31:31Z</time>
      </trkpt>
      <trkpt lat="43.75207" lon="6.5974">
        <ele>1214.76</ele>
        <time>2026-05-17T09:31:46Z</time>
      </trkpt>
      <trkpt lat="43.75218" lon="6.5976">
        <ele>1213.32</ele>
        <time>2026-05-17T09:31:59Z</time>
      </trkpt>
      <trkpt lat="43.75235" lon="6.59783">
        <ele>1211.4</ele>
        <time>2026-05-17T09:32:15Z</time>
      </trkpt>
      <trkpt lat="43.75248" lon="6.59804">
        <ele>1209.48</ele>
        <time>2026-05-17T09:32:32Z</time>
      </trkpt>
      <trkpt lat="43.75261" lon="6.59824">
        <ele>1207.07</ele>
        <time>2026-05-17T09:32:49Z</time>
      </trkpt>
      <trkpt lat="43.75274" lon="6.59841">
        <ele>1205.63</ele>
        <time>2026-05-17T09:33:04Z</time>
      </trkpt>
      <trkpt lat="43.75287" lon="6.59862">
        <ele>1203.71</ele>
        <time>2026-05-17T09:33:21Z</time>
      </trkpt>
      <trkpt lat="43.75291" lon="6.5987">
        <ele>1203.23</ele>
        <time>2026-05-17T09:33:27Z</time>
      </trkpt>
      <trkpt lat="43.75306" lon="6.59899">
        <ele>1200.34</ele>
        <time>2026-05-17T09:33:49Z</time>
      </trkpt>
      <trkpt lat="43.7532" lon="6.5992">
        <ele>1198.9</ele>
        <time>2026-05-17T09:34:07Z</time>
      </trkpt>
      <trkpt lat="43.75332" lon="6.59937">
        <ele>1197.46</ele>
        <time>2026-05-17T09:34:23Z</time>
      </trkpt>
      <trkpt lat="43.75344" lon="6.59958">
        <ele>1195.54</ele>
        <time>2026-05-17T09:34:39Z</time>
      </trkpt>
      <trkpt lat="43.75357" lon="6.59978">
        <ele>1194.09</ele>
        <time>2026-05-17T09:34:55Z</time>
      </trkpt>
      <trkpt lat="43.7537" lon="6.6">
        <ele>1192.17</ele>
        <time>2026-05-17T09:35:11Z</time>
      </trkpt>
      <trkpt lat="43.75384" lon="6.6002">
        <ele>1190.73</ele>
        <time>2026-05-17T09:35:27Z</time>
      </trkpt>
      <trkpt lat="43.75398" lon="6.60038">
        <ele>1188.81</ele>
        <time>2026-05-17T09:35:42Z</time>
      </trkpt>
      <trkpt lat="43.75415" lon="6.60055">
        <ele>1186.88</ele>
        <time>2026-05-17T09:35:57Z</time>
      </trkpt>
      <trkpt lat="43.75431" lon="6.60076">
        <ele>1184.96</ele>
        <time>2026-05-17T09:36:13Z</time>
      </trkpt>
      <trkpt lat="43.75452" lon="6.60103">
        <ele>1182.56</ele>
        <time>2026-05-17T09:36:33Z</time>
      </trkpt>
      <trkpt lat="43.75454" lon="6.60105">
        <ele>1182.08</ele>
        <time>2026-05-17T09:36:35Z</time>
      </trkpt>
      <trkpt lat="43.75459" lon="6.60111">
        <ele>1181.6</ele>
        <time>2026-05-17T09:36:40Z</time>
      </trkpt>
      <trkpt lat="43.75475" lon="6.60131">
        <ele>1179.67</ele>
        <time>2026-05-17T09:36:58Z</time>
      </trkpt>
      <trkpt lat="43.75493" lon="6.60152">
        <ele>1177.75</ele>
        <time>2026-05-17T09:37:18Z</time>
      </trkpt>
      <trkpt lat="43.755" lon="6.6016">
        <ele>1176.31</ele>
        <time>2026-05-17T09:37:31Z</time>
      </trkpt>
      <trkpt lat="43.75501" lon="6.6016">
        <ele>1175.83</ele>
        <time>2026-05-17T09:38:01Z</time>
      </trkpt>
      <trkpt lat="43.75499" lon="6.60161">
        <ele>1174.87</ele>
        <time>2026-05-17T09:38:39Z</time>
      </trkpt>
      <trkpt lat="43.75501" lon="6.60161">
        <ele>1174.39</ele>
        <time>2026-05-17T09:39:24Z</time>
      </trkpt>
      <trkpt lat="43.75501" lon="6.6016">
        <ele>1174.39</ele>
        <time>2026-05-17T09:39:54Z</time>
      </trkpt>
      <trkpt lat="43.75507" lon="6.60161">
        <ele>1173.91</ele>
        <time>2026-05-17T09:40:11Z</time>
      </trkpt>
      <trkpt lat="43.75508" lon="6.60159">
        <ele>1173.91</ele>
        <time>2026-05-17T09:40:27Z</time>
      </trkpt>
      <trkpt lat="43.75508" lon="6.60158">
        <ele>1173.91</ele>
        <time>2026-05-17T09:40:44Z</time>
      </trkpt>
      <trkpt lat="43.75509" lon="6.6016">
        <ele>1173.91</ele>
        <time>2026-05-17T09:40:50Z</time>
      </trkpt>
      <trkpt lat="43.75522" lon="6.60177">
        <ele>1172.47</ele>
        <time>2026-05-17T09:41:04Z</time>
      </trkpt>
      <trkpt lat="43.75539" lon="6.60205">
        <ele>1169.58</ele>
        <time>2026-05-17T09:41:23Z</time>
      </trkpt>
      <trkpt lat="43.75542" lon="6.6021">
        <ele>1169.1</ele>
        <time>2026-05-17T09:41:27Z</time>
      </trkpt>
      <trkpt lat="43.75547" lon="6.60214">
        <ele>1168.62</ele>
        <time>2026-05-17T09:41:31Z</time>
      </trkpt>
      <trkpt lat="43.75551" lon="6.60211">
        <ele>1167.66</ele>
        <time>2026-05-17T09:41:36Z</time>
      </trkpt>
      <trkpt lat="43.75544" lon="6.6018">
        <ele>1164.77</ele>
        <time>2026-05-17T09:41:55Z</time>
      </trkpt>
      <trkpt lat="43.75543" lon="6.60179">
        <ele>1164.77</ele>
        <time>2026-05-17T09:41:56Z</time>
      </trkpt>
      <trkpt lat="43.75541" lon="6.60164">
        <ele>1163.33</ele>
        <time>2026-05-17T09:42:04Z</time>
      </trkpt>
      <trkpt lat="43.75533" lon="6.60134">
        <ele>1160.93</ele>
        <time>2026-05-17T09:42:21Z</time>
      </trkpt>
      <trkpt lat="43.7552" lon="6.60103">
        <ele>1158.53</ele>
        <time>2026-05-17T09:42:39Z</time>
      </trkpt>
      <trkpt lat="43.75512" lon="6.6008">
        <ele>1156.12</ele>
        <time>2026-05-17T09:42:54Z</time>
      </trkpt>
      <trkpt lat="43.75509" lon="6.6005">
        <ele>1153.24</ele>
        <time>2026-05-17T09:43:11Z</time>
      </trkpt>
      <trkpt lat="43.75506" lon="6.60018">
        <ele>1150.84</ele>
        <time>2026-05-17T09:43:29Z</time>
      </trkpt>
      <trkpt lat="43.75505" lon="6.60017">
        <ele>1150.84</ele>
        <time>2026-05-17T09:43:30Z</time>
      </trkpt>
      <trkpt lat="43.75504" lon="6.60009">
        <ele>1149.39</ele>
        <time>2026-05-17T09:43:35Z</time>
      </trkpt>
      <trkpt lat="43.75494" lon="6.59977">
        <ele>1147.47</ele>
        <time>2026-05-17T09:43:54Z</time>
      </trkpt>
      <trkpt lat="43.75492" lon="6.59974">
        <ele>1146.99</ele>
        <time>2026-05-17T09:43:56Z</time>
      </trkpt>
      <trkpt lat="43.75491" lon="6.5997">
        <ele>1146.51</ele>
        <time>2026-05-17T09:43:58Z</time>
      </trkpt>
      <trkpt lat="43.75489" lon="6.59965">
        <ele>1146.03</ele>
        <time>2026-05-17T09:44:02Z</time>
      </trkpt>
      <trkpt lat="43.75487" lon="6.59958">
        <ele>1146.03</ele>
        <time>2026-05-17T09:44:06Z</time>
      </trkpt>
      <trkpt lat="43.75474" lon="6.59932">
        <ele>1143.63</ele>
        <time>2026-05-17T09:44:24Z</time>
      </trkpt>
      <trkpt lat="43.75463" lon="6.59902">
        <ele>1140.74</ele>
        <time>2026-05-17T09:44:43Z</time>
      </trkpt>
      <trkpt lat="43.75453" lon="6.59876">
        <ele>1138.82</ele>
        <time>2026-05-17T09:45:01Z</time>
      </trkpt>
      <trkpt lat="43.7545" lon="6.59875">
        <ele>1137.86</ele>
        <time>2026-05-17T09:45:20Z</time>
      </trkpt>
      <trkpt lat="43.75447" lon="6.59872">
        <ele>1137.86</ele>
        <time>2026-05-17T09:45:45Z</time>
      </trkpt>
      <trkpt lat="43.75445" lon="6.59873">
        <ele>1137.86</ele>
        <time>2026-05-17T09:46:11Z</time>
      </trkpt>
      <trkpt lat="43.75441" lon="6.59853">
        <ele>1136.42</ele>
        <time>2026-05-17T09:46:26Z</time>
      </trkpt>
      <trkpt lat="43.7544" lon="6.5985">
        <ele>1135.45</ele>
        <time>2026-05-17T09:46:28Z</time>
      </trkpt>
      <trkpt lat="43.75434" lon="6.59821">
        <ele>1134.01</ele>
        <time>2026-05-17T09:46:44Z</time>
      </trkpt>
      <trkpt lat="43.75427" lon="6.59791">
        <ele>1131.61</ele>
        <time>2026-05-17T09:47:02Z</time>
      </trkpt>
      <trkpt lat="43.75425" lon="6.59781">
        <ele>1131.13</ele>
        <time>2026-05-17T09:47:07Z</time>
      </trkpt>
      <trkpt lat="43.75421" lon="6.59739">
        <ele>1128.24</ele>
        <time>2026-05-17T09:47:28Z</time>
      </trkpt>
      <trkpt lat="43.75414" lon="6.59709">
        <ele>1125.84</ele>
        <time>2026-05-17T09:47:45Z</time>
      </trkpt>
      <trkpt lat="43.75407" lon="6.59676">
        <ele>1123.44</ele>
        <time>2026-05-17T09:48:03Z</time>
      </trkpt>
      <trkpt lat="43.75411" lon="6.5964">
        <ele>1120.07</ele>
        <time>2026-05-17T09:48:24Z</time>
      </trkpt>
      <trkpt lat="43.75407" lon="6.59607">
        <ele>1117.67</ele>
        <time>2026-05-17T09:48:41Z</time>
      </trkpt>
      <trkpt lat="43.75406" lon="6.59591">
        <ele>1116.23</ele>
        <time>2026-05-17T09:48:50Z</time>
      </trkpt>
      <trkpt lat="43.75401" lon="6.59568">
        <ele>1114.31</ele>
        <time>2026-05-17T09:49:04Z</time>
      </trkpt>
      <trkpt lat="43.754" lon="6.59533">
        <ele>1111.42</ele>
        <time>2026-05-17T09:49:22Z</time>
      </trkpt>
      <trkpt lat="43.75394" lon="6.59498">
        <ele>1109.02</ele>
        <time>2026-05-17T09:49:42Z</time>
      </trkpt>
      <trkpt lat="43.75393" lon="6.59472">
        <ele>1106.13</ele>
        <time>2026-05-17T09:49:57Z</time>
      </trkpt>
      <trkpt lat="43.75393" lon="6.59459">
        <ele>1105.17</ele>
        <time>2026-05-17T09:50:04Z</time>
      </trkpt>
      <trkpt lat="43.75392" lon="6.59434">
        <ele>1103.73</ele>
        <time>2026-05-17T09:50:19Z</time>
      </trkpt>
      <trkpt lat="43.75394" lon="6.5941">
        <ele>1102.29</ele>
        <time>2026-05-17T09:50:35Z</time>
      </trkpt>
      <trkpt lat="43.75395" lon="6.59382">
        <ele>1099.4</ele>
        <time>2026-05-17T09:50:52Z</time>
      </trkpt>
      <trkpt lat="43.75393" lon="6.59363">
        <ele>1098.44</ele>
        <time>2026-05-17T09:51:07Z</time>
      </trkpt>
      <trkpt lat="43.75391" lon="6.59362">
        <ele>1098.92</ele>
        <time>2026-05-17T09:51:39Z</time>
      </trkpt>
      <trkpt lat="43.75389" lon="6.59361">
        <ele>1098.92</ele>
        <time>2026-05-17T09:52:04Z</time>
      </trkpt>
      <trkpt lat="43.75389" lon="6.5935">
        <ele>1097.48</ele>
        <time>2026-05-17T09:52:15Z</time>
      </trkpt>
      <trkpt lat="43.75388" lon="6.59337">
        <ele>1095.56</ele>
        <time>2026-05-17T09:52:29Z</time>
      </trkpt>
      <trkpt lat="43.75386" lon="6.59332">
        <ele>1095.56</ele>
        <time>2026-05-17T09:52:43Z</time>
      </trkpt>
      <trkpt lat="43.75386" lon="6.59326">
        <ele>1094.6</ele>
        <time>2026-05-17T09:52:47Z</time>
      </trkpt>
      <trkpt lat="43.75389" lon="6.59311">
        <ele>1094.12</ele>
        <time>2026-05-17T09:52:55Z</time>
      </trkpt>
      <trkpt lat="43.75389" lon="6.59268">
        <ele>1092.2</ele>
        <time>2026-05-17T09:53:15Z</time>
      </trkpt>
      <trkpt lat="43.75387" lon="6.59235">
        <ele>1089.31</ele>
        <time>2026-05-17T09:53:32Z</time>
      </trkpt>
      <trkpt lat="43.75386" lon="6.59207">
        <ele>1085.95</ele>
        <time>2026-05-17T09:53:47Z</time>
      </trkpt>
      <trkpt lat="43.75384" lon="6.59179">
        <ele>1084.5</ele>
        <time>2026-05-17T09:54:02Z</time>
      </trkpt>
      <trkpt lat="43.75381" lon="6.59148">
        <ele>1081.14</ele>
        <time>2026-05-17T09:54:20Z</time>
      </trkpt>
      <trkpt lat="43.7538" lon="6.5914">
        <ele>1080.18</ele>
        <time>2026-05-17T09:54:25Z</time>
      </trkpt>
      <trkpt lat="43.75378" lon="6.59134">
        <ele>1078.74</ele>
        <time>2026-05-17T09:54:38Z</time>
      </trkpt>
      <trkpt lat="43.75377" lon="6.59117">
        <ele>1078.26</ele>
        <time>2026-05-17T09:54:56Z</time>
      </trkpt>
      <trkpt lat="43.75372" lon="6.59086">
        <ele>1074.89</ele>
        <time>2026-05-17T09:55:14Z</time>
      </trkpt>
      <trkpt lat="43.75372" lon="6.59085">
        <ele>1074.89</ele>
        <time>2026-05-17T09:55:15Z</time>
      </trkpt>
      <trkpt lat="43.75367" lon="6.59055">
        <ele>1072.97</ele>
        <time>2026-05-17T09:55:32Z</time>
      </trkpt>
      <trkpt lat="43.7536" lon="6.59027">
        <ele>1071.05</ele>
        <time>2026-05-17T09:55:49Z</time>
      </trkpt>
      <trkpt lat="43.75357" lon="6.58998">
        <ele>1068.64</ele>
        <time>2026-05-17T09:56:06Z</time>
      </trkpt>
      <trkpt lat="43.75356" lon="6.58995">
        <ele>1068.64</ele>
        <time>2026-05-17T09:56:08Z</time>
      </trkpt>
      <trkpt lat="43.75356" lon="6.58976">
        <ele>1067.2</ele>
        <time>2026-05-17T09:56:18Z</time>
      </trkpt>
      <trkpt lat="43.75354" lon="6.58958">
        <ele>1065.28</ele>
        <time>2026-05-17T09:56:28Z</time>
      </trkpt>
      <trkpt lat="43.75352" lon="6.58922">
        <ele>1062.39</ele>
        <time>2026-05-17T09:56:47Z</time>
      </trkpt>
      <trkpt lat="43.75349" lon="6.589">
        <ele>1060.95</ele>
        <time>2026-05-17T09:57:00Z</time>
      </trkpt>
      <trkpt lat="43.75351" lon="6.58892">
        <ele>1059.51</ele>
        <time>2026-05-17T09:57:09Z</time>
      </trkpt>
      <trkpt lat="43.75356" lon="6.58906">
        <ele>1058.07</ele>
        <time>2026-05-17T09:57:24Z</time>
      </trkpt>
      <trkpt lat="43.75366" lon="6.58925">
        <ele>1055.67</ele>
        <time>2026-05-17T09:57:40Z</time>
      </trkpt>
      <trkpt lat="43.75377" lon="6.58947">
        <ele>1053.74</ele>
        <time>2026-05-17T09:57:57Z</time>
      </trkpt>
      <trkpt lat="43.75382" lon="6.58957">
        <ele>1052.78</ele>
        <time>2026-05-17T09:58:13Z</time>
      </trkpt>
      <trkpt lat="43.75381" lon="6.58957">
        <ele>1052.78</ele>
        <time>2026-05-17T09:58:50Z</time>
      </trkpt>
      <trkpt lat="43.75383" lon="6.58959">
        <ele>1052.78</ele>
        <time>2026-05-17T09:59:19Z</time>
      </trkpt>
      <trkpt lat="43.75383" lon="6.58963">
        <ele>1052.78</ele>
        <time>2026-05-17T09:59:33Z</time>
      </trkpt>
      <trkpt lat="43.75393" lon="6.58981">
        <ele>1051.34</ele>
        <time>2026-05-17T09:59:47Z</time>
      </trkpt>
      <trkpt lat="43.75408" lon="6.58999">
        <ele>1049.42</ele>
        <time>2026-05-17T10:00:03Z</time>
      </trkpt>
      <trkpt lat="43.75423" lon="6.59025">
        <ele>1047.01</ele>
        <time>2026-05-17T10:00:21Z</time>
      </trkpt>
      <trkpt lat="43.75424" lon="6.59029">
        <ele>1046.05</ele>
        <time>2026-05-17T10:00:23Z</time>
      </trkpt>
      <trkpt lat="43.75438" lon="6.59063">
        <ele>1043.65</ele>
        <time>2026-05-17T10:00:44Z</time>
      </trkpt>
      <trkpt lat="43.7545" lon="6.59098">
        <ele>1041.73</ele>
        <time>2026-05-17T10:01:04Z</time>
      </trkpt>
      <trkpt lat="43.75461" lon="6.59125">
        <ele>1039.8</ele>
        <time>2026-05-17T10:01:23Z</time>
      </trkpt>
      <trkpt lat="43.75473" lon="6.59153">
        <ele>1037.88</ele>
        <time>2026-05-17T10:01:40Z</time>
      </trkpt>
      <trkpt lat="43.75487" lon="6.5918">
        <ele>1034.52</ele>
        <time>2026-05-17T10:01:58Z</time>
      </trkpt>
      <trkpt lat="43.755" lon="6.59201">
        <ele>1032.59</ele>
        <time>2026-05-17T10:02:14Z</time>
      </trkpt>
      <trkpt lat="43.75503" lon="6.59211">
        <ele>1032.59</ele>
        <time>2026-05-17T10:02:25Z</time>
      </trkpt>
      <trkpt lat="43.75502" lon="6.59215">
        <ele>1032.59</ele>
        <time>2026-05-17T10:02:42Z</time>
      </trkpt>
      <trkpt lat="43.7551" lon="6.59224">
        <ele>1030.67</ele>
        <time>2026-05-17T10:02:57Z</time>
      </trkpt>
      <trkpt lat="43.75523" lon="6.59243">
        <ele>1029.23</ele>
        <time>2026-05-17T10:03:12Z</time>
      </trkpt>
      <trkpt lat="43.75537" lon="6.59265">
        <ele>1026.83</ele>
        <time>2026-05-17T10:03:29Z</time>
      </trkpt>
      <trkpt lat="43.75551" lon="6.59286">
        <ele>1024.42</ele>
        <time>2026-05-17T10:03:45Z</time>
      </trkpt>
      <trkpt lat="43.75555" lon="6.59293">
        <ele>1024.42</ele>
        <time>2026-05-17T10:03:50Z</time>
      </trkpt>
      <trkpt lat="43.75561" lon="6.59301">
        <ele>1022.98</ele>
        <time>2026-05-17T10:03:56Z</time>
      </trkpt>
      <trkpt lat="43.75575" lon="6.59325">
        <ele>1020.1</ele>
        <time>2026-05-17T10:04:13Z</time>
      </trkpt>
      <trkpt lat="43.75586" lon="6.59351">
        <ele>1018.17</ele>
        <time>2026-05-17T10:04:29Z</time>
      </trkpt>
      <trkpt lat="43.75595" lon="6.5938">
        <ele>1015.77</ele>
        <time>2026-05-17T10:04:47Z</time>
      </trkpt>
      <trkpt lat="43.75603" lon="6.59398">
        <ele>1014.33</ele>
        <time>2026-05-17T10:04:59Z</time>
      </trkpt>
      <trkpt lat="43.75606" lon="6.59401">
        <ele>1013.37</ele>
        <time>2026-05-17T10:05:02Z</time>
      </trkpt>
      <trkpt lat="43.75604" lon="6.59376">
        <ele>1011.93</ele>
        <time>2026-05-17T10:05:19Z</time>
      </trkpt>
      <trkpt lat="43.75604" lon="6.59349">
        <ele>1008.56</ele>
        <time>2026-05-17T10:05:34Z</time>
      </trkpt>
      <trkpt lat="43.75603" lon="6.59334">
        <ele>1008.08</ele>
        <time>2026-05-17T10:05:43Z</time>
      </trkpt>
      <trkpt lat="43.75602" lon="6.59328">
        <ele>1007.12</ele>
        <time>2026-05-17T10:05:47Z</time>
      </trkpt>
      <trkpt lat="43.756" lon="6.59294">
        <ele>1003.75</ele>
        <time>2026-05-17T10:06:06Z</time>
      </trkpt>
      <trkpt lat="43.75598" lon="6.5928">
        <ele>1002.79</ele>
        <time>2026-05-17T10:06:14Z</time>
      </trkpt>
      <trkpt lat="43.75595" lon="6.59254">
        <ele>1000.39</ele>
        <time>2026-05-17T10:06:30Z</time>
      </trkpt>
      <trkpt lat="43.75593" lon="6.59247">
        <ele>999.91</ele>
        <time>2026-05-17T10:06:34Z</time>
      </trkpt>
      <trkpt lat="43.75587" lon="6.59219">
        <ele>997.02</ele>
        <time>2026-05-17T10:06:51Z</time>
      </trkpt>
      <trkpt lat="43.75582" lon="6.59187">
        <ele>994.62</ele>
        <time>2026-05-17T10:07:09Z</time>
      </trkpt>
      <trkpt lat="43.75581" lon="6.59172">
        <ele>993.18</ele>
        <time>2026-05-17T10:07:19Z</time>
      </trkpt>
      <trkpt lat="43.75584" lon="6.59144">
        <ele>991.26</ele>
        <time>2026-05-17T10:07:35Z</time>
      </trkpt>
      <trkpt lat="43.75584" lon="6.59131">
        <ele>989.33</ele>
        <time>2026-05-17T10:07:44Z</time>
      </trkpt>
      <trkpt lat="43.75583" lon="6.59123">
        <ele>988.37</ele>
        <time>2026-05-17T10:07:49Z</time>
      </trkpt>
      <trkpt lat="43.75583" lon="6.59113">
        <ele>987.41</ele>
        <time>2026-05-17T10:07:54Z</time>
      </trkpt>
      <trkpt lat="43.75583" lon="6.5911">
        <ele>986.93</ele>
        <time>2026-05-17T10:07:56Z</time>
      </trkpt>
      <trkpt lat="43.75583" lon="6.59102">
        <ele>985.97</ele>
        <time>2026-05-17T10:08:00Z</time>
      </trkpt>
      <trkpt lat="43.75583" lon="6.59091">
        <ele>984.53</ele>
        <time>2026-05-17T10:08:06Z</time>
      </trkpt>
      <trkpt lat="43.75585" lon="6.59078">
        <ele>983.57</ele>
        <time>2026-05-17T10:08:14Z</time>
      </trkpt>
      <trkpt lat="43.75584" lon="6.59074">
        <ele>983.09</ele>
        <time>2026-05-17T10:08:17Z</time>
      </trkpt>
      <trkpt lat="43.75584" lon="6.59068">
        <ele>982.12</ele>
        <time>2026-05-17T10:08:20Z</time>
      </trkpt>
      <trkpt lat="43.75586" lon="6.59054">
        <ele>980.2</ele>
        <time>2026-05-17T10:08:29Z</time>
      </trkpt>
      <trkpt lat="43.75586" lon="6.59044">
        <ele>978.28</ele>
        <time>2026-05-17T10:08:36Z</time>
      </trkpt>
      <trkpt lat="43.75592" lon="6.59018">
        <ele>975.39</ele>
        <time>2026-05-17T10:08:54Z</time>
      </trkpt>
      <trkpt lat="43.75594" lon="6.59001">
        <ele>972.03</ele>
        <time>2026-05-17T10:09:08Z</time>
      </trkpt>
      <trkpt lat="43.75603" lon="6.58984">
        <ele>970.59</ele>
        <time>2026-05-17T10:09:22Z</time>
      </trkpt>
      <trkpt lat="43.75612" lon="6.58968">
        <ele>970.11</ele>
        <time>2026-05-17T10:09:36Z</time>
      </trkpt>
      <trkpt lat="43.75616" lon="6.58953">
        <ele>968.67</ele>
        <time>2026-05-17T10:09:51Z</time>
      </trkpt>
      <trkpt lat="43.75629" lon="6.58931">
        <ele>967.7</ele>
        <time>2026-05-17T10:10:08Z</time>
      </trkpt>
      <trkpt lat="43.75632" lon="6.58918">
        <ele>968.18</ele>
        <time>2026-05-17T10:10:15Z</time>
      </trkpt>
      <trkpt lat="43.75633" lon="6.58886">
        <ele>966.74</ele>
        <time>2026-05-17T10:10:30Z</time>
      </trkpt>
      <trkpt lat="43.75632" lon="6.58883">
        <ele>966.26</ele>
        <time>2026-05-17T10:10:32Z</time>
      </trkpt>
      <trkpt lat="43.75634" lon="6.58865">
        <ele>965.3</ele>
        <time>2026-05-17T10:10:45Z</time>
      </trkpt>
      <trkpt lat="43.75644" lon="6.58854">
        <ele>964.34</ele>
        <time>2026-05-17T10:10:58Z</time>
      </trkpt>
      <trkpt lat="43.75647" lon="6.58852">
        <ele>963.86</ele>
        <time>2026-05-17T10:11:02Z</time>
      </trkpt>
      <trkpt lat="43.75665" lon="6.5884">
        <ele>961.46</ele>
        <time>2026-05-17T10:11:19Z</time>
      </trkpt>
      <trkpt lat="43.75671" lon="6.58834">
        <ele>960.49</ele>
        <time>2026-05-17T10:11:25Z</time>
      </trkpt>
      <trkpt lat="43.7569" lon="6.58813">
        <ele>959.05</ele>
        <time>2026-05-17T10:11:42Z</time>
      </trkpt>
      <trkpt lat="43.75708" lon="6.58794">
        <ele>956.65</ele>
        <time>2026-05-17T10:11:59Z</time>
      </trkpt>
      <trkpt lat="43.75727" lon="6.58775">
        <ele>953.77</ele>
        <time>2026-05-17T10:12:18Z</time>
      </trkpt>
      <trkpt lat="43.75744" lon="6.58762">
        <ele>951.84</ele>
        <time>2026-05-17T10:12:33Z</time>
      </trkpt>
      <trkpt lat="43.75758" lon="6.5874">
        <ele>949.44</ele>
        <time>2026-05-17T10:12:48Z</time>
      </trkpt>
      <trkpt lat="43.75777" lon="6.58721">
        <ele>948.48</ele>
        <time>2026-05-17T10:13:04Z</time>
      </trkpt>
      <trkpt lat="43.75804" lon="6.58715">
        <ele>945.59</ele>
        <time>2026-05-17T10:13:24Z</time>
      </trkpt>
      <trkpt lat="43.75823" lon="6.58726">
        <ele>944.15</ele>
        <time>2026-05-17T10:13:44Z</time>
      </trkpt>
      <trkpt lat="43.75836" lon="6.58747">
        <ele>942.23</ele>
        <time>2026-05-17T10:14:04Z</time>
      </trkpt>
      <trkpt lat="43.75848" lon="6.58763">
        <ele>940.79</ele>
        <time>2026-05-17T10:14:18Z</time>
      </trkpt>
      <trkpt lat="43.75861" lon="6.58784">
        <ele>940.31</ele>
        <time>2026-05-17T10:14:37Z</time>
      </trkpt>
      <trkpt lat="43.7586" lon="6.58789">
        <ele>940.31</ele>
        <time>2026-05-17T10:14:41Z</time>
      </trkpt>
      <trkpt lat="43.75866" lon="6.58798">
        <ele>940.31</ele>
        <time>2026-05-17T10:14:55Z</time>
      </trkpt>
      <trkpt lat="43.75866" lon="6.58798">
        <ele>940.31</ele>
        <time>2026-05-17T10:14:58Z</time>
      </trkpt>
      <trkpt lat="43.75859" lon="6.5881">
        <ele>941.75</ele>
        <time>2026-05-17T10:15:15Z</time>
      </trkpt>
      <trkpt lat="43.75849" lon="6.58827">
        <ele>942.71</ele>
        <time>2026-05-17T10:15:30Z</time>
      </trkpt>
      <trkpt lat="43.75845" lon="6.58839">
        <ele>944.15</ele>
        <time>2026-05-17T10:15:44Z</time>
      </trkpt>
      <trkpt lat="43.75841" lon="6.5886">
        <ele>945.11</ele>
        <time>2026-05-17T10:16:00Z</time>
      </trkpt>
      <trkpt lat="43.75838" lon="6.58884">
        <ele>946.07</ele>
        <time>2026-05-17T10:16:15Z</time>
      </trkpt>
      <trkpt lat="43.75835" lon="6.58908">
        <ele>946.07</ele>
        <time>2026-05-17T10:16:30Z</time>
      </trkpt>
      <trkpt lat="43.75828" lon="6.58929">
        <ele>946.56</ele>
        <time>2026-05-17T10:16:46Z</time>
      </trkpt>
      <trkpt lat="43.75828" lon="6.5893">
        <ele>946.56</ele>
        <time>2026-05-17T10:16:47Z</time>
      </trkpt>
      <trkpt lat="43.75825" lon="6.58937">
        <ele>946.56</ele>
        <time>2026-05-17T10:16:53Z</time>
      </trkpt>
      <trkpt lat="43.75823" lon="6.58946">
        <ele>946.56</ele>
        <time>2026-05-17T10:16:58Z</time>
      </trkpt>
      <trkpt lat="43.75814" lon="6.5897">
        <ele>947.04</ele>
        <time>2026-05-17T10:17:13Z</time>
      </trkpt>
      <trkpt lat="43.7581" lon="6.59002">
        <ele>948.48</ele>
        <time>2026-05-17T10:17:32Z</time>
      </trkpt>
      <trkpt lat="43.75804" lon="6.59023">
        <ele>949.44</ele>
        <time>2026-05-17T10:17:48Z</time>
      </trkpt>
      <trkpt lat="43.75803" lon="6.59027">
        <ele>949.92</ele>
        <time>2026-05-17T10:18:10Z</time>
      </trkpt>
      <trkpt lat="43.75803" lon="6.59038">
        <ele>950.4</ele>
        <time>2026-05-17T10:18:35Z</time>
      </trkpt>
      <trkpt lat="43.75792" lon="6.59046">
        <ele>950.88</ele>
        <time>2026-05-17T10:18:48Z</time>
      </trkpt>
      <trkpt lat="43.75776" lon="6.59058">
        <ele>951.36</ele>
        <time>2026-05-17T10:19:05Z</time>
      </trkpt>
      <trkpt lat="43.75774" lon="6.5906">
        <ele>951.84</ele>
        <time>2026-05-17T10:19:07Z</time>
      </trkpt>
      <trkpt lat="43.75768" lon="6.59063">
        <ele>952.32</ele>
        <time>2026-05-17T10:19:15Z</time>
      </trkpt>
      <trkpt lat="43.75753" lon="6.59072">
        <ele>952.32</ele>
        <time>2026-05-17T10:19:30Z</time>
      </trkpt>
      <trkpt lat="43.75737" lon="6.59082">
        <ele>953.28</ele>
        <time>2026-05-17T10:19:44Z</time>
      </trkpt>
      <trkpt lat="43.75723" lon="6.59094">
        <ele>954.25</ele>
        <time>2026-05-17T10:19:59Z</time>
      </trkpt>
      <trkpt lat="43.75715" lon="6.59104">
        <ele>954.73</ele>
        <time>2026-05-17T10:20:13Z</time>
      </trkpt>
      <trkpt lat="43.75715" lon="6.59109">
        <ele>955.21</ele>
        <time>2026-05-17T10:20:20Z</time>
      </trkpt>
      <trkpt lat="43.75717" lon="6.59114">
        <ele>953.77</ele>
        <time>2026-05-17T10:20:24Z</time>
      </trkpt>
      <trkpt lat="43.75719" lon="6.59119">
        <ele>953.28</ele>
        <time>2026-05-17T10:20:39Z</time>
      </trkpt>
      <trkpt lat="43.75715" lon="6.5912">
        <ele>953.28</ele>
        <time>2026-05-17T10:20:42Z</time>
      </trkpt>
      <trkpt lat="43.75714" lon="6.59121">
        <ele>953.28</ele>
        <time>2026-05-17T10:20:44Z</time>
      </trkpt>
      <trkpt lat="43.7571" lon="6.59125">
        <ele>954.73</ele>
        <time>2026-05-17T10:20:49Z</time>
      </trkpt>
      <trkpt lat="43.75701" lon="6.59144">
        <ele>955.21</ele>
        <time>2026-05-17T10:21:06Z</time>
      </trkpt>
      <trkpt lat="43.75697" lon="6.5917">
        <ele>957.61</ele>
        <time>2026-05-17T10:21:23Z</time>
      </trkpt>
      <trkpt lat="43.75696" lon="6.59182">
        <ele>958.57</ele>
        <time>2026-05-17T10:21:32Z</time>
      </trkpt>
      <trkpt lat="43.75695" lon="6.59202">
        <ele>960.49</ele>
        <time>2026-05-17T10:21:45Z</time>
      </trkpt>
      <trkpt lat="43.75697" lon="6.59225">
        <ele>961.46</ele>
        <time>2026-05-17T10:22:01Z</time>
      </trkpt>
      <trkpt lat="43.75699" lon="6.59246">
        <ele>961.94</ele>
        <time>2026-05-17T10:22:17Z</time>
      </trkpt>
      <trkpt lat="43.75698" lon="6.59247">
        <ele>962.42</ele>
        <time>2026-05-17T10:22:22Z</time>
      </trkpt>
      <trkpt lat="43.75703" lon="6.59246">
        <ele>962.9</ele>
        <time>2026-05-17T10:22:35Z</time>
      </trkpt>
      <trkpt lat="43.75704" lon="6.59246">
        <ele>962.9</ele>
        <time>2026-05-17T10:22:36Z</time>
      </trkpt>
      <trkpt lat="43.75702" lon="6.59258">
        <ele>962.9</ele>
        <time>2026-05-17T10:22:53Z</time>
      </trkpt>
      <trkpt lat="43.75701" lon="6.59275">
        <ele>963.38</ele>
        <time>2026-05-17T10:23:09Z</time>
      </trkpt>
      <trkpt lat="43.75705" lon="6.593">
        <ele>964.82</ele>
        <time>2026-05-17T10:23:26Z</time>
      </trkpt>
      <trkpt lat="43.75708" lon="6.59322">
        <ele>966.26</ele>
        <time>2026-05-17T10:23:40Z</time>
      </trkpt>
      <trkpt lat="43.7571" lon="6.59341">
        <ele>967.7</ele>
        <time>2026-05-17T10:23:53Z</time>
      </trkpt>
      <trkpt lat="43.75713" lon="6.5936">
        <ele>969.15</ele>
        <time>2026-05-17T10:24:08Z</time>
      </trkpt>
      <trkpt lat="43.75714" lon="6.59368">
        <ele>970.59</ele>
        <time>2026-05-17T10:24:14Z</time>
      </trkpt>
      <trkpt lat="43.75715" lon="6.59391">
        <ele>972.99</ele>
        <time>2026-05-17T10:24:29Z</time>
      </trkpt>
      <trkpt lat="43.75716" lon="6.59412">
        <ele>975.88</ele>
        <time>2026-05-17T10:24:45Z</time>
      </trkpt>
      <trkpt lat="43.75717" lon="6.59429">
        <ele>977.8</ele>
        <time>2026-05-17T10:24:59Z</time>
      </trkpt>
      <trkpt lat="43.75716" lon="6.59453">
        <ele>979.24</ele>
        <time>2026-05-17T10:25:14Z</time>
      </trkpt>
      <trkpt lat="43.75717" lon="6.59466">
        <ele>980.2</ele>
        <time>2026-05-17T10:25:22Z</time>
      </trkpt>
      <trkpt lat="43.75719" lon="6.59474">
        <ele>980.68</ele>
        <time>2026-05-17T10:25:39Z</time>
      </trkpt>
      <trkpt lat="43.75718" lon="6.59498">
        <ele>982.12</ele>
        <time>2026-05-17T10:25:54Z</time>
      </trkpt>
      <trkpt lat="43.75718" lon="6.59516">
        <ele>982.6</ele>
        <time>2026-05-17T10:26:07Z</time>
      </trkpt>
      <trkpt lat="43.75715" lon="6.59542">
        <ele>984.53</ele>
        <time>2026-05-17T10:26:24Z</time>
      </trkpt>
      <trkpt lat="43.75717" lon="6.59555">
        <ele>985.49</ele>
        <time>2026-05-17T10:26:33Z</time>
      </trkpt>
      <trkpt lat="43.75719" lon="6.59579">
        <ele>986.93</ele>
        <time>2026-05-17T10:26:47Z</time>
      </trkpt>
      <trkpt lat="43.75721" lon="6.59601">
        <ele>987.89</ele>
        <time>2026-05-17T10:27:02Z</time>
      </trkpt>
      <trkpt lat="43.7572" lon="6.59605">
        <ele>987.89</ele>
        <time>2026-05-17T10:27:06Z</time>
      </trkpt>
      <trkpt lat="43.75721" lon="6.59611">
        <ele>989.33</ele>
        <time>2026-05-17T10:27:10Z</time>
      </trkpt>
      <trkpt lat="43.75725" lon="6.59636">
        <ele>990.78</ele>
        <time>2026-05-17T10:27:27Z</time>
      </trkpt>
      <trkpt lat="43.75729" lon="6.59663">
        <ele>991.74</ele>
        <time>2026-05-17T10:27:45Z</time>
      </trkpt>
      <trkpt lat="43.75731" lon="6.59675">
        <ele>992.7</ele>
        <time>2026-05-17T10:27:53Z</time>
      </trkpt>
      <trkpt lat="43.75736" lon="6.59703">
        <ele>993.66</ele>
        <time>2026-05-17T10:28:12Z</time>
      </trkpt>
      <trkpt lat="43.75743" lon="6.5973">
        <ele>994.62</ele>
        <time>2026-05-17T10:28:30Z</time>
      </trkpt>
      <trkpt lat="43.75746" lon="6.59753">
        <ele>996.54</ele>
        <time>2026-05-17T10:28:47Z</time>
      </trkpt>
      <trkpt lat="43.75747" lon="6.59772">
        <ele>997.99</ele>
        <time>2026-05-17T10:29:02Z</time>
      </trkpt>
      <trkpt lat="43.75752" lon="6.59799">
        <ele>999.91</ele>
        <time>2026-05-17T10:29:20Z</time>
      </trkpt>
      <trkpt lat="43.75754" lon="6.59805">
        <ele>999.91</ele>
        <time>2026-05-17T10:29:33Z</time>
      </trkpt>
      <trkpt lat="43.75757" lon="6.59816">
        <ele>1000.39</ele>
        <time>2026-05-17T10:29:55Z</time>
      </trkpt>
      <trkpt lat="43.75757" lon="6.5984">
        <ele>1001.83</ele>
        <time>2026-05-17T10:30:11Z</time>
      </trkpt>
      <trkpt lat="43.75757" lon="6.59857">
        <ele>1004.23</ele>
        <time>2026-05-17T10:30:26Z</time>
      </trkpt>
      <trkpt lat="43.75758" lon="6.59877">
        <ele>1005.2</ele>
        <time>2026-05-17T10:30:40Z</time>
      </trkpt>
      <trkpt lat="43.75758" lon="6.59891">
        <ele>1005.68</ele>
        <time>2026-05-17T10:30:49Z</time>
      </trkpt>
      <trkpt lat="43.75761" lon="6.59913">
        <ele>1006.64</ele>
        <time>2026-05-17T10:31:04Z</time>
      </trkpt>
      <trkpt lat="43.75762" lon="6.59932">
        <ele>1007.6</ele>
        <time>2026-05-17T10:31:19Z</time>
      </trkpt>
      <trkpt lat="43.75762" lon="6.59933">
        <ele>1007.6</ele>
        <time>2026-05-17T10:31:20Z</time>
      </trkpt>
      <trkpt lat="43.75762" lon="6.59955">
        <ele>1008.56</ele>
        <time>2026-05-17T10:31:35Z</time>
      </trkpt>
      <trkpt lat="43.75765" lon="6.59981">
        <ele>1010.48</ele>
        <time>2026-05-17T10:31:52Z</time>
      </trkpt>
      <trkpt lat="43.75765" lon="6.5999">
        <ele>1011.44</ele>
        <time>2026-05-17T10:31:58Z</time>
      </trkpt>
      <trkpt lat="43.75767" lon="6.59995">
        <ele>1011.93</ele>
        <time>2026-05-17T10:32:12Z</time>
      </trkpt>
      <trkpt lat="43.75769" lon="6.60006">
        <ele>1012.41</ele>
        <time>2026-05-17T10:32:26Z</time>
      </trkpt>
      <trkpt lat="43.75771" lon="6.60028">
        <ele>1013.85</ele>
        <time>2026-05-17T10:32:42Z</time>
      </trkpt>
      <trkpt lat="43.75774" lon="6.60046">
        <ele>1015.77</ele>
        <time>2026-05-17T10:32:57Z</time>
      </trkpt>
      <trkpt lat="43.75781" lon="6.60069">
        <ele>1017.69</ele>
        <time>2026-05-17T10:33:15Z</time>
      </trkpt>
      <trkpt lat="43.75783" lon="6.60088">
        <ele>1020.1</ele>
        <time>2026-05-17T10:33:31Z</time>
      </trkpt>
      <trkpt lat="43.75788" lon="6.60105">
        <ele>1022.02</ele>
        <time>2026-05-17T10:33:45Z</time>
      </trkpt>
      <trkpt lat="43.75792" lon="6.6012">
        <ele>1022.98</ele>
        <time>2026-05-17T10:33:59Z</time>
      </trkpt>
      <trkpt lat="43.75795" lon="6.60134">
        <ele>1024.9</ele>
        <time>2026-05-17T10:34:12Z</time>
      </trkpt>
      <trkpt lat="43.75803" lon="6.60148">
        <ele>1026.34</ele>
        <time>2026-05-17T10:34:23Z</time>
      </trkpt>
      <trkpt lat="43.75807" lon="6.60169">
        <ele>1028.27</ele>
        <time>2026-05-17T10:34:39Z</time>
      </trkpt>
      <trkpt lat="43.75811" lon="6.60182">
        <ele>1029.71</ele>
        <time>2026-05-17T10:34:54Z</time>
      </trkpt>
      <trkpt lat="43.75811" lon="6.60184">
        <ele>1029.71</ele>
        <time>2026-05-17T10:35:17Z</time>
      </trkpt>
      <trkpt lat="43.75813" lon="6.60196">
        <ele>1030.19</ele>
        <time>2026-05-17T10:35:29Z</time>
      </trkpt>
      <trkpt lat="43.75812" lon="6.60202">
        <ele>1030.67</ele>
        <time>2026-05-17T10:35:35Z</time>
      </trkpt>
      <trkpt lat="43.75813" lon="6.60218">
        <ele>1033.07</ele>
        <time>2026-05-17T10:35:49Z</time>
      </trkpt>
      <trkpt lat="43.75816" lon="6.60226">
        <ele>1034.04</ele>
        <time>2026-05-17T10:36:03Z</time>
      </trkpt>
      <trkpt lat="43.75818" lon="6.60228">
        <ele>1034.04</ele>
        <time>2026-05-17T10:36:27Z</time>
      </trkpt>
      <trkpt lat="43.75819" lon="6.60228">
        <ele>1034.04</ele>
        <time>2026-05-17T10:36:54Z</time>
      </trkpt>
      <trkpt lat="43.75819" lon="6.60227">
        <ele>1034.04</ele>
        <time>2026-05-17T10:37:23Z</time>
      </trkpt>
      <trkpt lat="43.7582" lon="6.60229">
        <ele>1034.04</ele>
        <time>2026-05-17T10:37:51Z</time>
      </trkpt>
      <trkpt lat="43.7582" lon="6.60227">
        <ele>1034.04</ele>
        <time>2026-05-17T10:38:26Z</time>
      </trkpt>
      <trkpt lat="43.75822" lon="6.6023">
        <ele>1033.55</ele>
        <time>2026-05-17T10:39:02Z</time>
      </trkpt>
      <trkpt lat="43.75825" lon="6.60232">
        <ele>1033.55</ele>
        <time>2026-05-17T10:39:35Z</time>
      </trkpt>
      <trkpt lat="43.75822" lon="6.60239">
        <ele>1033.07</ele>
        <time>2026-05-17T10:40:04Z</time>
      </trkpt>
      <trkpt lat="43.75824" lon="6.6024">
        <ele>1031.15</ele>
        <time>2026-05-17T10:40:27Z</time>
      </trkpt>
      <trkpt lat="43.75827" lon="6.60231">
        <ele>1030.19</ele>
        <time>2026-05-17T10:40:41Z</time>
      </trkpt>
      <trkpt lat="43.75826" lon="6.60215">
        <ele>1027.79</ele>
        <time>2026-05-17T10:40:56Z</time>
      </trkpt>
      <trkpt lat="43.75826" lon="6.60214">
        <ele>1027.79</ele>
        <time>2026-05-17T10:40:57Z</time>
      </trkpt>
      <trkpt lat="43.75825" lon="6.60194">
        <ele>1026.34</ele>
        <time>2026-05-17T10:41:13Z</time>
      </trkpt>
      <trkpt lat="43.75823" lon="6.60177">
        <ele>1024.9</ele>
        <time>2026-05-17T10:41:27Z</time>
      </trkpt>
      <trkpt lat="43.75821" lon="6.60159">
        <ele>1022.98</ele>
        <time>2026-05-17T10:41:41Z</time>
      </trkpt>
      <trkpt lat="43.7581" lon="6.60145">
        <ele>1022.5</ele>
        <time>2026-05-17T10:41:58Z</time>
      </trkpt>
      <trkpt lat="43.75812" lon="6.60127">
        <ele>1021.06</ele>
        <time>2026-05-17T10:42:12Z</time>
      </trkpt>
      <trkpt lat="43.75809" lon="6.60113">
        <ele>1018.65</ele>
        <time>2026-05-17T10:42:25Z</time>
      </trkpt>
      <trkpt lat="43.75806" lon="6.60104">
        <ele>1018.17</ele>
        <time>2026-05-17T10:42:32Z</time>
      </trkpt>
      <trkpt lat="43.75803" lon="6.60081">
        <ele>1015.77</ele>
        <time>2026-05-17T10:42:48Z</time>
      </trkpt>
      <trkpt lat="43.75801" lon="6.60076">
        <ele>1015.29</ele>
        <time>2026-05-17T10:42:52Z</time>
      </trkpt>
      <trkpt lat="43.758" lon="6.60073">
        <ele>1015.29</ele>
        <time>2026-05-17T10:42:54Z</time>
      </trkpt>
      <trkpt lat="43.75795" lon="6.60052">
        <ele>1013.85</ele>
        <time>2026-05-17T10:43:08Z</time>
      </trkpt>
      <trkpt lat="43.75792" lon="6.60038">
        <ele>1012.41</ele>
        <time>2026-05-17T10:43:16Z</time>
      </trkpt>
      <trkpt lat="43.75791" lon="6.60031">
        <ele>1012.41</ele>
        <time>2026-05-17T10:43:21Z</time>
      </trkpt>
      <trkpt lat="43.75789" lon="6.60022">
        <ele>1011.93</ele>
        <time>2026-05-17T10:43:26Z</time>
      </trkpt>
      <trkpt lat="43.75786" lon="6.60003">
        <ele>1010.96</ele>
        <time>2026-05-17T10:43:36Z</time>
      </trkpt>
      <trkpt lat="43.75785" lon="6.5998">
        <ele>1009.52</ele>
        <time>2026-05-17T10:43:51Z</time>
      </trkpt>
      <trkpt lat="43.75783" lon="6.5996">
        <ele>1008.56</ele>
        <time>2026-05-17T10:44:04Z</time>
      </trkpt>
      <trkpt lat="43.75784" lon="6.59955">
        <ele>1008.56</ele>
        <time>2026-05-17T10:44:06Z</time>
      </trkpt>
      <trkpt lat="43.75784" lon="6.59945">
        <ele>1008.08</ele>
        <time>2026-05-17T10:44:12Z</time>
      </trkpt>
      <trkpt lat="43.75781" lon="6.59914">
        <ele>1006.64</ele>
        <time>2026-05-17T10:44:28Z</time>
      </trkpt>
      <trkpt lat="43.7578" lon="6.59903">
        <ele>1006.64</ele>
        <time>2026-05-17T10:44:34Z</time>
      </trkpt>
      <trkpt lat="43.75779" lon="6.59896">
        <ele>1006.16</ele>
        <time>2026-05-17T10:44:39Z</time>
      </trkpt>
      <trkpt lat="43.75775" lon="6.59876">
        <ele>1004.23</ele>
        <time>2026-05-17T10:44:55Z</time>
      </trkpt>
      <trkpt lat="43.75772" lon="6.59871">
        <ele>1003.75</ele>
        <time>2026-05-17T10:45:16Z</time>
      </trkpt>
      <trkpt lat="43.75769" lon="6.59871">
        <ele>1003.75</ele>
        <time>2026-05-17T10:45:42Z</time>
      </trkpt>
      <trkpt lat="43.75767" lon="6.59862">
        <ele>1003.27</ele>
        <time>2026-05-17T10:46:01Z</time>
      </trkpt>
      <trkpt lat="43.7577" lon="6.59847">
        <ele>1002.31</ele>
        <time>2026-05-17T10:46:12Z</time>
      </trkpt>
      <trkpt lat="43.7577" lon="6.59839">
        <ele>1001.35</ele>
        <time>2026-05-17T10:46:17Z</time>
      </trkpt>
      <trkpt lat="43.75771" lon="6.59835">
        <ele>1000.87</ele>
        <time>2026-05-17T10:46:19Z</time>
      </trkpt>
      <trkpt lat="43.7577" lon="6.59825">
        <ele>1000.39</ele>
        <time>2026-05-17T10:46:24Z</time>
      </trkpt>
      <trkpt lat="43.75769" lon="6.59817">
        <ele>999.91</ele>
        <time>2026-05-17T10:46:28Z</time>
      </trkpt>
      <trkpt lat="43.75768" lon="6.59784">
        <ele>997.99</ele>
        <time>2026-05-17T10:46:46Z</time>
      </trkpt>
      <trkpt lat="43.75768" lon="6.5978">
        <ele>997.99</ele>
        <time>2026-05-17T10:46:48Z</time>
      </trkpt>
      <trkpt lat="43.75764" lon="6.59758">
        <ele>995.58</ele>
        <time>2026-05-17T10:47:00Z</time>
      </trkpt>
      <trkpt lat="43.75757" lon="6.5973">
        <ele>994.14</ele>
        <time>2026-05-17T10:47:15Z</time>
      </trkpt>
      <trkpt lat="43.75752" lon="6.59697">
        <ele>992.7</ele>
        <time>2026-05-17T10:47:32Z</time>
      </trkpt>
      <trkpt lat="43.75744" lon="6.59663">
        <ele>991.26</ele>
        <time>2026-05-17T10:47:50Z</time>
      </trkpt>
      <trkpt lat="43.75739" lon="6.59642">
        <ele>989.81</ele>
        <time>2026-05-17T10:48:02Z</time>
      </trkpt>
      <trkpt lat="43.75735" lon="6.59614">
        <ele>987.89</ele>
        <time>2026-05-17T10:48:18Z</time>
      </trkpt>
      <trkpt lat="43.75737" lon="6.59589">
        <ele>985.97</ele>
        <time>2026-05-17T10:48:34Z</time>
      </trkpt>
      <trkpt lat="43.75737" lon="6.59562">
        <ele>984.53</ele>
        <time>2026-05-17T10:48:50Z</time>
      </trkpt>
      <trkpt lat="43.75737" lon="6.5956">
        <ele>984.53</ele>
        <time>2026-05-17T10:48:51Z</time>
      </trkpt>
      <trkpt lat="43.75739" lon="6.5954">
        <ele>983.09</ele>
        <time>2026-05-17T10:49:02Z</time>
      </trkpt>
      <trkpt lat="43.75739" lon="6.59536">
        <ele>983.09</ele>
        <time>2026-05-17T10:49:04Z</time>
      </trkpt>
      <trkpt lat="43.7574" lon="6.59517">
        <ele>982.6</ele>
        <time>2026-05-17T10:49:16Z</time>
      </trkpt>
      <trkpt lat="43.7574" lon="6.5949">
        <ele>981.64</ele>
        <time>2026-05-17T10:49:31Z</time>
      </trkpt>
      <trkpt lat="43.75742" lon="6.59469">
        <ele>979.72</ele>
        <time>2026-05-17T10:49:42Z</time>
      </trkpt>
      <trkpt lat="43.75743" lon="6.5945">
        <ele>978.76</ele>
        <time>2026-05-17T10:49:54Z</time>
      </trkpt>
      <trkpt lat="43.75741" lon="6.59446">
        <ele>977.8</ele>
        <time>2026-05-17T10:49:56Z</time>
      </trkpt>
      <trkpt lat="43.75742" lon="6.59435">
        <ele>977.32</ele>
        <time>2026-05-17T10:50:01Z</time>
      </trkpt>
      <trkpt lat="43.75742" lon="6.59408">
        <ele>974.91</ele>
        <time>2026-05-17T10:50:15Z</time>
      </trkpt>
      <trkpt lat="43.75739" lon="6.59381">
        <ele>972.99</ele>
        <time>2026-05-17T10:50:29Z</time>
      </trkpt>
      <trkpt lat="43.75736" lon="6.59367">
        <ele>972.51</ele>
        <time>2026-05-17T10:50:35Z</time>
      </trkpt>
      <trkpt lat="43.75733" lon="6.59357">
        <ele>972.03</ele>
        <time>2026-05-17T10:50:41Z</time>
      </trkpt>
      <trkpt lat="43.75731" lon="6.59331">
        <ele>970.59</ele>
        <time>2026-05-17T10:50:56Z</time>
      </trkpt>
      <trkpt lat="43.75728" lon="6.59308">
        <ele>970.11</ele>
        <time>2026-05-17T10:51:09Z</time>
      </trkpt>
      <trkpt lat="43.75727" lon="6.59301">
        <ele>969.63</ele>
        <time>2026-05-17T10:51:13Z</time>
      </trkpt>
      <trkpt lat="43.75726" lon="6.5929">
        <ele>969.63</ele>
        <time>2026-05-17T10:51:19Z</time>
      </trkpt>
      <trkpt lat="43.7572" lon="6.5926">
        <ele>969.15</ele>
        <time>2026-05-17T10:51:34Z</time>
      </trkpt>
      <trkpt lat="43.75717" lon="6.59236">
        <ele>968.18</ele>
        <time>2026-05-17T10:51:47Z</time>
      </trkpt>
      <trkpt lat="43.75717" lon="6.5923">
        <ele>967.7</ele>
        <time>2026-05-17T10:51:51Z</time>
      </trkpt>
      <trkpt lat="43.75718" lon="6.59223">
        <ele>967.22</ele>
        <time>2026-05-17T10:51:55Z</time>
      </trkpt>
      <trkpt lat="43.75717" lon="6.59202">
        <ele>966.74</ele>
        <time>2026-05-17T10:52:04Z</time>
      </trkpt>
      <trkpt lat="43.75717" lon="6.59198">
        <ele>966.74</ele>
        <time>2026-05-17T10:52:06Z</time>
      </trkpt>
      <trkpt lat="43.75716" lon="6.59188">
        <ele>966.26</ele>
        <time>2026-05-17T10:52:11Z</time>
      </trkpt>
      <trkpt lat="43.75714" lon="6.59156">
        <ele>965.3</ele>
        <time>2026-05-17T10:52:25Z</time>
      </trkpt>
      <trkpt lat="43.75715" lon="6.59151">
        <ele>965.3</ele>
        <time>2026-05-17T10:52:28Z</time>
      </trkpt>
      <trkpt lat="43.75717" lon="6.59141">
        <ele>964.82</ele>
        <time>2026-05-17T10:52:34Z</time>
      </trkpt>
      <trkpt lat="43.75725" lon="6.5912">
        <ele>963.86</ele>
        <time>2026-05-17T10:52:51Z</time>
      </trkpt>
      <trkpt lat="43.75732" lon="6.5911">
        <ele>962.9</ele>
        <time>2026-05-17T10:53:06Z</time>
      </trkpt>
      <trkpt lat="43.75737" lon="6.591">
        <ele>961.94</ele>
        <time>2026-05-17T10:53:19Z</time>
      </trkpt>
      <trkpt lat="43.75746" lon="6.59091">
        <ele>961.94</ele>
        <time>2026-05-17T10:53:33Z</time>
      </trkpt>
      <trkpt lat="43.75755" lon="6.5908">
        <ele>961.46</ele>
        <time>2026-05-17T10:53:45Z</time>
      </trkpt>
      <trkpt lat="43.75767" lon="6.59066">
        <ele>961.46</ele>
        <time>2026-05-17T10:53:59Z</time>
      </trkpt>
      <trkpt lat="43.75784" lon="6.59048">
        <ele>961.46</ele>
        <time>2026-05-17T10:54:12Z</time>
      </trkpt>
      <trkpt lat="43.75787" lon="6.59033">
        <ele>960.98</ele>
        <time>2026-05-17T10:54:19Z</time>
      </trkpt>
      <trkpt lat="43.75791" lon="6.59023">
        <ele>961.46</ele>
        <time>2026-05-17T10:54:24Z</time>
      </trkpt>
      <trkpt lat="43.75797" lon="6.59012">
        <ele>961.46</ele>
        <time>2026-05-17T10:54:31Z</time>
      </trkpt>
      <trkpt lat="43.75803" lon="6.58989">
        <ele>960.98</ele>
        <time>2026-05-17T10:54:43Z</time>
      </trkpt>
      <trkpt lat="43.75817" lon="6.58967">
        <ele>961.46</ele>
        <time>2026-05-17T10:54:57Z</time>
      </trkpt>
      <trkpt lat="43.75825" lon="6.58954">
        <ele>960.98</ele>
        <time>2026-05-17T10:55:05Z</time>
      </trkpt>
      <trkpt lat="43.75831" lon="6.58945">
        <ele>961.46</ele>
        <time>2026-05-17T10:55:11Z</time>
      </trkpt>
      <trkpt lat="43.75835" lon="6.58939">
        <ele>961.46</ele>
        <time>2026-05-17T10:55:15Z</time>
      </trkpt>
      <trkpt lat="43.75839" lon="6.58926">
        <ele>961.46</ele>
        <time>2026-05-17T10:55:23Z</time>
      </trkpt>
      <trkpt lat="43.75839" lon="6.58921">
        <ele>961.46</ele>
        <time>2026-05-17T10:55:26Z</time>
      </trkpt>
      <trkpt lat="43.75838" lon="6.58915">
        <ele>961.46</ele>
        <time>2026-05-17T10:55:29Z</time>
      </trkpt>
      <trkpt lat="43.75852" lon="6.58902">
        <ele>961.94</ele>
        <time>2026-05-17T10:55:40Z</time>
      </trkpt>
      <trkpt lat="43.75855" lon="6.58874">
        <ele>961.46</ele>
        <time>2026-05-17T10:55:53Z</time>
      </trkpt>
      <trkpt lat="43.75855" lon="6.5886">
        <ele>960.98</ele>
        <time>2026-05-17T10:56:00Z</time>
      </trkpt>
      <trkpt lat="43.75858" lon="6.58853">
        <ele>960.49</ele>
        <time>2026-05-17T10:56:05Z</time>
      </trkpt>
      <trkpt lat="43.75861" lon="6.58844">
        <ele>959.53</ele>
        <time>2026-05-17T10:56:12Z</time>
      </trkpt>
      <trkpt lat="43.75861" lon="6.58839">
        <ele>959.05</ele>
        <time>2026-05-17T10:56:15Z</time>
      </trkpt>
      <trkpt lat="43.75863" lon="6.58835">
        <ele>959.05</ele>
        <time>2026-05-17T10:56:18Z</time>
      </trkpt>
      <trkpt lat="43.75863" lon="6.5883">
        <ele>958.57</ele>
        <time>2026-05-17T10:56:21Z</time>
      </trkpt>
      <trkpt lat="43.75874" lon="6.58808">
        <ele>958.57</ele>
        <time>2026-05-17T10:56:33Z</time>
      </trkpt>
      <trkpt lat="43.75874" lon="6.58781">
        <ele>956.65</ele>
        <time>2026-05-17T10:56:50Z</time>
      </trkpt>
      <trkpt lat="43.75875" lon="6.58775">
        <ele>956.17</ele>
        <time>2026-05-17T10:57:01Z</time>
      </trkpt>
      <trkpt lat="43.75876" lon="6.58771">
        <ele>956.17</ele>
        <time>2026-05-17T10:57:14Z</time>
      </trkpt>
      <trkpt lat="43.75876" lon="6.58766">
        <ele>955.69</ele>
        <time>2026-05-17T10:57:26Z</time>
      </trkpt>
      <trkpt lat="43.75874" lon="6.58762">
        <ele>955.69</ele>
        <time>2026-05-17T10:57:37Z</time>
      </trkpt>
      <trkpt lat="43.75873" lon="6.58762">
        <ele>951.84</ele>
        <time>2026-05-17T10:57:44Z</time>
      </trkpt>
      <trkpt lat="43.75872" lon="6.58763">
        <ele>957.13</ele>
        <time>2026-05-17T10:57:45Z</time>
      </trkpt>
      <trkpt lat="43.75876" lon="6.58763">
        <ele>954.73</ele>
        <time>2026-05-17T10:57:59Z</time>
      </trkpt>
      <trkpt lat="43.75878" lon="6.58763">
        <ele>954.25</ele>
        <time>2026-05-17T10:58:27Z</time>
      </trkpt>
      <trkpt lat="43.75878" lon="6.58766">
        <ele>954.73</ele>
        <time>2026-05-17T10:58:57Z</time>
      </trkpt>
      <trkpt lat="43.75885" lon="6.5876">
        <ele>954.25</ele>
        <time>2026-05-17T10:59:31Z</time>
      </trkpt>
      <trkpt lat="43.75885" lon="6.58764">
        <ele>953.77</ele>
        <time>2026-05-17T10:59:58Z</time>
      </trkpt>
      <trkpt lat="43.75879" lon="6.58765">
        <ele>953.28</ele>
        <time>2026-05-17T11:00:27Z</time>
      </trkpt>
      <trkpt lat="43.75879" lon="6.58768">
        <ele>953.28</ele>
        <time>2026-05-17T11:01:02Z</time>
      </trkpt>
      <trkpt lat="43.75878" lon="6.5877">
        <ele>954.25</ele>
        <time>2026-05-17T11:01:33Z</time>
      </trkpt>
      <trkpt lat="43.75873" lon="6.58768">
        <ele>954.25</ele>
        <time>2026-05-17T11:02:04Z</time>
      </trkpt>
      <trkpt lat="43.75871" lon="6.58761">
        <ele>953.77</ele>
        <time>2026-05-17T11:02:36Z</time>
      </trkpt>
      <trkpt lat="43.75871" lon="6.58762">
        <ele>952.8</ele>
        <time>2026-05-17T11:02:39Z</time>
      </trkpt>
      <trkpt lat="43.75873" lon="6.5876">
        <ele>953.28</ele>
        <time>2026-05-17T11:03:07Z</time>
      </trkpt>
      <trkpt lat="43.75874" lon="6.58761">
        <ele>953.28</ele>
        <time>2026-05-17T11:03:39Z</time>
      </trkpt>
      <trkpt lat="43.75872" lon="6.58758">
        <ele>952.8</ele>
        <time>2026-05-17T11:04:13Z</time>
      </trkpt>
      <trkpt lat="43.75878" lon="6.58754">
        <ele>952.8</ele>
        <time>2026-05-17T11:04:44Z</time>
      </trkpt>
      <trkpt lat="43.75877" lon="6.58755">
        <ele>952.32</ele>
        <time>2026-05-17T11:05:15Z</time>
      </trkpt>
      <trkpt lat="43.75873" lon="6.58757">
        <ele>951.84</ele>
        <time>2026-05-17T11:05:51Z</time>
      </trkpt>
      <trkpt lat="43.75872" lon="6.58757">
        <ele>951.84</ele>
        <time>2026-05-17T11:06:32Z</time>
      </trkpt>
      <trkpt lat="43.75874" lon="6.58756">
        <ele>951.36</ele>
        <time>2026-05-17T11:07:04Z</time>
      </trkpt>
      <trkpt lat="43.75876" lon="6.58756">
        <ele>950.88</ele>
        <time>2026-05-17T11:07:37Z</time>
      </trkpt>
      <trkpt lat="43.75879" lon="6.58754">
        <ele>950.88</ele>
        <time>2026-05-17T11:08:15Z</time>
      </trkpt>
      <trkpt lat="43.75875" lon="6.58759">
        <ele>950.4</ele>
        <time>2026-05-17T11:08:56Z</time>
      </trkpt>
      <trkpt lat="43.75875" lon="6.58756">
        <ele>949.92</ele>
        <time>2026-05-17T11:09:40Z</time>
      </trkpt>
      <trkpt lat="43.75879" lon="6.58756">
        <ele>949.44</ele>
        <time>2026-05-17T11:10:13Z</time>
      </trkpt>
      <trkpt lat="43.75875" lon="6.58759">
        <ele>949.44</ele>
        <time>2026-05-17T11:10:46Z</time>
      </trkpt>
      <trkpt lat="43.75873" lon="6.58756">
        <ele>948.96</ele>
        <time>2026-05-17T11:11:16Z</time>
      </trkpt>
      <trkpt lat="43.75875" lon="6.58758">
        <ele>947.52</ele>
        <time>2026-05-17T11:11:50Z</time>
      </trkpt>
      <trkpt lat="43.75873" lon="6.58755">
        <ele>947.52</ele>
        <time>2026-05-17T11:12:22Z</time>
      </trkpt>
      <trkpt lat="43.75874" lon="6.58751">
        <ele>947.52</ele>
        <time>2026-05-17T11:12:56Z</time>
      </trkpt>
      <trkpt lat="43.75875" lon="6.58755">
        <ele>947.04</ele>
        <time>2026-05-17T11:13:30Z</time>
      </trkpt>
      <trkpt lat="43.75874" lon="6.58761">
        <ele>947.04</ele>
        <time>2026-05-17T11:14:04Z</time>
      </trkpt>
      <trkpt lat="43.75872" lon="6.58762">
        <ele>948</ele>
        <time>2026-05-17T11:14:35Z</time>
      </trkpt>
      <trkpt lat="43.75878" lon="6.58759">
        <ele>948.96</ele>
        <time>2026-05-17T11:14:49Z</time>
      </trkpt>
      <trkpt lat="43.75883" lon="6.58751">
        <ele>949.44</ele>
        <time>2026-05-17T11:15:02Z</time>
      </trkpt>
      <trkpt lat="43.75882" lon="6.58744">
        <ele>949.44</ele>
        <time>2026-05-17T11:15:22Z</time>
      </trkpt>
      <trkpt lat="43.75874" lon="6.58741">
        <ele>948</ele>
        <time>2026-05-17T11:15:53Z</time>
      </trkpt>
      <trkpt lat="43.75875" lon="6.58742">
        <ele>947.04</ele>
        <time>2026-05-17T11:16:24Z</time>
      </trkpt>
      <trkpt lat="43.75881" lon="6.58745">
        <ele>948</ele>
        <time>2026-05-17T11:16:36Z</time>
      </trkpt>
      <trkpt lat="43.75894" lon="6.58732">
        <ele>948.48</ele>
        <time>2026-05-17T11:16:53Z</time>
      </trkpt>
      <trkpt lat="43.75897" lon="6.58712">
        <ele>948.48</ele>
        <time>2026-05-17T11:17:08Z</time>
      </trkpt>
      <trkpt lat="43.75897" lon="6.58702">
        <ele>948.48</ele>
        <time>2026-05-17T11:17:15Z</time>
      </trkpt>
      <trkpt lat="43.75897" lon="6.58691">
        <ele>947.04</ele>
        <time>2026-05-17T11:17:21Z</time>
      </trkpt>
      <trkpt lat="43.75896" lon="6.58662">
        <ele>946.07</ele>
        <time>2026-05-17T11:17:39Z</time>
      </trkpt>
      <trkpt lat="43.75897" lon="6.5866">
        <ele>946.07</ele>
        <time>2026-05-17T11:17:52Z</time>
      </trkpt>
      <trkpt lat="43.75896" lon="6.58658">
        <ele>946.07</ele>
        <time>2026-05-17T11:18:03Z</time>
      </trkpt>
      <trkpt lat="43.75897" lon="6.58658">
        <ele>945.59</ele>
        <time>2026-05-17T11:18:15Z</time>
      </trkpt>
      <trkpt lat="43.75897" lon="6.58656">
        <ele>945.59</ele>
        <time>2026-05-17T11:18:26Z</time>
      </trkpt>
      <trkpt lat="43.75898" lon="6.58654">
        <ele>945.59</ele>
        <time>2026-05-17T11:18:41Z</time>
      </trkpt>
      <trkpt lat="43.75899" lon="6.58649">
        <ele>945.59</ele>
        <time>2026-05-17T11:18:51Z</time>
      </trkpt>
      <trkpt lat="43.759" lon="6.58648">
        <ele>945.11</ele>
        <time>2026-05-17T11:18:59Z</time>
      </trkpt>
      <trkpt lat="43.75904" lon="6.58647">
        <ele>945.59</ele>
        <time>2026-05-17T11:19:05Z</time>
      </trkpt>
      <trkpt lat="43.75904" lon="6.58642">
        <ele>946.56</ele>
        <time>2026-05-17T11:19:09Z</time>
      </trkpt>
      <trkpt lat="43.75912" lon="6.58636">
        <ele>946.56</ele>
        <time>2026-05-17T11:19:20Z</time>
      </trkpt>
      <trkpt lat="43.75925" lon="6.58625">
        <ele>947.52</ele>
        <time>2026-05-17T11:19:34Z</time>
      </trkpt>
      <trkpt lat="43.75928" lon="6.58614">
        <ele>947.52</ele>
        <time>2026-05-17T11:19:42Z</time>
      </trkpt>
      <trkpt lat="43.75937" lon="6.58596">
        <ele>947.52</ele>
        <time>2026-05-17T11:19:55Z</time>
      </trkpt>
      <trkpt lat="43.75939" lon="6.5857">
        <ele>947.52</ele>
        <time>2026-05-17T11:20:12Z</time>
      </trkpt>
      <trkpt lat="43.75942" lon="6.58537">
        <ele>948</ele>
        <time>2026-05-17T11:20:30Z</time>
      </trkpt>
      <trkpt lat="43.75944" lon="6.58529">
        <ele>948</ele>
        <time>2026-05-17T11:20:46Z</time>
      </trkpt>
      <trkpt lat="43.75946" lon="6.58525">
        <ele>948</ele>
        <time>2026-05-17T11:20:52Z</time>
      </trkpt>
      <trkpt lat="43.75951" lon="6.58502">
        <ele>948</ele>
        <time>2026-05-17T11:21:08Z</time>
      </trkpt>
      <trkpt lat="43.75953" lon="6.58471">
        <ele>948</ele>
        <time>2026-05-17T11:21:26Z</time>
      </trkpt>
      <trkpt lat="43.75952" lon="6.58438">
        <ele>948</ele>
        <time>2026-05-17T11:21:44Z</time>
      </trkpt>
      <trkpt lat="43.75946" lon="6.58413">
        <ele>946.07</ele>
        <time>2026-05-17T11:21:58Z</time>
      </trkpt>
      <trkpt lat="43.75948" lon="6.5839">
        <ele>946.07</ele>
        <time>2026-05-17T11:22:13Z</time>
      </trkpt>
      <trkpt lat="43.75956" lon="6.58348">
        <ele>946.07</ele>
        <time>2026-05-17T11:22:37Z</time>
      </trkpt>
      <trkpt lat="43.75957" lon="6.58343">
        <ele>947.52</ele>
        <time>2026-05-17T11:22:40Z</time>
      </trkpt>
      <trkpt lat="43.75957" lon="6.58329">
        <ele>948.96</ele>
        <time>2026-05-17T11:22:49Z</time>
      </trkpt>
      <trkpt lat="43.75964" lon="6.5831">
        <ele>948.96</ele>
        <time>2026-05-17T11:23:04Z</time>
      </trkpt>
      <trkpt lat="43.75967" lon="6.58304">
        <ele>948.96</ele>
        <time>2026-05-17T11:23:14Z</time>
      </trkpt>
      <trkpt lat="43.75968" lon="6.58298">
        <ele>948.96</ele>
        <time>2026-05-17T11:23:18Z</time>
      </trkpt>
      <trkpt lat="43.75963" lon="6.58281">
        <ele>949.44</ele>
        <time>2026-05-17T11:23:35Z</time>
      </trkpt>
      <trkpt lat="43.75961" lon="6.58281">
        <ele>948.96</ele>
        <time>2026-05-17T11:23:44Z</time>
      </trkpt>
      <trkpt lat="43.75953" lon="6.58283">
        <ele>947.52</ele>
        <time>2026-05-17T11:23:57Z</time>
      </trkpt>
      <trkpt lat="43.7595" lon="6.58286">
        <ele>947.04</ele>
        <time>2026-05-17T11:24:01Z</time>
      </trkpt>
      <trkpt lat="43.75935" lon="6.58276">
        <ele>947.04</ele>
        <time>2026-05-17T11:24:16Z</time>
      </trkpt>
      <trkpt lat="43.75929" lon="6.58269">
        <ele>946.56</ele>
        <time>2026-05-17T11:24:24Z</time>
      </trkpt>
      <trkpt lat="43.75926" lon="6.58268">
        <ele>946.07</ele>
        <time>2026-05-17T11:24:28Z</time>
      </trkpt>
      <trkpt lat="43.75922" lon="6.58262">
        <ele>944.15</ele>
        <time>2026-05-17T11:24:36Z</time>
      </trkpt>
      <trkpt lat="43.75917" lon="6.58258">
        <ele>943.67</ele>
        <time>2026-05-17T11:24:40Z</time>
      </trkpt>
      <trkpt lat="43.75909" lon="6.58252">
        <ele>943.67</ele>
        <time>2026-05-17T11:24:47Z</time>
      </trkpt>
      <trkpt lat="43.75895" lon="6.58251">
        <ele>943.67</ele>
        <time>2026-05-17T11:25:01Z</time>
      </trkpt>
      <trkpt lat="43.75882" lon="6.58252">
        <ele>945.11</ele>
        <time>2026-05-17T11:25:14Z</time>
      </trkpt>
      <trkpt lat="43.75872" lon="6.58249">
        <ele>947.04</ele>
        <time>2026-05-17T11:25:28Z</time>
      </trkpt>
      <trkpt lat="43.75862" lon="6.58247">
        <ele>948.96</ele>
        <time>2026-05-17T11:25:41Z</time>
      </trkpt>
      <trkpt lat="43.75857" lon="6.58246">
        <ele>948.96</ele>
        <time>2026-05-17T11:25:55Z</time>
      </trkpt>
      <trkpt lat="43.75852" lon="6.58246">
        <ele>948.96</ele>
        <time>2026-05-17T11:26:12Z</time>
      </trkpt>
      <trkpt lat="43.7585" lon="6.58242">
        <ele>948.96</ele>
        <time>2026-05-17T11:26:28Z</time>
      </trkpt>
      <trkpt lat="43.75847" lon="6.58237">
        <ele>948.96</ele>
        <time>2026-05-17T11:26:40Z</time>
      </trkpt>
      <trkpt lat="43.75838" lon="6.58219">
        <ele>949.92</ele>
        <time>2026-05-17T11:26:57Z</time>
      </trkpt>
      <trkpt lat="43.75842" lon="6.5821">
        <ele>951.36</ele>
        <time>2026-05-17T11:27:08Z</time>
      </trkpt>
      <trkpt lat="43.75844" lon="6.58204">
        <ele>952.32</ele>
        <time>2026-05-17T11:27:20Z</time>
      </trkpt>
      <trkpt lat="43.75844" lon="6.58201">
        <ele>952.8</ele>
        <time>2026-05-17T11:27:25Z</time>
      </trkpt>
      <trkpt lat="43.75844" lon="6.58198">
        <ele>953.28</ele>
        <time>2026-05-17T11:27:42Z</time>
      </trkpt>
      <trkpt lat="43.75844" lon="6.58187">
        <ele>954.73</ele>
        <time>2026-05-17T11:27:54Z</time>
      </trkpt>
      <trkpt lat="43.75841" lon="6.58174">
        <ele>955.21</ele>
        <time>2026-05-17T11:28:04Z</time>
      </trkpt>
      <trkpt lat="43.7584" lon="6.58149">
        <ele>955.69</ele>
        <time>2026-05-17T11:28:22Z</time>
      </trkpt>
      <trkpt lat="43.75839" lon="6.58138">
        <ele>956.65</ele>
        <time>2026-05-17T11:28:30Z</time>
      </trkpt>
      <trkpt lat="43.7584" lon="6.58129">
        <ele>957.13</ele>
        <time>2026-05-17T11:28:36Z</time>
      </trkpt>
      <trkpt lat="43.75842" lon="6.58115">
        <ele>958.09</ele>
        <time>2026-05-17T11:28:46Z</time>
      </trkpt>
      <trkpt lat="43.75847" lon="6.58096">
        <ele>960.01</ele>
        <time>2026-05-17T11:29:02Z</time>
      </trkpt>
      <trkpt lat="43.75852" lon="6.58082">
        <ele>962.42</ele>
        <time>2026-05-17T11:29:16Z</time>
      </trkpt>
      <trkpt lat="43.75857" lon="6.5807">
        <ele>963.38</ele>
        <time>2026-05-17T11:29:29Z</time>
      </trkpt>
      <trkpt lat="43.75865" lon="6.58053">
        <ele>964.82</ele>
        <time>2026-05-17T11:29:44Z</time>
      </trkpt>
      <trkpt lat="43.75867" lon="6.58045">
        <ele>965.3</ele>
        <time>2026-05-17T11:29:54Z</time>
      </trkpt>
      <trkpt lat="43.75874" lon="6.58038">
        <ele>966.74</ele>
        <time>2026-05-17T11:30:08Z</time>
      </trkpt>
      <trkpt lat="43.75883" lon="6.58045">
        <ele>968.18</ele>
        <time>2026-05-17T11:30:23Z</time>
      </trkpt>
      <trkpt lat="43.75887" lon="6.58047">
        <ele>970.11</ele>
        <time>2026-05-17T11:30:35Z</time>
      </trkpt>
      <trkpt lat="43.75891" lon="6.58049">
        <ele>972.03</ele>
        <time>2026-05-17T11:30:47Z</time>
      </trkpt>
      <trkpt lat="43.75894" lon="6.58049">
        <ele>973.47</ele>
        <time>2026-05-17T11:30:58Z</time>
      </trkpt>
      <trkpt lat="43.75899" lon="6.58045">
        <ele>974.91</ele>
        <time>2026-05-17T11:31:10Z</time>
      </trkpt>
      <trkpt lat="43.75903" lon="6.5804">
        <ele>976.36</ele>
        <time>2026-05-17T11:31:24Z</time>
      </trkpt>
      <trkpt lat="43.75908" lon="6.58033">
        <ele>977.32</ele>
        <time>2026-05-17T11:31:38Z</time>
      </trkpt>
      <trkpt lat="43.75911" lon="6.58019">
        <ele>978.28</ele>
        <time>2026-05-17T11:31:52Z</time>
      </trkpt>
      <trkpt lat="43.75914" lon="6.58005">
        <ele>979.72</ele>
        <time>2026-05-17T11:32:05Z</time>
      </trkpt>
      <trkpt lat="43.75913" lon="6.58">
        <ele>979.72</ele>
        <time>2026-05-17T11:32:20Z</time>
      </trkpt>
      <trkpt lat="43.75914" lon="6.57998">
        <ele>978.76</ele>
        <time>2026-05-17T11:32:30Z</time>
      </trkpt>
      <trkpt lat="43.75914" lon="6.5799">
        <ele>978.76</ele>
        <time>2026-05-17T11:32:41Z</time>
      </trkpt>
      <trkpt lat="43.75914" lon="6.57978">
        <ele>980.2</ele>
        <time>2026-05-17T11:32:56Z</time>
      </trkpt>
      <trkpt lat="43.75913" lon="6.57978">
        <ele>980.2</ele>
        <time>2026-05-17T11:32:57Z</time>
      </trkpt>
      <trkpt lat="43.75913" lon="6.57977">
        <ele>978.76</ele>
        <time>2026-05-17T11:33:11Z</time>
      </trkpt>
      <trkpt lat="43.75914" lon="6.57965">
        <ele>978.28</ele>
        <time>2026-05-17T11:33:27Z</time>
      </trkpt>
      <trkpt lat="43.75915" lon="6.5796">
        <ele>977.8</ele>
        <time>2026-05-17T11:33:42Z</time>
      </trkpt>
      <trkpt lat="43.75915" lon="6.57953">
        <ele>977.8</ele>
        <time>2026-05-17T11:33:46Z</time>
      </trkpt>
      <trkpt lat="43.75907" lon="6.57918">
        <ele>976.84</ele>
        <time>2026-05-17T11:34:08Z</time>
      </trkpt>
      <trkpt lat="43.759" lon="6.57893">
        <ele>977.32</ele>
        <time>2026-05-17T11:34:26Z</time>
      </trkpt>
      <trkpt lat="43.759" lon="6.57888">
        <ele>977.32</ele>
        <time>2026-05-17T11:34:29Z</time>
      </trkpt>
      <trkpt lat="43.759" lon="6.57881">
        <ele>977.8</ele>
        <time>2026-05-17T11:34:34Z</time>
      </trkpt>
      <trkpt lat="43.75897" lon="6.57877">
        <ele>977.8</ele>
        <time>2026-05-17T11:34:37Z</time>
      </trkpt>
      <trkpt lat="43.75894" lon="6.57859">
        <ele>979.72</ele>
        <time>2026-05-17T11:34:51Z</time>
      </trkpt>
      <trkpt lat="43.75893" lon="6.57854">
        <ele>979.72</ele>
        <time>2026-05-17T11:34:55Z</time>
      </trkpt>
      <trkpt lat="43.75886" lon="6.57829">
        <ele>981.16</ele>
        <time>2026-05-17T11:35:13Z</time>
      </trkpt>
      <trkpt lat="43.75883" lon="6.57814">
        <ele>981.16</ele>
        <time>2026-05-17T11:35:23Z</time>
      </trkpt>
      <trkpt lat="43.75878" lon="6.57805">
        <ele>982.12</ele>
        <time>2026-05-17T11:35:30Z</time>
      </trkpt>
      <trkpt lat="43.75877" lon="6.57798">
        <ele>982.12</ele>
        <time>2026-05-17T11:35:34Z</time>
      </trkpt>
      <trkpt lat="43.75871" lon="6.57772">
        <ele>983.09</ele>
        <time>2026-05-17T11:35:52Z</time>
      </trkpt>
      <trkpt lat="43.75869" lon="6.57762">
        <ele>984.05</ele>
        <time>2026-05-17T11:36:10Z</time>
      </trkpt>
      <trkpt lat="43.7587" lon="6.57762">
        <ele>984.05</ele>
        <time>2026-05-17T11:36:30Z</time>
      </trkpt>
      <trkpt lat="43.75869" lon="6.57758">
        <ele>984.05</ele>
        <time>2026-05-17T11:36:45Z</time>
      </trkpt>
      <trkpt lat="43.75871" lon="6.57751">
        <ele>984.05</ele>
        <time>2026-05-17T11:37:00Z</time>
      </trkpt>
      <trkpt lat="43.75871" lon="6.5775">
        <ele>984.05</ele>
        <time>2026-05-17T11:37:07Z</time>
      </trkpt>
      <trkpt lat="43.75863" lon="6.57748">
        <ele>984.53</ele>
        <time>2026-05-17T11:37:23Z</time>
      </trkpt>
      <trkpt lat="43.75861" lon="6.57744">
        <ele>984.53</ele>
        <time>2026-05-17T11:37:27Z</time>
      </trkpt>
      <trkpt lat="43.75859" lon="6.57739">
        <ele>985.49</ele>
        <time>2026-05-17T11:37:43Z</time>
      </trkpt>
      <trkpt lat="43.75859" lon="6.5774">
        <ele>985.49</ele>
        <time>2026-05-17T11:38:11Z</time>
      </trkpt>
      <trkpt lat="43.75858" lon="6.57738">
        <ele>985.49</ele>
        <time>2026-05-17T11:38:35Z</time>
      </trkpt>
      <trkpt lat="43.75857" lon="6.57736">
        <ele>985.49</ele>
        <time>2026-05-17T11:38:38Z</time>
      </trkpt>
      <trkpt lat="43.75854" lon="6.57733">
        <ele>985.49</ele>
        <time>2026-05-17T11:38:41Z</time>
      </trkpt>
      <trkpt lat="43.75852" lon="6.57728">
        <ele>985.97</ele>
        <time>2026-05-17T11:38:45Z</time>
      </trkpt>
      <trkpt lat="43.7585" lon="6.57726">
        <ele>986.45</ele>
        <time>2026-05-17T11:38:47Z</time>
      </trkpt>
      <trkpt lat="43.75847" lon="6.5772">
        <ele>986.93</ele>
        <time>2026-05-17T11:38:53Z</time>
      </trkpt>
      <trkpt lat="43.75844" lon="6.57716">
        <ele>986.93</ele>
        <time>2026-05-17T11:38:57Z</time>
      </trkpt>
      <trkpt lat="43.75842" lon="6.57712">
        <ele>986.93</ele>
        <time>2026-05-17T11:39:00Z</time>
      </trkpt>
      <trkpt lat="43.75839" lon="6.57695">
        <ele>989.81</ele>
        <time>2026-05-17T11:39:15Z</time>
      </trkpt>
      <trkpt lat="43.75839" lon="6.57693">
        <ele>989.81</ele>
        <time>2026-05-17T11:39:17Z</time>
      </trkpt>
      <trkpt lat="43.75835" lon="6.57674">
        <ele>992.22</ele>
        <time>2026-05-17T11:39:33Z</time>
      </trkpt>
      <trkpt lat="43.75834" lon="6.57672">
        <ele>992.22</ele>
        <time>2026-05-17T11:39:35Z</time>
      </trkpt>
      <trkpt lat="43.75834" lon="6.5767">
        <ele>992.7</ele>
        <time>2026-05-17T11:39:37Z</time>
      </trkpt>
      <trkpt lat="43.75823" lon="6.5766">
        <ele>994.14</ele>
        <time>2026-05-17T11:39:52Z</time>
      </trkpt>
      <trkpt lat="43.75813" lon="6.57654">
        <ele>996.54</ele>
        <time>2026-05-17T11:40:06Z</time>
      </trkpt>
      <trkpt lat="43.75802" lon="6.57653">
        <ele>997.51</ele>
        <time>2026-05-17T11:40:20Z</time>
      </trkpt>
      <trkpt lat="43.75787" lon="6.57646">
        <ele>999.43</ele>
        <time>2026-05-17T11:40:35Z</time>
      </trkpt>
      <trkpt lat="43.75775" lon="6.57636">
        <ele>1000.87</ele>
        <time>2026-05-17T11:40:50Z</time>
      </trkpt>
      <trkpt lat="43.75764" lon="6.57629">
        <ele>1002.31</ele>
        <time>2026-05-17T11:41:05Z</time>
      </trkpt>
      <trkpt lat="43.75763" lon="6.5763">
        <ele>1002.31</ele>
        <time>2026-05-17T11:41:18Z</time>
      </trkpt>
      <trkpt lat="43.75756" lon="6.57618">
        <ele>1003.27</ele>
        <time>2026-05-17T11:41:31Z</time>
      </trkpt>
      <trkpt lat="43.75748" lon="6.57604">
        <ele>1005.68</ele>
        <time>2026-05-17T11:41:46Z</time>
      </trkpt>
      <trkpt lat="43.75748" lon="6.57603">
        <ele>1005.68</ele>
        <time>2026-05-17T11:41:47Z</time>
      </trkpt>
      <trkpt lat="43.75749" lon="6.57593">
        <ele>1007.6</ele>
        <time>2026-05-17T11:41:57Z</time>
      </trkpt>
      <trkpt lat="43.75752" lon="6.57578">
        <ele>1008.56</ele>
        <time>2026-05-17T11:42:11Z</time>
      </trkpt>
      <trkpt lat="43.75752" lon="6.57563">
        <ele>1010.48</ele>
        <time>2026-05-17T11:42:23Z</time>
      </trkpt>
      <trkpt lat="43.75745" lon="6.57544">
        <ele>1012.41</ele>
        <time>2026-05-17T11:42:39Z</time>
      </trkpt>
      <trkpt lat="43.75734" lon="6.57531">
        <ele>1013.85</ele>
        <time>2026-05-17T11:42:55Z</time>
      </trkpt>
      <trkpt lat="43.75723" lon="6.57519">
        <ele>1014.81</ele>
        <time>2026-05-17T11:43:11Z</time>
      </trkpt>
      <trkpt lat="43.75718" lon="6.57512">
        <ele>1015.77</ele>
        <time>2026-05-17T11:43:18Z</time>
      </trkpt>
      <trkpt lat="43.75709" lon="6.57497">
        <ele>1016.25</ele>
        <time>2026-05-17T11:43:33Z</time>
      </trkpt>
      <trkpt lat="43.75708" lon="6.57496">
        <ele>1016.25</ele>
        <time>2026-05-17T11:43:34Z</time>
      </trkpt>
      <trkpt lat="43.75701" lon="6.57497">
        <ele>1016.73</ele>
        <time>2026-05-17T11:43:42Z</time>
      </trkpt>
      <trkpt lat="43.75697" lon="6.57502">
        <ele>1016.73</ele>
        <time>2026-05-17T11:43:46Z</time>
      </trkpt>
      <trkpt lat="43.75692" lon="6.57513">
        <ele>1017.21</ele>
        <time>2026-05-17T11:44:02Z</time>
      </trkpt>
      <trkpt lat="43.7569" lon="6.57516">
        <ele>1017.69</ele>
        <time>2026-05-17T11:44:05Z</time>
      </trkpt>
      <trkpt lat="43.7568" lon="6.57524">
        <ele>1017.69</ele>
        <time>2026-05-17T11:44:18Z</time>
      </trkpt>
      <trkpt lat="43.7567" lon="6.57532">
        <ele>1020.58</ele>
        <time>2026-05-17T11:44:34Z</time>
      </trkpt>
      <trkpt lat="43.75669" lon="6.57534">
        <ele>1020.1</ele>
        <time>2026-05-17T11:44:49Z</time>
      </trkpt>
      <trkpt lat="43.75662" lon="6.5754">
        <ele>1021.06</ele>
        <time>2026-05-17T11:45:06Z</time>
      </trkpt>
      <trkpt lat="43.75651" lon="6.57555">
        <ele>1022.02</ele>
        <time>2026-05-17T11:45:21Z</time>
      </trkpt>
      <trkpt lat="43.7565" lon="6.57557">
        <ele>1022.5</ele>
        <time>2026-05-17T11:45:23Z</time>
      </trkpt>
      <trkpt lat="43.75641" lon="6.5758">
        <ele>1024.42</ele>
        <time>2026-05-17T11:45:40Z</time>
      </trkpt>
      <trkpt lat="43.75636" lon="6.57606">
        <ele>1024.42</ele>
        <time>2026-05-17T11:45:58Z</time>
      </trkpt>
      <trkpt lat="43.75634" lon="6.57631">
        <ele>1023.46</ele>
        <time>2026-05-17T11:46:13Z</time>
      </trkpt>
      <trkpt lat="43.75633" lon="6.57636">
        <ele>1022.98</ele>
        <time>2026-05-17T11:46:16Z</time>
      </trkpt>
      <trkpt lat="43.75616" lon="6.57651">
        <ele>1022.98</ele>
        <time>2026-05-17T11:46:35Z</time>
      </trkpt>
      <trkpt lat="43.75597" lon="6.57663">
        <ele>1024.42</ele>
        <time>2026-05-17T11:46:53Z</time>
      </trkpt>
      <trkpt lat="43.75582" lon="6.57683">
        <ele>1021.06</ele>
        <time>2026-05-17T11:47:09Z</time>
      </trkpt>
      <trkpt lat="43.75573" lon="6.57704">
        <ele>1020.58</ele>
        <time>2026-05-17T11:47:24Z</time>
      </trkpt>
      <trkpt lat="43.75565" lon="6.57716">
        <ele>1019.13</ele>
        <time>2026-05-17T11:47:34Z</time>
      </trkpt>
      <trkpt lat="43.75547" lon="6.57746">
        <ele>1016.73</ele>
        <time>2026-05-17T11:47:56Z</time>
      </trkpt>
      <trkpt lat="43.75533" lon="6.57764">
        <ele>1014.33</ele>
        <time>2026-05-17T11:48:12Z</time>
      </trkpt>
      <trkpt lat="43.7552" lon="6.57785">
        <ele>1014.33</ele>
        <time>2026-05-17T11:48:28Z</time>
      </trkpt>
      <trkpt lat="43.75515" lon="6.57799">
        <ele>1015.29</ele>
        <time>2026-05-17T11:48:37Z</time>
      </trkpt>
      <trkpt lat="43.75509" lon="6.57823">
        <ele>1017.21</ele>
        <time>2026-05-17T11:48:54Z</time>
      </trkpt>
      <trkpt lat="43.75509" lon="6.57824">
        <ele>1017.69</ele>
        <time>2026-05-17T11:48:55Z</time>
      </trkpt>
      <trkpt lat="43.755" lon="6.57841">
        <ele>1018.17</ele>
        <time>2026-05-17T11:49:08Z</time>
      </trkpt>
      <trkpt lat="43.75498" lon="6.57851">
        <ele>1018.65</ele>
        <time>2026-05-17T11:49:25Z</time>
      </trkpt>
      <trkpt lat="43.75494" lon="6.57858">
        <ele>1019.62</ele>
        <time>2026-05-17T11:49:42Z</time>
      </trkpt>
      <trkpt lat="43.75477" lon="6.57874">
        <ele>1020.1</ele>
        <time>2026-05-17T11:49:59Z</time>
      </trkpt>
      <trkpt lat="43.75455" lon="6.57878">
        <ele>1020.1</ele>
        <time>2026-05-17T11:50:19Z</time>
      </trkpt>
      <trkpt lat="43.75451" lon="6.57878">
        <ele>1020.1</ele>
        <time>2026-05-17T11:50:22Z</time>
      </trkpt>
      <trkpt lat="43.75428" lon="6.57881">
        <ele>1020.1</ele>
        <time>2026-05-17T11:50:41Z</time>
      </trkpt>
      <trkpt lat="43.7541" lon="6.5789">
        <ele>1020.1</ele>
        <time>2026-05-17T11:50:58Z</time>
      </trkpt>
      <trkpt lat="43.75398" lon="6.57886">
        <ele>1022.02</ele>
        <time>2026-05-17T11:51:11Z</time>
      </trkpt>
      <trkpt lat="43.75381" lon="6.57881">
        <ele>1023.46</ele>
        <time>2026-05-17T11:51:30Z</time>
      </trkpt>
      <trkpt lat="43.7536" lon="6.57874">
        <ele>1023.46</ele>
        <time>2026-05-17T11:51:49Z</time>
      </trkpt>
      <trkpt lat="43.75342" lon="6.57865">
        <ele>1024.42</ele>
        <time>2026-05-17T11:52:07Z</time>
      </trkpt>
      <trkpt lat="43.75322" lon="6.57852">
        <ele>1025.86</ele>
        <time>2026-05-17T11:52:27Z</time>
      </trkpt>
      <trkpt lat="43.75301" lon="6.57839">
        <ele>1026.83</ele>
        <time>2026-05-17T11:52:46Z</time>
      </trkpt>
      <trkpt lat="43.75283" lon="6.57828">
        <ele>1028.27</ele>
        <time>2026-05-17T11:53:04Z</time>
      </trkpt>
      <trkpt lat="43.75264" lon="6.57822">
        <ele>1028.27</ele>
        <time>2026-05-17T11:53:21Z</time>
      </trkpt>
      <trkpt lat="43.75243" lon="6.57815">
        <ele>1029.23</ele>
        <time>2026-05-17T11:53:41Z</time>
      </trkpt>
      <trkpt lat="43.75223" lon="6.57807">
        <ele>1029.71</ele>
        <time>2026-05-17T11:53:59Z</time>
      </trkpt>
      <trkpt lat="43.75204" lon="6.57798">
        <ele>1030.19</ele>
        <time>2026-05-17T11:54:17Z</time>
      </trkpt>
      <trkpt lat="43.75185" lon="6.57787">
        <ele>1030.67</ele>
        <time>2026-05-17T11:54:35Z</time>
      </trkpt>
      <trkpt lat="43.7517" lon="6.57772">
        <ele>1031.63</ele>
        <time>2026-05-17T11:54:52Z</time>
      </trkpt>
      <trkpt lat="43.7516" lon="6.57751">
        <ele>1032.11</ele>
        <time>2026-05-17T11:55:10Z</time>
      </trkpt>
      <trkpt lat="43.75152" lon="6.57727">
        <ele>1032.59</ele>
        <time>2026-05-17T11:55:27Z</time>
      </trkpt>
      <trkpt lat="43.75151" lon="6.57723">
        <ele>1032.59</ele>
        <time>2026-05-17T11:55:29Z</time>
      </trkpt>
      <trkpt lat="43.75144" lon="6.57695">
        <ele>1032.59</ele>
        <time>2026-05-17T11:55:50Z</time>
      </trkpt>
      <trkpt lat="43.75143" lon="6.57694">
        <ele>1032.59</ele>
        <time>2026-05-17T11:55:51Z</time>
      </trkpt>
      <trkpt lat="43.75139" lon="6.5768">
        <ele>1033.07</ele>
        <time>2026-05-17T11:56:10Z</time>
      </trkpt>
      <trkpt lat="43.75136" lon="6.57668">
        <ele>1033.07</ele>
        <time>2026-05-17T11:56:21Z</time>
      </trkpt>
      <trkpt lat="43.75124" lon="6.57637">
        <ele>1033.07</ele>
        <time>2026-05-17T11:56:41Z</time>
      </trkpt>
      <trkpt lat="43.75105" lon="6.57617">
        <ele>1035</ele>
        <time>2026-05-17T11:57:02Z</time>
      </trkpt>
      <trkpt lat="43.75086" lon="6.57604">
        <ele>1035.96</ele>
        <time>2026-05-17T11:57:20Z</time>
      </trkpt>
      <trkpt lat="43.75083" lon="6.57602">
        <ele>1036.44</ele>
        <time>2026-05-17T11:57:24Z</time>
      </trkpt>
      <trkpt lat="43.75072" lon="6.57596">
        <ele>1036.92</ele>
        <time>2026-05-17T11:57:38Z</time>
      </trkpt>
      <trkpt lat="43.75053" lon="6.57587">
        <ele>1037.4</ele>
        <time>2026-05-17T11:57:57Z</time>
      </trkpt>
      <trkpt lat="43.75036" lon="6.5757">
        <ele>1038.84</ele>
        <time>2026-05-17T11:58:16Z</time>
      </trkpt>
      <trkpt lat="43.75022" lon="6.57551">
        <ele>1039.8</ele>
        <time>2026-05-17T11:58:34Z</time>
      </trkpt>
      <trkpt lat="43.75007" lon="6.57531">
        <ele>1040.76</ele>
        <time>2026-05-17T11:58:54Z</time>
      </trkpt>
      <trkpt lat="43.74996" lon="6.57515">
        <ele>1042.21</ele>
        <time>2026-05-17T11:59:09Z</time>
      </trkpt>
      <trkpt lat="43.74981" lon="6.57496">
        <ele>1043.65</ele>
        <time>2026-05-17T11:59:29Z</time>
      </trkpt>
      <trkpt lat="43.74967" lon="6.57479">
        <ele>1044.61</ele>
        <time>2026-05-17T11:59:48Z</time>
      </trkpt>
      <trkpt lat="43.74958" lon="6.57469">
        <ele>1045.57</ele>
        <time>2026-05-17T12:00:02Z</time>
      </trkpt>
      <trkpt lat="43.74955" lon="6.57465">
        <ele>1045.57</ele>
        <time>2026-05-17T12:00:06Z</time>
      </trkpt>
      <trkpt lat="43.74937" lon="6.57448">
        <ele>1047.49</ele>
        <time>2026-05-17T12:00:27Z</time>
      </trkpt>
      <trkpt lat="43.74919" lon="6.57434">
        <ele>1048.45</ele>
        <time>2026-05-17T12:00:46Z</time>
      </trkpt>
      <trkpt lat="43.74914" lon="6.5743">
        <ele>1048.94</ele>
        <time>2026-05-17T12:00:52Z</time>
      </trkpt>
      <trkpt lat="43.7491" lon="6.57427">
        <ele>1049.42</ele>
        <time>2026-05-17T12:01:01Z</time>
      </trkpt>
      <trkpt lat="43.74906" lon="6.57425">
        <ele>1049.42</ele>
        <time>2026-05-17T12:01:06Z</time>
      </trkpt>
      <trkpt lat="43.74891" lon="6.57419">
        <ele>1051.34</ele>
        <time>2026-05-17T12:01:23Z</time>
      </trkpt>
      <trkpt lat="43.74879" lon="6.57414">
        <ele>1053.74</ele>
        <time>2026-05-17T12:01:39Z</time>
      </trkpt>
      <trkpt lat="43.74873" lon="6.5741">
        <ele>1055.18</ele>
        <time>2026-05-17T12:01:52Z</time>
      </trkpt>
      <trkpt lat="43.74871" lon="6.57412">
        <ele>1055.67</ele>
        <time>2026-05-17T12:02:14Z</time>
      </trkpt>
      <trkpt lat="43.74863" lon="6.57406">
        <ele>1057.59</ele>
        <time>2026-05-17T12:02:28Z</time>
      </trkpt>
      <trkpt lat="43.74851" lon="6.57398">
        <ele>1059.03</ele>
        <time>2026-05-17T12:02:42Z</time>
      </trkpt>
      <trkpt lat="43.74843" lon="6.57391">
        <ele>1060.47</ele>
        <time>2026-05-17T12:02:56Z</time>
      </trkpt>
      <trkpt lat="43.74834" lon="6.57383">
        <ele>1061.91</ele>
        <time>2026-05-17T12:03:10Z</time>
      </trkpt>
      <trkpt lat="43.74825" lon="6.57376">
        <ele>1064.32</ele>
        <time>2026-05-17T12:03:23Z</time>
      </trkpt>
      <trkpt lat="43.74814" lon="6.57368">
        <ele>1064.8</ele>
        <time>2026-05-17T12:03:38Z</time>
      </trkpt>
      <trkpt lat="43.74806" lon="6.57363">
        <ele>1067.68</ele>
        <time>2026-05-17T12:03:49Z</time>
      </trkpt>
      <trkpt lat="43.74797" lon="6.57356">
        <ele>1068.16</ele>
        <time>2026-05-17T12:04:03Z</time>
      </trkpt>
      <trkpt lat="43.74786" lon="6.57346">
        <ele>1070.08</ele>
        <time>2026-05-17T12:04:19Z</time>
      </trkpt>
      <trkpt lat="43.74779" lon="6.57336">
        <ele>1071.53</ele>
        <time>2026-05-17T12:04:32Z</time>
      </trkpt>
      <trkpt lat="43.74772" lon="6.57325">
        <ele>1072.97</ele>
        <time>2026-05-17T12:04:46Z</time>
      </trkpt>
      <trkpt lat="43.74766" lon="6.57311">
        <ele>1074.41</ele>
        <time>2026-05-17T12:05:01Z</time>
      </trkpt>
      <trkpt lat="43.74765" lon="6.57309">
        <ele>1074.41</ele>
        <time>2026-05-17T12:05:03Z</time>
      </trkpt>
      <trkpt lat="43.74761" lon="6.57288">
        <ele>1075.85</ele>
        <time>2026-05-17T12:05:21Z</time>
      </trkpt>
      <trkpt lat="43.74765" lon="6.57278">
        <ele>1077.29</ele>
        <time>2026-05-17T12:05:33Z</time>
      </trkpt>
      <trkpt lat="43.74771" lon="6.57266">
        <ele>1078.74</ele>
        <time>2026-05-17T12:05:47Z</time>
      </trkpt>
      <trkpt lat="43.74775" lon="6.57252">
        <ele>1080.66</ele>
        <time>2026-05-17T12:06:01Z</time>
      </trkpt>
      <trkpt lat="43.74777" lon="6.57237">
        <ele>1082.58</ele>
        <time>2026-05-17T12:06:15Z</time>
      </trkpt>
      <trkpt lat="43.74773" lon="6.57231">
        <ele>1082.58</ele>
        <time>2026-05-17T12:06:24Z</time>
      </trkpt>
      <trkpt lat="43.74771" lon="6.57215">
        <ele>1084.02</ele>
        <time>2026-05-17T12:06:40Z</time>
      </trkpt>
      <trkpt lat="43.74768" lon="6.57206">
        <ele>1085.47</ele>
        <time>2026-05-17T12:06:53Z</time>
      </trkpt>
      <trkpt lat="43.74768" lon="6.57202">
        <ele>1085.95</ele>
        <time>2026-05-17T12:07:10Z</time>
      </trkpt>
      <trkpt lat="43.74762" lon="6.57194">
        <ele>1087.87</ele>
        <time>2026-05-17T12:07:25Z</time>
      </trkpt>
      <trkpt lat="43.7475" lon="6.57184">
        <ele>1088.83</ele>
        <time>2026-05-17T12:07:40Z</time>
      </trkpt>
      <trkpt lat="43.74746" lon="6.57183">
        <ele>1089.31</ele>
        <time>2026-05-17T12:07:45Z</time>
      </trkpt>
      <trkpt lat="43.74742" lon="6.57182">
        <ele>1089.31</ele>
        <time>2026-05-17T12:07:49Z</time>
      </trkpt>
      <trkpt lat="43.74739" lon="6.57182">
        <ele>1089.31</ele>
        <time>2026-05-17T12:07:51Z</time>
      </trkpt>
      <trkpt lat="43.74719" lon="6.57176">
        <ele>1090.27</ele>
        <time>2026-05-17T12:08:10Z</time>
      </trkpt>
      <trkpt lat="43.74707" lon="6.5717">
        <ele>1090.27</ele>
        <time>2026-05-17T12:08:28Z</time>
      </trkpt>
      <trkpt lat="43.74705" lon="6.57169">
        <ele>1090.27</ele>
        <time>2026-05-17T12:08:43Z</time>
      </trkpt>
      <trkpt lat="43.74689" lon="6.57162">
        <ele>1088.83</ele>
        <time>2026-05-17T12:08:58Z</time>
      </trkpt>
      <trkpt lat="43.74664" lon="6.5715">
        <ele>1085.95</ele>
        <time>2026-05-17T12:09:20Z</time>
      </trkpt>
      <trkpt lat="43.74655" lon="6.57144">
        <ele>1086.91</ele>
        <time>2026-05-17T12:09:37Z</time>
      </trkpt>
      <trkpt lat="43.74647" lon="6.57137">
        <ele>1087.87</ele>
        <time>2026-05-17T12:09:57Z</time>
      </trkpt>
      <trkpt lat="43.74633" lon="6.57124">
        <ele>1087.87</ele>
        <time>2026-05-17T12:10:14Z</time>
      </trkpt>
      <trkpt lat="43.74625" lon="6.57115">
        <ele>1087.87</ele>
        <time>2026-05-17T12:10:23Z</time>
      </trkpt>
      <trkpt lat="43.74611" lon="6.57095">
        <ele>1089.31</ele>
        <time>2026-05-17T12:10:43Z</time>
      </trkpt>
      <trkpt lat="43.74604" lon="6.57075">
        <ele>1091.23</ele>
        <time>2026-05-17T12:11:01Z</time>
      </trkpt>
      <trkpt lat="43.74597" lon="6.57054">
        <ele>1092.68</ele>
        <time>2026-05-17T12:11:18Z</time>
      </trkpt>
      <trkpt lat="43.74597" lon="6.57053">
        <ele>1092.68</ele>
        <time>2026-05-17T12:11:19Z</time>
      </trkpt>
      <trkpt lat="43.74596" lon="6.5704">
        <ele>1093.64</ele>
        <time>2026-05-17T12:11:29Z</time>
      </trkpt>
      <trkpt lat="43.74593" lon="6.57019">
        <ele>1095.08</ele>
        <time>2026-05-17T12:11:46Z</time>
      </trkpt>
      <trkpt lat="43.74589" lon="6.57001">
        <ele>1096.52</ele>
        <time>2026-05-17T12:12:00Z</time>
      </trkpt>
      <trkpt lat="43.74588" lon="6.56998">
        <ele>1096.52</ele>
        <time>2026-05-17T12:12:03Z</time>
      </trkpt>
      <trkpt lat="43.74583" lon="6.56979">
        <ele>1097.96</ele>
        <time>2026-05-17T12:12:20Z</time>
      </trkpt>
      <trkpt lat="43.74577" lon="6.56965">
        <ele>1098.92</ele>
        <time>2026-05-17T12:12:34Z</time>
      </trkpt>
      <trkpt lat="43.74572" lon="6.56951">
        <ele>1100.37</ele>
        <time>2026-05-17T12:12:47Z</time>
      </trkpt>
      <trkpt lat="43.74567" lon="6.56934">
        <ele>1101.81</ele>
        <time>2026-05-17T12:13:03Z</time>
      </trkpt>
      <trkpt lat="43.74563" lon="6.5693">
        <ele>1102.77</ele>
        <time>2026-05-17T12:13:18Z</time>
      </trkpt>
      <trkpt lat="43.74565" lon="6.56919">
        <ele>1103.73</ele>
        <time>2026-05-17T12:13:31Z</time>
      </trkpt>
      <trkpt lat="43.74562" lon="6.56912">
        <ele>1104.69</ele>
        <time>2026-05-17T12:13:44Z</time>
      </trkpt>
      <trkpt lat="43.74561" lon="6.56913">
        <ele>1104.69</ele>
        <time>2026-05-17T12:14:07Z</time>
      </trkpt>
      <trkpt lat="43.74561" lon="6.56902">
        <ele>1105.17</ele>
        <time>2026-05-17T12:14:23Z</time>
      </trkpt>
      <trkpt lat="43.74559" lon="6.56887">
        <ele>1107.1</ele>
        <time>2026-05-17T12:14:37Z</time>
      </trkpt>
      <trkpt lat="43.74555" lon="6.5687">
        <ele>1109.02</ele>
        <time>2026-05-17T12:14:51Z</time>
      </trkpt>
      <trkpt lat="43.74548" lon="6.56855">
        <ele>1110.46</ele>
        <time>2026-05-17T12:15:06Z</time>
      </trkpt>
      <trkpt lat="43.74544" lon="6.5684">
        <ele>1111.9</ele>
        <time>2026-05-17T12:15:20Z</time>
      </trkpt>
      <trkpt lat="43.74544" lon="6.56839">
        <ele>1112.38</ele>
        <time>2026-05-17T12:15:21Z</time>
      </trkpt>
      <trkpt lat="43.74542" lon="6.56832">
        <ele>1112.86</ele>
        <time>2026-05-17T12:15:33Z</time>
      </trkpt>
      <trkpt lat="43.74536" lon="6.56825">
        <ele>1113.34</ele>
        <time>2026-05-17T12:15:46Z</time>
      </trkpt>
      <trkpt lat="43.7453" lon="6.56811">
        <ele>1114.79</ele>
        <time>2026-05-17T12:16:00Z</time>
      </trkpt>
      <trkpt lat="43.74523" lon="6.56796">
        <ele>1116.71</ele>
        <time>2026-05-17T12:16:15Z</time>
      </trkpt>
      <trkpt lat="43.74518" lon="6.56786">
        <ele>1116.71</ele>
        <time>2026-05-17T12:16:30Z</time>
      </trkpt>
      <trkpt lat="43.74518" lon="6.56786">
        <ele>1118.15</ele>
        <time>2026-05-17T12:16:32Z</time>
      </trkpt>
      <trkpt lat="43.74517" lon="6.56784">
        <ele>1118.15</ele>
        <time>2026-05-17T12:16:35Z</time>
      </trkpt>
      <trkpt lat="43.74511" lon="6.5677">
        <ele>1119.11</ele>
        <time>2026-05-17T12:16:47Z</time>
      </trkpt>
      <trkpt lat="43.74508" lon="6.56765">
        <ele>1119.11</ele>
        <time>2026-05-17T12:16:52Z</time>
      </trkpt>
      <trkpt lat="43.74499" lon="6.56757">
        <ele>1119.11</ele>
        <time>2026-05-17T12:17:02Z</time>
      </trkpt>
      <trkpt lat="43.74479" lon="6.56742">
        <ele>1120.55</ele>
        <time>2026-05-17T12:17:23Z</time>
      </trkpt>
      <trkpt lat="43.74463" lon="6.5673">
        <ele>1120.55</ele>
        <time>2026-05-17T12:17:39Z</time>
      </trkpt>
      <trkpt lat="43.74442" lon="6.56712">
        <ele>1120.55</ele>
        <time>2026-05-17T12:18:00Z</time>
      </trkpt>
      <trkpt lat="43.74423" lon="6.56697">
        <ele>1121.03</ele>
        <time>2026-05-17T12:18:19Z</time>
      </trkpt>
      <trkpt lat="43.74407" lon="6.56683">
        <ele>1122</ele>
        <time>2026-05-17T12:18:37Z</time>
      </trkpt>
      <trkpt lat="43.744" lon="6.56677">
        <ele>1122</ele>
        <time>2026-05-17T12:18:45Z</time>
      </trkpt>
      <trkpt lat="43.74397" lon="6.56676">
        <ele>1122.48</ele>
        <time>2026-05-17T12:18:48Z</time>
      </trkpt>
      <trkpt lat="43.74381" lon="6.56662">
        <ele>1123.92</ele>
        <time>2026-05-17T12:19:06Z</time>
      </trkpt>
      <trkpt lat="43.74379" lon="6.5666">
        <ele>1124.4</ele>
        <time>2026-05-17T12:19:08Z</time>
      </trkpt>
      <trkpt lat="43.74362" lon="6.56644">
        <ele>1124.88</ele>
        <time>2026-05-17T12:19:28Z</time>
      </trkpt>
      <trkpt lat="43.74346" lon="6.56627">
        <ele>1125.36</ele>
        <time>2026-05-17T12:19:47Z</time>
      </trkpt>
      <trkpt lat="43.74326" lon="6.5661">
        <ele>1125.84</ele>
        <time>2026-05-17T12:20:07Z</time>
      </trkpt>
      <trkpt lat="43.74317" lon="6.56607">
        <ele>1125.84</ele>
        <time>2026-05-17T12:20:22Z</time>
      </trkpt>
      <trkpt lat="43.74304" lon="6.566">
        <ele>1127.76</ele>
        <time>2026-05-17T12:20:37Z</time>
      </trkpt>
      <trkpt lat="43.74298" lon="6.56602">
        <ele>1129.69</ele>
        <time>2026-05-17T12:20:49Z</time>
      </trkpt>
      <trkpt lat="43.74294" lon="6.56604">
        <ele>1130.17</ele>
        <time>2026-05-17T12:20:59Z</time>
      </trkpt>
      <trkpt lat="43.74285" lon="6.56597">
        <ele>1132.09</ele>
        <time>2026-05-17T12:21:13Z</time>
      </trkpt>
      <trkpt lat="43.74276" lon="6.56594">
        <ele>1133.53</ele>
        <time>2026-05-17T12:21:25Z</time>
      </trkpt>
      <trkpt lat="43.74266" lon="6.56589">
        <ele>1133.53</ele>
        <time>2026-05-17T12:21:38Z</time>
      </trkpt>
      <trkpt lat="43.74257" lon="6.56587">
        <ele>1134.49</ele>
        <time>2026-05-17T12:21:50Z</time>
      </trkpt>
      <trkpt lat="43.74245" lon="6.56585">
        <ele>1135.45</ele>
        <time>2026-05-17T12:22:04Z</time>
      </trkpt>
      <trkpt lat="43.74235" lon="6.5658">
        <ele>1136.9</ele>
        <time>2026-05-17T12:22:17Z</time>
      </trkpt>
      <trkpt lat="43.74224" lon="6.56573">
        <ele>1138.34</ele>
        <time>2026-05-17T12:22:31Z</time>
      </trkpt>
      <trkpt lat="43.74216" lon="6.56566">
        <ele>1139.3</ele>
        <time>2026-05-17T12:22:44Z</time>
      </trkpt>
      <trkpt lat="43.74209" lon="6.56557">
        <ele>1140.74</ele>
        <time>2026-05-17T12:22:57Z</time>
      </trkpt>
      <trkpt lat="43.74201" lon="6.56549">
        <ele>1142.18</ele>
        <time>2026-05-17T12:23:11Z</time>
      </trkpt>
      <trkpt lat="43.74195" lon="6.56545">
        <ele>1144.11</ele>
        <time>2026-05-17T12:23:24Z</time>
      </trkpt>
      <trkpt lat="43.74187" lon="6.56537">
        <ele>1145.07</ele>
        <time>2026-05-17T12:23:37Z</time>
      </trkpt>
      <trkpt lat="43.74175" lon="6.56531">
        <ele>1146.03</ele>
        <time>2026-05-17T12:23:50Z</time>
      </trkpt>
      <trkpt lat="43.74172" lon="6.56529">
        <ele>1146.51</ele>
        <time>2026-05-17T12:23:55Z</time>
      </trkpt>
      <trkpt lat="43.7416" lon="6.56526">
        <ele>1146.99</ele>
        <time>2026-05-17T12:24:10Z</time>
      </trkpt>
      <trkpt lat="43.74154" lon="6.56523">
        <ele>1147.95</ele>
        <time>2026-05-17T12:24:21Z</time>
      </trkpt>
      <trkpt lat="43.74143" lon="6.56517">
        <ele>1149.87</ele>
        <time>2026-05-17T12:24:37Z</time>
      </trkpt>
      <trkpt lat="43.74135" lon="6.56513">
        <ele>1151.8</ele>
        <time>2026-05-17T12:24:50Z</time>
      </trkpt>
      <trkpt lat="43.74133" lon="6.56514">
        <ele>1151.8</ele>
        <time>2026-05-17T12:25:04Z</time>
      </trkpt>
      <trkpt lat="43.74131" lon="6.56515">
        <ele>1152.28</ele>
        <time>2026-05-17T12:25:25Z</time>
      </trkpt>
      <trkpt lat="43.74132" lon="6.56514">
        <ele>1152.28</ele>
        <time>2026-05-17T12:25:46Z</time>
      </trkpt>
      <trkpt lat="43.74127" lon="6.56513">
        <ele>1153.24</ele>
        <time>2026-05-17T12:25:57Z</time>
      </trkpt>
      <trkpt lat="43.74117" lon="6.56515">
        <ele>1154.68</ele>
        <time>2026-05-17T12:26:10Z</time>
      </trkpt>
      <trkpt lat="43.74108" lon="6.56515">
        <ele>1157.08</ele>
        <time>2026-05-17T12:26:24Z</time>
      </trkpt>
      <trkpt lat="43.741" lon="6.56518">
        <ele>1158.53</ele>
        <time>2026-05-17T12:26:37Z</time>
      </trkpt>
      <trkpt lat="43.74092" lon="6.56521">
        <ele>1160.45</ele>
        <time>2026-05-17T12:26:51Z</time>
      </trkpt>
      <trkpt lat="43.74086" lon="6.56523">
        <ele>1161.89</ele>
        <time>2026-05-17T12:27:02Z</time>
      </trkpt>
      <trkpt lat="43.74078" lon="6.56522">
        <ele>1162.85</ele>
        <time>2026-05-17T12:27:14Z</time>
      </trkpt>
      <trkpt lat="43.74072" lon="6.56516">
        <ele>1164.29</ele>
        <time>2026-05-17T12:27:27Z</time>
      </trkpt>
      <trkpt lat="43.74071" lon="6.5651">
        <ele>1165.26</ele>
        <time>2026-05-17T12:27:39Z</time>
      </trkpt>
      <trkpt lat="43.7407" lon="6.56497">
        <ele>1166.7</ele>
        <time>2026-05-17T12:27:52Z</time>
      </trkpt>
      <trkpt lat="43.74066" lon="6.56485">
        <ele>1168.14</ele>
        <time>2026-05-17T12:28:04Z</time>
      </trkpt>
      <trkpt lat="43.74061" lon="6.56475">
        <ele>1169.1</ele>
        <time>2026-05-17T12:28:18Z</time>
      </trkpt>
      <trkpt lat="43.7406" lon="6.56469">
        <ele>1170.06</ele>
        <time>2026-05-17T12:28:28Z</time>
      </trkpt>
      <trkpt lat="43.74059" lon="6.5646">
        <ele>1171.5</ele>
        <time>2026-05-17T12:28:41Z</time>
      </trkpt>
      <trkpt lat="43.74055" lon="6.56447">
        <ele>1172.47</ele>
        <time>2026-05-17T12:28:55Z</time>
      </trkpt>
      <trkpt lat="43.74054" lon="6.56438">
        <ele>1173.43</ele>
        <time>2026-05-17T12:29:08Z</time>
      </trkpt>
      <trkpt lat="43.74048" lon="6.56428">
        <ele>1174.87</ele>
        <time>2026-05-17T12:29:23Z</time>
      </trkpt>
      <trkpt lat="43.74043" lon="6.56414">
        <ele>1175.83</ele>
        <time>2026-05-17T12:29:37Z</time>
      </trkpt>
      <trkpt lat="43.7404" lon="6.56407">
        <ele>1177.27</ele>
        <time>2026-05-17T12:29:50Z</time>
      </trkpt>
      <trkpt lat="43.74036" lon="6.564">
        <ele>1179.19</ele>
        <time>2026-05-17T12:30:02Z</time>
      </trkpt>
      <trkpt lat="43.74032" lon="6.56391">
        <ele>1179.67</ele>
        <time>2026-05-17T12:30:13Z</time>
      </trkpt>
      <trkpt lat="43.74028" lon="6.56379">
        <ele>1181.6</ele>
        <time>2026-05-17T12:30:26Z</time>
      </trkpt>
      <trkpt lat="43.74022" lon="6.56372">
        <ele>1183.04</ele>
        <time>2026-05-17T12:30:39Z</time>
      </trkpt>
      <trkpt lat="43.74018" lon="6.56367">
        <ele>1184.96</ele>
        <time>2026-05-17T12:30:53Z</time>
      </trkpt>
      <trkpt lat="43.74013" lon="6.56358">
        <ele>1185.44</ele>
        <time>2026-05-17T12:31:08Z</time>
      </trkpt>
      <trkpt lat="43.74007" lon="6.56349">
        <ele>1186.88</ele>
        <time>2026-05-17T12:31:21Z</time>
      </trkpt>
      <trkpt lat="43.74001" lon="6.56343">
        <ele>1187.85</ele>
        <time>2026-05-17T12:31:36Z</time>
      </trkpt>
      <trkpt lat="43.73998" lon="6.56341">
        <ele>1188.33</ele>
        <time>2026-05-17T12:31:48Z</time>
      </trkpt>
      <trkpt lat="43.73996" lon="6.5634">
        <ele>1187.85</ele>
        <time>2026-05-17T12:32:13Z</time>
      </trkpt>
      <trkpt lat="43.73997" lon="6.5634">
        <ele>1189.29</ele>
        <time>2026-05-17T12:32:29Z</time>
      </trkpt>
      <trkpt lat="43.73991" lon="6.56336">
        <ele>1187.85</ele>
        <time>2026-05-17T12:32:40Z</time>
      </trkpt>
      <trkpt lat="43.73989" lon="6.56333">
        <ele>1187.37</ele>
        <time>2026-05-17T12:32:53Z</time>
      </trkpt>
      <trkpt lat="43.7398" lon="6.56325">
        <ele>1186.4</ele>
        <time>2026-05-17T12:33:08Z</time>
      </trkpt>
      <trkpt lat="43.73971" lon="6.56312">
        <ele>1184.48</ele>
        <time>2026-05-17T12:33:24Z</time>
      </trkpt>
      <trkpt lat="43.73962" lon="6.56305">
        <ele>1183.52</ele>
        <time>2026-05-17T12:33:41Z</time>
      </trkpt>
      <trkpt lat="43.73955" lon="6.563">
        <ele>1182.56</ele>
        <time>2026-05-17T12:33:51Z</time>
      </trkpt>
      <trkpt lat="43.73951" lon="6.56292">
        <ele>1182.08</ele>
        <time>2026-05-17T12:33:59Z</time>
      </trkpt>
      <trkpt lat="43.73938" lon="6.56287">
        <ele>1180.64</ele>
        <time>2026-05-17T12:34:12Z</time>
      </trkpt>
      <trkpt lat="43.73925" lon="6.56279">
        <ele>1178.23</ele>
        <time>2026-05-17T12:34:27Z</time>
      </trkpt>
      <trkpt lat="43.73914" lon="6.56275">
        <ele>1176.79</ele>
        <time>2026-05-17T12:34:40Z</time>
      </trkpt>
      <trkpt lat="43.73901" lon="6.56272">
        <ele>1175.35</ele>
        <time>2026-05-17T12:34:54Z</time>
      </trkpt>
      <trkpt lat="43.73886" lon="6.56269">
        <ele>1173.43</ele>
        <time>2026-05-17T12:35:07Z</time>
      </trkpt>
      <trkpt lat="43.73875" lon="6.56267">
        <ele>1171.02</ele>
        <time>2026-05-17T12:35:21Z</time>
      </trkpt>
      <trkpt lat="43.73867" lon="6.56259">
        <ele>1169.58</ele>
        <time>2026-05-17T12:35:31Z</time>
      </trkpt>
      <trkpt lat="43.73841" lon="6.5625">
        <ele>1168.62</ele>
        <time>2026-05-17T12:35:47Z</time>
      </trkpt>
      <trkpt lat="43.73833" lon="6.56254">
        <ele>1167.18</ele>
        <time>2026-05-17T12:35:58Z</time>
      </trkpt>
      <trkpt lat="43.73827" lon="6.56258">
        <ele>1166.22</ele>
        <time>2026-05-17T12:36:07Z</time>
      </trkpt>
      <trkpt lat="43.73821" lon="6.56263">
        <ele>1165.26</ele>
        <time>2026-05-17T12:36:15Z</time>
      </trkpt>
      <trkpt lat="43.7381" lon="6.5627">
        <ele>1164.29</ele>
        <time>2026-05-17T12:36:28Z</time>
      </trkpt>
      <trkpt lat="43.73803" lon="6.56279">
        <ele>1162.37</ele>
        <time>2026-05-17T12:36:40Z</time>
      </trkpt>
      <trkpt lat="43.73796" lon="6.56286">
        <ele>1160.45</ele>
        <time>2026-05-17T12:36:51Z</time>
      </trkpt>
      <trkpt lat="43.7379" lon="6.56295">
        <ele>1158.53</ele>
        <time>2026-05-17T12:37:05Z</time>
      </trkpt>
      <trkpt lat="43.73783" lon="6.56308">
        <ele>1157.08</ele>
        <time>2026-05-17T12:37:18Z</time>
      </trkpt>
      <trkpt lat="43.73776" lon="6.56312">
        <ele>1155.16</ele>
        <time>2026-05-17T12:37:30Z</time>
      </trkpt>
      <trkpt lat="43.73768" lon="6.5632">
        <ele>1153.72</ele>
        <time>2026-05-17T12:37:43Z</time>
      </trkpt>
      <trkpt lat="43.7376" lon="6.56324">
        <ele>1152.28</ele>
        <time>2026-05-17T12:37:57Z</time>
      </trkpt>
      <trkpt lat="43.73757" lon="6.56324">
        <ele>1151.8</ele>
        <time>2026-05-17T12:38:18Z</time>
      </trkpt>
      <trkpt lat="43.73753" lon="6.56327">
        <ele>1150.84</ele>
        <time>2026-05-17T12:38:42Z</time>
      </trkpt>
      <trkpt lat="43.73753" lon="6.56327">
        <ele>1150.84</ele>
        <time>2026-05-17T12:38:43Z</time>
      </trkpt>
      <trkpt lat="43.73744" lon="6.56332">
        <ele>1149.39</ele>
        <time>2026-05-17T12:38:56Z</time>
      </trkpt>
      <trkpt lat="43.7374" lon="6.56335">
        <ele>1148.43</ele>
        <time>2026-05-17T12:39:01Z</time>
      </trkpt>
      <trkpt lat="43.73734" lon="6.56341">
        <ele>1147.47</ele>
        <time>2026-05-17T12:39:09Z</time>
      </trkpt>
      <trkpt lat="43.73727" lon="6.56346">
        <ele>1146.51</ele>
        <time>2026-05-17T12:39:17Z</time>
      </trkpt>
      <trkpt lat="43.73714" lon="6.56354">
        <ele>1144.59</ele>
        <time>2026-05-17T12:39:31Z</time>
      </trkpt>
      <trkpt lat="43.73696" lon="6.56365">
        <ele>1141.7</ele>
        <time>2026-05-17T12:39:50Z</time>
      </trkpt>
      <trkpt lat="43.73695" lon="6.56366">
        <ele>1141.22</ele>
        <time>2026-05-17T12:39:51Z</time>
      </trkpt>
      <trkpt lat="43.73679" lon="6.56372">
        <ele>1139.78</ele>
        <time>2026-05-17T12:40:07Z</time>
      </trkpt>
      <trkpt lat="43.73665" lon="6.56376">
        <ele>1138.82</ele>
        <time>2026-05-17T12:40:18Z</time>
      </trkpt>
      <trkpt lat="43.73658" lon="6.56379">
        <ele>1138.34</ele>
        <time>2026-05-17T12:40:24Z</time>
      </trkpt>
      <trkpt lat="43.73652" lon="6.5638">
        <ele>1138.34</ele>
        <time>2026-05-17T12:40:29Z</time>
      </trkpt>
      <trkpt lat="43.73631" lon="6.56383">
        <ele>1138.34</ele>
        <time>2026-05-17T12:40:47Z</time>
      </trkpt>
      <trkpt lat="43.73615" lon="6.56389">
        <ele>1137.38</ele>
        <time>2026-05-17T12:41:01Z</time>
      </trkpt>
      <trkpt lat="43.73607" lon="6.56396">
        <ele>1136.42</ele>
        <time>2026-05-17T12:41:10Z</time>
      </trkpt>
      <trkpt lat="43.73594" lon="6.56409">
        <ele>1134.49</ele>
        <time>2026-05-17T12:41:25Z</time>
      </trkpt>
      <trkpt lat="43.73589" lon="6.56415">
        <ele>1133.53</ele>
        <time>2026-05-17T12:41:31Z</time>
      </trkpt>
      <trkpt lat="43.73576" lon="6.56424">
        <ele>1131.61</ele>
        <time>2026-05-17T12:41:46Z</time>
      </trkpt>
      <trkpt lat="43.73565" lon="6.56429">
        <ele>1130.17</ele>
        <time>2026-05-17T12:41:57Z</time>
      </trkpt>
      <trkpt lat="43.73562" lon="6.5643">
        <ele>1129.69</ele>
        <time>2026-05-17T12:42:00Z</time>
      </trkpt>
      <trkpt lat="43.73549" lon="6.56438">
        <ele>1128.24</ele>
        <time>2026-05-17T12:42:13Z</time>
      </trkpt>
      <trkpt lat="43.73549" lon="6.56438">
        <ele>1128.24</ele>
        <time>2026-05-17T12:42:14Z</time>
      </trkpt>
      <trkpt lat="43.73547" lon="6.5644">
        <ele>1127.76</ele>
        <time>2026-05-17T12:42:16Z</time>
      </trkpt>
      <trkpt lat="43.73522" lon="6.56458">
        <ele>1127.28</ele>
        <time>2026-05-17T12:42:37Z</time>
      </trkpt>
      <trkpt lat="43.73508" lon="6.5647">
        <ele>1127.28</ele>
        <time>2026-05-17T12:42:51Z</time>
      </trkpt>
      <trkpt lat="43.73499" lon="6.56475">
        <ele>1127.28</ele>
        <time>2026-05-17T12:43:00Z</time>
      </trkpt>
      <trkpt lat="43.73496" lon="6.56478">
        <ele>1128.73</ele>
        <time>2026-05-17T12:43:03Z</time>
      </trkpt>
      <trkpt lat="43.73478" lon="6.56492">
        <ele>1128.24</ele>
        <time>2026-05-17T12:43:21Z</time>
      </trkpt>
      <trkpt lat="43.73458" lon="6.56506">
        <ele>1126.32</ele>
        <time>2026-05-17T12:43:40Z</time>
      </trkpt>
      <trkpt lat="43.73442" lon="6.56516">
        <ele>1124.88</ele>
        <time>2026-05-17T12:43:58Z</time>
      </trkpt>
      <trkpt lat="43.73429" lon="6.56525">
        <ele>1122.48</ele>
        <time>2026-05-17T12:44:13Z</time>
      </trkpt>
      <trkpt lat="43.73429" lon="6.56526">
        <ele>1122.48</ele>
        <time>2026-05-17T12:44:14Z</time>
      </trkpt>
      <trkpt lat="43.73414" lon="6.56543">
        <ele>1122</ele>
        <time>2026-05-17T12:44:32Z</time>
      </trkpt>
      <trkpt lat="43.7341" lon="6.5655">
        <ele>1122</ele>
        <time>2026-05-17T12:44:38Z</time>
      </trkpt>
      <trkpt lat="43.73408" lon="6.56562">
        <ele>1120.55</ele>
        <time>2026-05-17T12:44:52Z</time>
      </trkpt>
      <trkpt lat="43.73413" lon="6.56565">
        <ele>1120.55</ele>
        <time>2026-05-17T12:45:04Z</time>
      </trkpt>
      <trkpt lat="43.73411" lon="6.56564">
        <ele>1120.55</ele>
        <time>2026-05-17T12:45:20Z</time>
      </trkpt>
      <trkpt lat="43.73408" lon="6.56565">
        <ele>1120.55</ele>
        <time>2026-05-17T12:45:56Z</time>
      </trkpt>
      <trkpt lat="43.73409" lon="6.56567">
        <ele>1120.55</ele>
        <time>2026-05-17T12:46:26Z</time>
      </trkpt>
      <trkpt lat="43.7341" lon="6.56567">
        <ele>1122</ele>
        <time>2026-05-17T12:46:43Z</time>
      </trkpt>
      <trkpt lat="43.7341" lon="6.56567">
        <ele>1122</ele>
        <time>2026-05-17T12:47:08Z</time>
      </trkpt>
      <trkpt lat="43.73404" lon="6.56571">
        <ele>1121.03</ele>
        <time>2026-05-17T12:47:20Z</time>
      </trkpt>
      <trkpt lat="43.73397" lon="6.56582">
        <ele>1119.11</ele>
        <time>2026-05-17T12:47:36Z</time>
      </trkpt>
      <trkpt lat="43.73392" lon="6.56591">
        <ele>1115.75</ele>
        <time>2026-05-17T12:47:51Z</time>
      </trkpt>
      <trkpt lat="43.73385" lon="6.566">
        <ele>1114.31</ele>
        <time>2026-05-17T12:48:04Z</time>
      </trkpt>
      <trkpt lat="43.73376" lon="6.56614">
        <ele>1111.42</ele>
        <time>2026-05-17T12:48:19Z</time>
      </trkpt>
      <trkpt lat="43.73374" lon="6.56617">
        <ele>1111.42</ele>
        <time>2026-05-17T12:48:22Z</time>
      </trkpt>
      <trkpt lat="43.73365" lon="6.5663">
        <ele>1109.02</ele>
        <time>2026-05-17T12:48:36Z</time>
      </trkpt>
      <trkpt lat="43.73358" lon="6.56641">
        <ele>1107.58</ele>
        <time>2026-05-17T12:48:48Z</time>
      </trkpt>
      <trkpt lat="43.73346" lon="6.56666">
        <ele>1106.13</ele>
        <time>2026-05-17T12:49:04Z</time>
      </trkpt>
      <trkpt lat="43.7333" lon="6.56689">
        <ele>1105.65</ele>
        <time>2026-05-17T12:49:19Z</time>
      </trkpt>
      <trkpt lat="43.73322" lon="6.56701">
        <ele>1105.17</ele>
        <time>2026-05-17T12:49:28Z</time>
      </trkpt>
      <trkpt lat="43.7332" lon="6.56705">
        <ele>1104.21</ele>
        <time>2026-05-17T12:49:32Z</time>
      </trkpt>
      <trkpt lat="43.73311" lon="6.56722">
        <ele>1102.77</ele>
        <time>2026-05-17T12:49:47Z</time>
      </trkpt>
      <trkpt lat="43.733" lon="6.5675">
        <ele>1100.85</ele>
        <time>2026-05-17T12:50:04Z</time>
      </trkpt>
      <trkpt lat="43.73286" lon="6.56769">
        <ele>1099.4</ele>
        <time>2026-05-17T12:50:20Z</time>
      </trkpt>
      <trkpt lat="43.73271" lon="6.56787">
        <ele>1097</ele>
        <time>2026-05-17T12:50:37Z</time>
      </trkpt>
      <trkpt lat="43.73268" lon="6.56791">
        <ele>1096.52</ele>
        <time>2026-05-17T12:50:40Z</time>
      </trkpt>
      <trkpt lat="43.73253" lon="6.56805">
        <ele>1094.12</ele>
        <time>2026-05-17T12:50:57Z</time>
      </trkpt>
      <trkpt lat="43.73252" lon="6.56806">
        <ele>1094.12</ele>
        <time>2026-05-17T12:50:58Z</time>
      </trkpt>
      <trkpt lat="43.73248" lon="6.56809">
        <ele>1093.64</ele>
        <time>2026-05-17T12:51:03Z</time>
      </trkpt>
      <trkpt lat="43.73245" lon="6.56811">
        <ele>1093.16</ele>
        <time>2026-05-17T12:51:07Z</time>
      </trkpt>
      <trkpt lat="43.73232" lon="6.56819">
        <ele>1091.23</ele>
        <time>2026-05-17T12:51:21Z</time>
      </trkpt>
      <trkpt lat="43.73215" lon="6.56827">
        <ele>1089.31</ele>
        <time>2026-05-17T12:51:37Z</time>
      </trkpt>
      <trkpt lat="43.73201" lon="6.56836">
        <ele>1087.87</ele>
        <time>2026-05-17T12:51:52Z</time>
      </trkpt>
      <trkpt lat="43.73186" lon="6.56846">
        <ele>1087.87</ele>
        <time>2026-05-17T12:52:06Z</time>
      </trkpt>
      <trkpt lat="43.73171" lon="6.56859">
        <ele>1087.87</ele>
        <time>2026-05-17T12:52:21Z</time>
      </trkpt>
      <trkpt lat="43.73164" lon="6.56865">
        <ele>1087.87</ele>
        <time>2026-05-17T12:52:29Z</time>
      </trkpt>
      <trkpt lat="43.73161" lon="6.5687">
        <ele>1088.83</ele>
        <time>2026-05-17T12:52:34Z</time>
      </trkpt>
      <trkpt lat="43.73153" lon="6.56889">
        <ele>1090.27</ele>
        <time>2026-05-17T12:52:51Z</time>
      </trkpt>
      <trkpt lat="43.73145" lon="6.56907">
        <ele>1091.71</ele>
        <time>2026-05-17T12:53:07Z</time>
      </trkpt>
      <trkpt lat="43.73138" lon="6.56923">
        <ele>1093.64</ele>
        <time>2026-05-17T12:53:22Z</time>
      </trkpt>
      <trkpt lat="43.73131" lon="6.56937">
        <ele>1095.08</ele>
        <time>2026-05-17T12:53:35Z</time>
      </trkpt>
      <trkpt lat="43.73127" lon="6.56946">
        <ele>1095.08</ele>
        <time>2026-05-17T12:53:44Z</time>
      </trkpt>
      <trkpt lat="43.73118" lon="6.56962">
        <ele>1095.56</ele>
        <time>2026-05-17T12:54:01Z</time>
      </trkpt>
      <trkpt lat="43.73112" lon="6.56972">
        <ele>1096.04</ele>
        <time>2026-05-17T12:54:10Z</time>
      </trkpt>
      <trkpt lat="43.731" lon="6.56993">
        <ele>1094.6</ele>
        <time>2026-05-17T12:54:33Z</time>
      </trkpt>
      <trkpt lat="43.73093" lon="6.57007">
        <ele>1094.12</ele>
        <time>2026-05-17T12:54:49Z</time>
      </trkpt>
      <trkpt lat="43.7308" lon="6.5703">
        <ele>1093.16</ele>
        <time>2026-05-17T12:55:09Z</time>
      </trkpt>
      <trkpt lat="43.73068" lon="6.5705">
        <ele>1091.23</ele>
        <time>2026-05-17T12:55:27Z</time>
      </trkpt>
      <trkpt lat="43.73055" lon="6.57074">
        <ele>1089.31</ele>
        <time>2026-05-17T12:55:47Z</time>
      </trkpt>
      <trkpt lat="43.73041" lon="6.57099">
        <ele>1087.87</ele>
        <time>2026-05-17T12:56:08Z</time>
      </trkpt>
      <trkpt lat="43.73028" lon="6.57117">
        <ele>1085.95</ele>
        <time>2026-05-17T12:56:28Z</time>
      </trkpt>
      <trkpt lat="43.73019" lon="6.57123">
        <ele>1083.06</ele>
        <time>2026-05-17T12:56:46Z</time>
      </trkpt>
      <trkpt lat="43.73019" lon="6.57121">
        <ele>1083.06</ele>
        <time>2026-05-17T12:56:47Z</time>
      </trkpt>
      <trkpt lat="43.73015" lon="6.57116">
        <ele>1080.66</ele>
        <time>2026-05-17T12:57:02Z</time>
      </trkpt>
      <trkpt lat="43.73008" lon="6.57122">
        <ele>1077.78</ele>
        <time>2026-05-17T12:57:18Z</time>
      </trkpt>
      <trkpt lat="43.73005" lon="6.57122">
        <ele>1075.37</ele>
        <time>2026-05-17T12:57:33Z</time>
      </trkpt>
      <trkpt lat="43.73006" lon="6.57109">
        <ele>1072.97</ele>
        <time>2026-05-17T12:57:50Z</time>
      </trkpt>
      <trkpt lat="43.73005" lon="6.57107">
        <ele>1072.49</ele>
        <time>2026-05-17T12:57:54Z</time>
      </trkpt>
      <trkpt lat="43.73006" lon="6.57097">
        <ele>1072.01</ele>
        <time>2026-05-17T12:58:04Z</time>
      </trkpt>
      <trkpt lat="43.73006" lon="6.57095">
        <ele>1070.08</ele>
        <time>2026-05-17T12:58:11Z</time>
      </trkpt>
      <trkpt lat="43.73006" lon="6.57095">
        <ele>1073.45</ele>
        <time>2026-05-17T12:58:13Z</time>
      </trkpt>
      <trkpt lat="43.73006" lon="6.57095">
        <ele>1073.45</ele>
        <time>2026-05-17T12:58:14Z</time>
      </trkpt>
      <trkpt lat="43.73006" lon="6.57096">
        <ele>1072.01</ele>
        <time>2026-05-17T12:58:25Z</time>
      </trkpt>
      <trkpt lat="43.73006" lon="6.57096">
        <ele>1073.45</ele>
        <time>2026-05-17T12:58:28Z</time>
      </trkpt>
      <trkpt lat="43.73007" lon="6.57097">
        <ele>1072.01</ele>
        <time>2026-05-17T12:59:06Z</time>
      </trkpt>
      <trkpt lat="43.73005" lon="6.57097">
        <ele>1072.01</ele>
        <time>2026-05-17T12:59:51Z</time>
      </trkpt>
    </trkseg>
  </trk>
</gpx>